| time (UTC) | temp C | wind direction | speed KPH | gust KPH | rain 1hr cm | rain 24hr cm | rain mn cm | humidity % | barometer mb |
| 20260902230803 | 21 | 80 | 0.0 | 0.0 | 0.00 | 0.71 | 0.05 | 94 | 1015.3 |
| 20260902230757 | 21 | 79 | 0.0 | 0.0 | 0.00 | 0.71 | 0.05 | 94 | 1015.3 |
| 20260902230548 | 21 | 80 | 0.0 | 0.0 | 0.00 | 0.71 | 0.05 | 94 | 1015.3 |
| 20260902230520 | 21 | 80 | 0.0 | 0.0 | 0.00 | 0.71 | 0.05 | 94 | 1015.4 |
| 20260902230517 | 21 | 80 | 0.0 | 0.0 | 0.00 | 0.71 | 0.05 | 94 | 1015.3 |
| 20260902230447 | 21 | 80 | 0.0 | 0.0 | 0.00 | 0.71 | 0.05 | 94 | 1015.3 |
| 20260902230347 | 21 | 79 | 0.0 | 0.0 | 0.00 | 0.71 | 0.05 | 95 | 1015.2 |
| 20260902230247 | 21 | 82 | 0.0 | 0.0 | 0.00 | 0.71 | 0.05 | 95 | 1015.3 |
| 20260902230146 | 21 | 83 | 0.0 | 0.0 | 0.00 | 0.71 | 0.05 | 95 | 1015.2 |
| 20260902230046 | 21 | 83 | 0.0 | 0.0 | 0.00 | 0.71 | 0.05 | 94 | 1015.2 |
| 20260902230021 | 21 | 83 | 0.0 | 0.0 | 0.00 | 0.71 | 0.05 | 95 | 1015.2 |
| 20260902230014 | 21 | 83 | 0.0 | 0.0 | 0.00 | 0.71 | 0.05 | 95 | 1015.2 |
| 20260902225946 | 21 | 83 | 0.0 | 0.0 | 0.00 | 0.71 | 0.05 | 95 | 1015.1 |
| 20260902225845 | 21 | 83 | 0.0 | 0.0 | 0.00 | 0.71 | 0.05 | 95 | 1015.2 |
| 20260902225747 | 21 | 83 | 0.0 | 0.0 | 0.00 | 0.71 | 0.05 | 95 | 1015.2 |
| 20260902225657 | 21 | 103 | 0.0 | 0.0 | 0.00 | 0.71 | 0.05 | 95 | 1015.3 |
| 20260902225653 | 21 | 82 | 0.0 | 0.0 | 0.00 | 0.71 | 0.05 | 95 | 1015.2 |
| 20260902225520 | 21 | 105 | 0.0 | 0.0 | 0.00 | 0.71 | 0.05 | 95 | 1015.4 |
| 20260902225517 | 21 | 105 | 0.0 | 0.0 | 0.00 | 0.71 | 0.05 | 95 | 1015.3 |
| 20260902225511 | 21 | 105 | 0.0 | 0.0 | 0.00 | 0.71 | 0.05 | 95 | 1015.3 |
| 20260902225506 | 21 | 96 | 0.0 | 0.0 | 0.00 | 0.71 | 0.05 | 95 | 1015.3 |
| 20260902225502 | 21 | 105 | 0.0 | 0.0 | 0.00 | 0.71 | 0.05 | 95 | 1015.3 |
| 20260902225211 | 21 | 96 | 0.0 | 0.0 | 0.00 | 0.71 | 0.05 | 95 | 1015.3 |
| 20260902225049 | 21 | 96 | 0.0 | 0.0 | 0.00 | 0.71 | 0.05 | 95 | 1015.3 |
| 20260902225020 | 21 | 96 | 0.0 | 0.0 | 0.00 | 0.71 | 0.05 | 95 | 1015.4 |
| 20260902224842 | 21 | 93 | 0.0 | 0.0 | 0.00 | 0.71 | 0.05 | 95 | 1015.3 |
| 20260902224807 | 21 | 158 | 0.0 | 0.0 | 0.00 | 0.71 | 0.05 | 95 | 1015.4 |
| 20260902224803 | 21 | 158 | 0.0 | 0.0 | 0.00 | 0.71 | 0.05 | 95 | 1015.3 |
| 20260902224759 | 21 | 158 | 0.0 | 0.0 | 0.00 | 0.71 | 0.05 | 95 | 1015.3 |
| 20260902224535 | 21 | 107 | 0.0 | 0.0 | 0.00 | 0.71 | 0.05 | 95 | 1015.4 |
| 20260902224511 | 21 | 107 | 0.0 | 0.0 | 0.00 | 0.71 | 0.05 | 95 | 1015.3 |
| 20260902224440 | 21 | 107 | 0.0 | 0.0 | 0.00 | 0.71 | 0.05 | 95 | 1015.3 |
| 20260902224340 | 21 | 103 | 0.0 | 0.0 | 0.00 | 0.71 | 0.05 | 95 | 1015.3 |
| 20260902224252 | 21 | 92 | 0.0 | 0.0 | 0.00 | 0.71 | 0.05 | 95 | 1015.3 |
| 20260902224248 | 21 | 113 | 0.0 | 0.0 | 0.00 | 0.71 | 0.05 | 95 | 1015.3 |
| 20260902224039 | 21 | 101 | 0.0 | 0.0 | 0.00 | 0.71 | 0.05 | 95 | 1015.3 |
| 20260902224020 | 21 | 95 | 0.0 | 0.0 | 0.00 | 0.71 | 0.05 | 95 | 1015.5 |
| 20260902224009 | 21 | 94 | 0.0 | 0.0 | 0.00 | 0.71 | 0.05 | 95 | 1015.3 |
| 20260902223938 | 21 | 119 | 0.0 | 0.0 | 0.00 | 0.71 | 0.05 | 95 | 1015.4 |
| 20260902223838 | 21 | 125 | 0.0 | 0.0 | 0.00 | 0.71 | 0.05 | 95 | 1015.4 |
| 20260902223749 | 21 | 125 | 0.0 | 0.0 | 0.00 | 0.71 | 0.05 | 95 | 1015.4 |
| 20260902223745 | 21 | 125 | 0.0 | 0.0 | 0.00 | 0.71 | 0.05 | 95 | 1015.4 |
| 20260902223520 | 21 | 107 | 0.0 | 0.0 | 0.00 | 0.71 | 0.05 | 95 | 1015.5 |
| 20260902223510 | 21 | 107 | 0.0 | 0.0 | 0.00 | 0.71 | 0.05 | 95 | 1015.4 |
| 20260902223435 | 21 | 107 | 0.0 | 0.0 | 0.00 | 0.71 | 0.05 | 95 | 1015.4 |
| 20260902223336 | 21 | 107 | 0.0 | 0.0 | 0.00 | 0.71 | 0.05 | 95 | 1015.4 |
| 20260902223235 | 21 | 107 | 0.0 | 0.0 | 0.00 | 0.71 | 0.05 | 95 | 1015.5 |
| 20260902223208 | 21 | 107 | 0.0 | 0.0 | 0.00 | 0.71 | 0.05 | 95 | 1015.6 |
| 20260902223204 | 21 | 107 | 0.0 | 0.0 | 0.00 | 0.71 | 0.05 | 95 | 1015.6 |
| 20260902223159 | 21 | 107 | 0.0 | 0.0 | 0.00 | 0.71 | 0.05 | 95 | 1015.5 |
| 20260902223042 | 21 | 107 | 0.0 | 0.0 | 0.00 | 0.71 | 0.05 | 95 | 1015.6 |
| 20260902223020 | 21 | 107 | 0.0 | 0.0 | 0.00 | 0.71 | 0.05 | 95 | 1015.7 |
| 20260902222835 | 21 | 107 | 0.0 | 0.0 | 0.00 | 0.71 | 0.05 | 95 | 1015.6 |
| 20260902222733 | 21 | 93 | 0.0 | 0.0 | 0.00 | 0.71 | 0.05 | 95 | 1015.6 |
| 20260902222633 | 21 | 115 | 0.0 | 0.0 | 0.00 | 0.71 | 0.05 | 95 | 1015.6 |
| 20260902222533 | 21 | 126 | 0.0 | 0.0 | 0.00 | 0.71 | 0.05 | 95 | 1015.6 |
| 20260902222520 | 21 | 109 | 0.0 | 0.0 | 0.00 | 0.71 | 0.05 | 95 | 1015.8 |
| 20260902222508 | 21 | 109 | 0.0 | 0.0 | 0.00 | 0.71 | 0.05 | 95 | 1015.6 |
| 20260902222458 | 21 | 71 | 0.0 | 0.0 | 0.00 | 0.71 | 0.05 | 95 | 1015.7 |
| 20260902222454 | 21 | 70 | 0.0 | 0.0 | 0.00 | 0.71 | 0.05 | 95 | 1015.6 |
| 20260902222449 | 21 | 82 | 0.0 | 0.0 | 0.00 | 0.71 | 0.05 | 95 | 1015.7 |
| 20260902222131 | 21 | 99 | 0.0 | 0.0 | 0.00 | 0.71 | 0.05 | 95 | 1015.6 |
| 20260902222049 | 21 | 67 | 0.0 | 0.0 | 0.00 | 0.71 | 0.05 | 95 | 1015.6 |
| 20260902222045 | 21 | 96 | 0.0 | 0.0 | 0.00 | 0.71 | 0.05 | 95 | 1015.6 |
| 20260902222037 | 21 | 90 | 0.0 | 0.0 | 0.00 | 0.71 | 0.05 | 95 | 1015.6 |
| 20260902222020 | 21 | 90 | 0.0 | 0.0 | 0.00 | 0.71 | 0.05 | 95 | 1015.7 |
| 20260902221830 | 21 | 83 | 0.0 | 0.0 | 0.00 | 0.71 | 0.05 | 95 | 1015.6 |
| 20260902221730 | 21 | 93 | 0.0 | 0.0 | 0.00 | 0.71 | 0.05 | 95 | 1015.6 |
| 20260902221654 | 21 | 101 | 0.0 | 0.0 | 0.00 | 0.71 | 0.05 | 94 | 1015.6 |
| 20260902221541 | 21 | 101 | 0.0 | 0.0 | 0.00 | 0.71 | 0.05 | 94 | 1015.5 |
| 20260902221533 | 21 | 101 | 0.0 | 0.0 | 0.00 | 0.71 | 0.05 | 94 | 1015.6 |
| 20260902221520 | 21 | 101 | 0.0 | 0.0 | 0.00 | 0.71 | 0.05 | 94 | 1015.7 |
| 20260902221326 | 21 | 86 | 0.0 | 0.0 | 0.00 | 0.71 | 0.05 | 95 | 1015.6 |
| 20260902221226 | 21 | 103 | 0.0 | 0.0 | 0.00 | 0.71 | 0.05 | 95 | 1015.6 |
| 20260902221124 | 21 | 77 | 0.0 | 0.0 | 0.00 | 0.71 | 0.05 | 95 | 1015.6 |
| 20260902221043 | 21 | 140 | 0.0 | 0.0 | 0.00 | 0.71 | 0.05 | 95 | 1015.7 |
| 20260902221039 | 21 | 94 | 0.0 | 0.0 | 0.00 | 0.71 | 0.05 | 95 | 1015.7 |
| 20260902221031 | 21 | 125 | 0.0 | 0.0 | 0.00 | 0.71 | 0.05 | 95 | 1015.7 |
| 20260902221021 | 21 | 125 | 0.0 | 0.0 | 0.00 | 0.71 | 0.05 | 95 | 1015.8 |
| 20260902220822 | 21 | 98 | 0.0 | 0.0 | 0.00 | 0.71 | 0.05 | 95 | 1015.7 |
| 20260902220722 | 21 | 71 | 0.0 | 0.0 | 0.00 | 0.71 | 0.05 | 95 | 1015.9 |
| 20260902220623 | 21 | 71 | 0.0 | 0.0 | 0.00 | 0.71 | 0.05 | 95 | 1015.9 |
| 20260902220541 | 21 | 71 | 0.0 | 0.0 | 0.00 | 0.71 | 0.05 | 94 | 1016.0 |
| 20260902220520 | 21 | 71 | 0.0 | 0.0 | 0.00 | 0.71 | 0.05 | 94 | 1016.1 |
| 20260902220430 | 21 | 71 | 0.0 | 0.0 | 0.00 | 0.71 | 0.05 | 94 | 1016.0 |
| 20260902220235 | 21 | 84 | 0.0 | 0.0 | 0.00 | 0.71 | 0.05 | 95 | 1016.0 |
| 20260902220231 | 21 | 96 | 0.0 | 0.0 | 0.00 | 0.71 | 0.05 | 94 | 1016.0 |
| 20260902220021 | 21 | 71 | 0.0 | 0.0 | 0.00 | 0.71 | 0.05 | 95 | 1016.0 |
| 20260902220007 | 21 | 115 | 0.0 | 0.0 | 0.00 | 0.71 | 0.05 | 95 | 1016.0 |
| 20260902215920 | 21 | 115 | 0.0 | 0.0 | 0.00 | 0.71 | 0.05 | 95 | 1016.0 |
| 20260902215818 | 21 | 115 | 0.0 | 0.0 | 0.00 | 0.71 | 0.05 | 95 | 1015.9 |
| 20260902215718 | 21 | 115 | 0.0 | 0.0 | 0.00 | 0.71 | 0.05 | 95 | 1016.0 |
| 20260902215617 | 21 | 115 | 0.0 | 0.0 | 0.00 | 0.71 | 0.05 | 95 | 1016.0 |
| 20260902215520 | 21 | 113 | 0.0 | 0.0 | 0.00 | 0.71 | 0.05 | 94 | 1016.1 |
| 20260902215506 | 21 | 113 | 0.0 | 0.0 | 0.00 | 0.71 | 0.05 | 94 | 1016.0 |
| 20260902215416 | 21 | 113 | 0.0 | 0.0 | 0.00 | 0.71 | 0.05 | 94 | 1016.0 |
| 20260902215314 | 21 | 113 | 0.0 | 0.0 | 0.00 | 0.71 | 0.05 | 94 | 1016.1 |
| 20260902215213 | 21 | 113 | 0.0 | 0.0 | 0.00 | 0.71 | 0.05 | 94 | 1016.1 |
| 20260902215112 | 21 | 113 | 0.0 | 0.0 | 0.00 | 0.71 | 0.05 | 94 | 1016.1 |
| 20260902215020 | 21 | 118 | 0.0 | 0.0 | 0.00 | 0.71 | 0.05 | 94 | 1016.2 |
| 20260902215006 | 21 | 118 | 0.0 | 0.0 | 0.00 | 0.71 | 0.05 | 94 | 1016.1 |
| 20260902214911 | 21 | 118 | 0.0 | 0.0 | 0.00 | 0.71 | 0.05 | 94 | 1016.1 |
| 20260902214810 | 21 | 118 | 0.0 | 0.0 | 0.00 | 0.71 | 0.05 | 94 | 1016.1 |
| 20260902214710 | 21 | 118 | 0.0 | 0.0 | 0.00 | 0.71 | 0.05 | 94 | 1016.1 |
| 20260902214609 | 21 | 118 | 0.0 | 0.0 | 0.00 | 0.71 | 0.05 | 94 | 1016.1 |
| 20260902214520 | 22 | 109 | 0.0 | 0.0 | 0.00 | 0.71 | 0.05 | 95 | 1016.1 |
| 20260902214509 | 21 | 109 | 0.0 | 0.0 | 0.00 | 0.71 | 0.05 | 95 | 1016.0 |
| 20260902214408 | 21 | 109 | 0.0 | 0.0 | 0.00 | 0.71 | 0.05 | 95 | 1016.0 |
| 20260902214307 | 22 | 81 | 0.0 | 0.0 | 0.00 | 0.71 | 0.05 | 95 | 1016.0 |
| 20260902214207 | 22 | 67 | 0.0 | 0.0 | 0.00 | 0.71 | 0.05 | 95 | 1016.0 |
| 20260902214107 | 22 | 67 | 0.0 | 0.0 | 0.00 | 0.71 | 0.05 | 95 | 1015.9 |
| 20260902214020 | 22 | 48 | 0.0 | 0.0 | 0.00 | 0.71 | 0.05 | 95 | 1016.1 |
| 20260902214008 | 22 | 48 | 0.0 | 0.0 | 0.00 | 0.71 | 0.05 | 95 | 1016.0 |
| 20260902213907 | 22 | 72 | 0.0 | 0.0 | 0.00 | 0.71 | 0.05 | 95 | 1015.9 |
| 20260902213823 | 22 | 58 | 0.0 | 0.0 | 0.00 | 0.71 | 0.05 | 95 | 1015.8 |
| 20260902213818 | 22 | 139 | 0.0 | 0.0 | 0.00 | 0.71 | 0.05 | 95 | 1015.9 |
| 20260902213814 | 22 | 59 | 0.0 | 0.0 | 0.00 | 0.71 | 0.05 | 95 | 1015.8 |
| 20260902213619 | 22 | 139 | 0.0 | 0.0 | 0.00 | 0.71 | 0.05 | 95 | 1015.9 |
| 20260902213520 | 22 | 139 | 0.0 | 0.0 | 0.00 | 0.71 | 0.05 | 95 | 1016.0 |
| 20260902213505 | 22 | 139 | 0.0 | 0.0 | 0.00 | 0.71 | 0.05 | 95 | 1015.9 |
| 20260902213404 | 21 | 148 | 0.0 | 0.0 | 0.00 | 0.71 | 0.05 | 95 | 1015.9 |
| 20260902213304 | 22 | 149 | 0.0 | 0.0 | 0.00 | 0.71 | 0.05 | 95 | 1015.9 |
| 20260902213235 | 22 | 149 | 0.0 | 0.0 | 0.00 | 0.71 | 0.05 | 95 | 1015.8 |
| 20260902213231 | 21 | 149 | 0.0 | 0.0 | 0.00 | 0.71 | 0.05 | 95 | 1015.8 |
| 20260902213225 | 22 | 148 | 0.0 | 0.0 | 0.00 | 0.71 | 0.05 | 95 | 1015.9 |
| 20260902213107 | 21 | 149 | 0.0 | 0.0 | 0.00 | 0.71 | 0.05 | 95 | 1015.8 |
| 20260902213020 | 22 | 148 | 0.0 | 0.0 | 0.00 | 0.71 | 0.05 | 95 | 1015.9 |
| 20260902212901 | 21 | 149 | 0.0 | 0.0 | 0.00 | 0.71 | 0.05 | 95 | 1015.7 |
| 20260902212800 | 21 | 149 | 0.0 | 0.0 | 0.00 | 0.71 | 0.05 | 95 | 1015.6 |
| 20260902212659 | 22 | 149 | 0.0 | 0.0 | 0.00 | 0.71 | 0.05 | 95 | 1015.5 |
| 20260902212558 | 21 | 132 | 0.0 | 0.0 | 0.00 | 0.71 | 0.05 | 95 | 1015.4 |
| 20260902212520 | 22 | 132 | 0.0 | 0.0 | 0.00 | 0.71 | 0.05 | 95 | 1015.5 |
| 20260902212504 | 22 | 133 | 0.0 | 0.0 | 0.00 | 0.71 | 0.05 | 95 | 1015.4 |
| 20260902212458 | 22 | 123 | 0.0 | 0.0 | 0.00 | 0.71 | 0.05 | 95 | 1015.4 |
| 20260902212358 | 22 | 103 | 0.0 | 0.0 | 0.00 | 0.71 | 0.05 | 95 | 1015.4 |
| 20260902212257 | 22 | 103 | 0.0 | 0.0 | 0.00 | 0.71 | 0.05 | 95 | 1015.5 |
| 20260902212156 | 22 | 103 | 0.0 | 0.0 | 0.00 | 0.71 | 0.05 | 95 | 1015.5 |
| 20260902212056 | 22 | 101 | 0.0 | 0.0 | 0.00 | 0.71 | 0.05 | 95 | 1015.5 |
| 20260902212020 | 22 | 101 | 0.0 | 0.0 | 0.00 | 0.71 | 0.05 | 95 | 1015.6 |
| 20260902212003 | 22 | 101 | 0.0 | 0.0 | 0.00 | 0.71 | 0.05 | 95 | 1015.5 |
| 20260902211955 | 22 | 101 | 0.0 | 0.0 | 0.00 | 0.71 | 0.05 | 95 | 1015.5 |
| 20260902211855 | 22 | 92 | 0.0 | 0.0 | 0.00 | 0.71 | 0.05 | 95 | 1015.5 |
| 20260902211755 | 22 | 117 | 0.0 | 0.0 | 0.00 | 0.71 | 0.05 | 95 | 1015.5 |
| 20260902211655 | 22 | 118 | 0.0 | 0.0 | 0.00 | 0.71 | 0.05 | 95 | 1015.5 |
| 20260902211555 | 22 | 98 | 0.0 | 0.0 | 0.00 | 0.71 | 0.05 | 95 | 1015.5 |
| 20260902211520 | 22 | 98 | 0.0 | 0.0 | 0.00 | 0.71 | 0.05 | 95 | 1015.5 |
| 20260902211503 | 22 | 98 | 0.0 | 0.0 | 0.00 | 0.71 | 0.05 | 95 | 1015.4 |
| 20260902211454 | 21 | 98 | 0.0 | 0.0 | 0.00 | 0.71 | 0.05 | 95 | 1015.4 |
| 20260902211353 | 21 | 98 | 0.0 | 0.0 | 0.00 | 0.71 | 0.05 | 95 | 1015.4 |
| 20260902211253 | 21 | 98 | 0.0 | 0.0 | 0.00 | 0.71 | 0.05 | 95 | 1015.4 |
| 20260902211151 | 21 | 98 | 0.0 | 0.0 | 0.00 | 0.71 | 0.05 | 95 | 1015.3 |
| 20260902211049 | 21 | 81 | 0.0 | 0.0 | 0.00 | 0.71 | 0.05 | 95 | 1015.3 |
| 20260902211020 | 21 | 81 | 0.0 | 0.0 | 0.00 | 0.71 | 0.05 | 95 | 1015.4 |
| 20260902211003 | 21 | 81 | 0.0 | 0.0 | 0.00 | 0.71 | 0.05 | 95 | 1015.3 |
| 20260902210953 | 21 | 79 | 0.0 | 0.0 | 0.00 | 0.71 | 0.05 | 95 | 1015.1 |
| 20260902210948 | 21 | 81 | 0.0 | 0.0 | 0.00 | 0.71 | 0.05 | 95 | 1015.3 |
| 20260902210941 | 21 | 64 | 0.0 | 0.0 | 0.00 | 0.71 | 0.05 | 95 | 1015.1 |
| 20260902210935 | 21 | 81 | 0.0 | 0.0 | 0.00 | 0.71 | 0.05 | 95 | 1015.2 |
| 20260902210821 | 21 | 81 | 0.0 | 0.0 | 0.00 | 0.71 | 0.05 | 95 | 1015.2 |
| 20260902210703 | 21 | 96 | 0.0 | 0.0 | 0.00 | 0.71 | 0.05 | 95 | 1015.1 |
| 20260902210520 | 21 | 64 | 0.0 | 0.0 | 0.00 | 0.71 | 0.05 | 95 | 1015.2 |
| 20260902210348 | 21 | 44 | 0.0 | 0.0 | 0.00 | 0.71 | 0.05 | 95 | 1015.2 |
| 20260902210247 | 21 | 63 | 0.0 | 0.0 | 0.00 | 0.71 | 0.05 | 95 | 1015.2 |
| 20260902210146 | 21 | 104 | 0.0 | 0.0 | 0.00 | 0.71 | 0.05 | 95 | 1015.3 |
| 20260902210046 | 21 | 89 | 0.0 | 0.0 | 0.00 | 0.71 | 0.05 | 95 | 1015.2 |
| 20260902210026 | 21 | 101 | 0.0 | 0.0 | 0.00 | 0.71 | 0.05 | 95 | 1015.3 |
| 20260902210021 | 21 | 104 | 0.0 | 0.0 | 0.00 | 0.71 | 0.05 | 95 | 1015.2 |
| 20260902210015 | 21 | 104 | 0.0 | 0.0 | 0.00 | 0.71 | 0.05 | 95 | 1015.2 |
| 20260902205902 | 21 | 90 | 0.0 | 0.0 | 0.00 | 0.71 | 0.05 | 95 | 1015.4 |
| 20260902205858 | 21 | 109 | 0.0 | 0.0 | 0.00 | 0.71 | 0.05 | 95 | 1015.2 |
| 20260902205849 | 21 | 98 | 0.0 | 0.0 | 0.00 | 0.71 | 0.05 | 95 | 1015.2 |
| 20260902205626 | 21 | 101 | 0.0 | 0.0 | 0.00 | 0.71 | 0.05 | 95 | 1015.3 |
| 20260902205520 | 21 | 71 | 0.0 | 0.0 | 0.00 | 0.71 | 0.05 | 95 | 1015.5 |
| 20260902205512 | 21 | 90 | 0.0 | 0.0 | 0.00 | 0.71 | 0.05 | 95 | 1015.4 |
| 20260902205249 | 21 | 92 | 0.0 | 0.0 | 0.00 | 0.71 | 0.05 | 95 | 1015.4 |
| 20260902205108 | 21 | 96 | 0.0 | 0.0 | 0.00 | 0.71 | 0.05 | 95 | 1015.3 |
| 20260902205035 | 21 | 65 | 0.0 | 0.0 | 0.00 | 0.71 | 0.05 | 95 | 1015.3 |
| 20260902204940 | 21 | 65 | 0.0 | 0.0 | 0.00 | 0.71 | 0.05 | 95 | 1015.2 |
| 20260902204840 | 21 | 80 | 0.0 | 0.0 | 0.00 | 0.71 | 0.05 | 95 | 1015.2 |
| 20260902204738 | 21 | 85 | 0.0 | 0.0 | 0.00 | 0.71 | 0.05 | 95 | 1015.1 |
| 20260902204638 | 21 | 69 | 0.0 | 0.0 | 0.00 | 0.71 | 0.05 | 95 | 1015.1 |
| 20260902204538 | 21 | 81 | 0.0 | 0.0 | 0.00 | 0.71 | 0.05 | 95 | 1015.2 |
| 20260902204521 | 21 | 81 | 0.0 | 0.0 | 0.00 | 0.71 | 0.05 | 95 | 1015.3 |
| 20260902204500 | 21 | 81 | 0.0 | 0.0 | 0.00 | 0.71 | 0.05 | 95 | 1015.2 |
| 20260902204436 | 21 | 81 | 0.0 | 0.0 | 0.00 | 0.71 | 0.05 | 95 | 1015.2 |
| 20260902204336 | 21 | 82 | 0.0 | 0.0 | 0.00 | 0.71 | 0.05 | 95 | 1015.3 |
| 20260902204248 | 21 | 76 | 0.0 | 0.0 | 0.00 | 0.71 | 0.05 | 95 | 1015.3 |
| 20260902204244 | 21 | 89 | 0.0 | 0.0 | 0.00 | 0.71 | 0.05 | 95 | 1015.3 |
| 20260902204034 | 21 | 76 | 0.0 | 0.0 | 0.00 | 0.71 | 0.05 | 95 | 1015.4 |
| 20260902204020 | 21 | 76 | 0.0 | 0.0 | 0.00 | 0.71 | 0.05 | 95 | 1015.5 |
| 20260902203958 | 21 | 76 | 0.0 | 0.0 | 0.00 | 0.71 | 0.05 | 95 | 1015.4 |
| 20260902203934 | 21 | 76 | 0.0 | 0.0 | 0.00 | 0.71 | 0.05 | 95 | 1015.4 |
| 20260902203847 | 21 | 69 | 0.0 | 0.0 | 0.00 | 0.71 | 0.05 | 95 | 1015.5 |
| 20260902203843 | 21 | 76 | 0.0 | 0.0 | 0.00 | 0.71 | 0.05 | 95 | 1015.4 |
| 20260902203634 | 21 | 69 | 0.0 | 0.0 | 0.00 | 0.71 | 0.05 | 95 | 1015.5 |
| 20260902203605 | 21 | 69 | 0.0 | 0.0 | 0.00 | 0.71 | 0.05 | 95 | 1015.6 |
| 20260902203548 | 21 | 69 | 0.0 | 0.0 | 0.00 | 0.71 | 0.05 | 95 | 1015.5 |
| 20260902203538 | 21 | 69 | 0.0 | 0.0 | 0.00 | 0.71 | 0.05 | 95 | 1015.5 |
| 20260902203332 | 21 | 78 | 0.0 | 0.0 | 0.00 | 0.71 | 0.05 | 95 | 1015.6 |
| 20260902203232 | 21 | 67 | 0.0 | 0.0 | 0.00 | 0.71 | 0.05 | 95 | 1015.6 |
| 20260902203210 | 21 | 81 | 0.0 | 0.0 | 0.00 | 0.71 | 0.05 | 95 | 1015.5 |
| 20260902203132 | 21 | 62 | 0.0 | 0.0 | 0.00 | 0.71 | 0.05 | 95 | 1015.5 |
| 20260902203103 | 21 | 80 | 0.0 | 0.0 | 0.00 | 0.71 | 0.05 | 95 | 1015.5 |
| 20260902203020 | 21 | 80 | 0.0 | 0.0 | 0.00 | 0.71 | 0.05 | 95 | 1015.6 |
| 20260902202930 | 21 | 49 | 0.0 | 0.0 | 0.00 | 0.71 | 0.05 | 95 | 1015.5 |
| 20260902202830 | 21 | 49 | 0.0 | 0.0 | 0.00 | 0.71 | 0.05 | 95 | 1015.5 |
| 20260902202730 | 21 | 49 | 0.0 | 0.0 | 0.00 | 0.71 | 0.05 | 95 | 1015.4 |
| 20260902202628 | 21 | 47 | 0.0 | 0.0 | 0.00 | 0.71 | 0.05 | 95 | 1015.5 |
| 20260902202528 | 21 | 47 | 0.0 | 0.0 | 0.00 | 0.71 | 0.05 | 95 | 1015.5 |
| 20260902202521 | 21 | 47 | 0.0 | 0.0 | 0.00 | 0.71 | 0.05 | 95 | 1015.5 |
| 20260902202440 | 21 | 47 | 0.0 | 0.0 | 0.00 | 0.71 | 0.05 | 95 | 1015.5 |
| 20260902202436 | 21 | 47 | 0.0 | 0.0 | 0.00 | 0.71 | 0.05 | 95 | 1015.4 |
| 20260902202227 | 21 | 47 | 0.0 | 0.0 | 0.00 | 0.71 | 0.05 | 95 | 1015.5 |
| 20260902202126 | 21 | 47 | 0.0 | 0.0 | 0.00 | 0.71 | 0.05 | 95 | 1015.5 |
| 20260902202026 | 21 | 69 | 0.0 | 0.0 | 0.00 | 0.71 | 0.05 | 95 | 1015.5 |
| 20260902202020 | 21 | 69 | 0.0 | 0.0 | 0.00 | 0.71 | 0.05 | 95 | 1015.7 |
| 20260902201925 | 21 | 69 | 0.0 | 0.0 | 0.00 | 0.71 | 0.05 | 95 | 1015.6 |
| 20260902201825 | 21 | 69 | 0.0 | 0.0 | 0.00 | 0.71 | 0.05 | 95 | 1015.6 |
| 20260902201725 | 21 | 69 | 0.0 | 0.0 | 0.00 | 0.71 | 0.05 | 95 | 1015.6 |
| 20260902201624 | 21 | 61 | 0.0 | 0.0 | 0.00 | 0.71 | 0.05 | 95 | 1015.6 |
| 20260902201538 | 21 | 59 | 0.0 | 0.0 | 0.00 | 0.71 | 0.05 | 95 | 1015.6 |
| 20260902201530 | 21 | 67 | 0.0 | 0.0 | 0.00 | 0.71 | 0.05 | 95 | 1015.6 |
| 20260902201520 | 21 | 67 | 0.0 | 0.0 | 0.00 | 0.71 | 0.05 | 95 | 1015.7 |
| 20260902201322 | 21 | 67 | 0.0 | 0.0 | 0.00 | 0.71 | 0.05 | 95 | 1015.6 |
| 20260902201221 | 21 | 67 | 0.0 | 0.0 | 0.00 | 0.71 | 0.05 | 95 | 1015.6 |
| 20260902201153 | 21 | 66 | 0.0 | 0.0 | 0.00 | 0.71 | 0.05 | 95 | 1015.5 |
| 20260902201149 | 21 | 60 | 0.0 | 0.0 | 0.00 | 0.71 | 0.05 | 95 | 1015.4 |
| 20260902201144 | 21 | 66 | 0.0 | 0.0 | 0.00 | 0.71 | 0.05 | 95 | 1015.5 |
| 20260902201027 | 21 | 66 | 0.0 | 0.0 | 0.00 | 0.71 | 0.05 | 95 | 1015.4 |
| 20260902201020 | 21 | 66 | 0.0 | 0.0 | 0.00 | 0.71 | 0.05 | 95 | 1015.5 |
| 20260902200820 | 21 | 84 | 0.0 | 0.0 | 0.00 | 0.71 | 0.05 | 95 | 1015.4 |
| 20260902200801 | 21 | 110 | 0.0 | 0.0 | 0.00 | 0.71 | 0.05 | 95 | 1015.4 |
| 20260902200754 | 21 | 90 | 0.0 | 0.0 | 0.00 | 0.71 | 0.05 | 95 | 1015.4 |
| 20260902200641 | 21 | 57 | 0.0 | 0.0 | 0.00 | 0.71 | 0.05 | 95 | 1015.4 |
| 20260902200632 | 21 | 93 | 0.0 | 0.0 | 0.00 | 0.71 | 0.05 | 95 | 1015.4 |
| 20260902200520 | 21 | 110 | 0.0 | 0.0 | 0.00 | 0.71 | 0.05 | 95 | 1015.5 |
| 20260902200317 | 21 | 97 | 0.0 | 0.0 | 0.00 | 0.71 | 0.05 | 95 | 1015.4 |
| 20260902200217 | 21 | 82 | 0.0 | 0.0 | 0.00 | 0.71 | 0.05 | 95 | 1015.4 |
| 20260902200116 | 21 | 76 | 0.0 | 0.0 | 0.00 | 0.71 | 0.05 | 95 | 1015.5 |
| 20260902200035 | 21 | 78 | 0.0 | 0.0 | 0.00 | 0.71 | 0.05 | 95 | 1015.5 |
| 20260902200016 | 21 | 78 | 0.0 | 0.0 | 0.00 | 0.71 | 0.05 | 95 | 1015.5 |
| 20260902195946 | 21 | 78 | 0.0 | 0.0 | 0.00 | 0.71 | 0.05 | 95 | 1015.4 |
| 20260902195913 | 21 | 86 | 0.0 | 0.0 | 0.00 | 0.71 | 0.05 | 95 | 1015.4 |
| 20260902195814 | 21 | 119 | 0.0 | 0.0 | 0.00 | 0.71 | 0.05 | 95 | 1015.4 |
| 20260902195712 | 21 | 119 | 0.0 | 0.0 | 0.00 | 0.71 | 0.05 | 95 | 1015.4 |
| 20260902195612 | 21 | 119 | 0.0 | 0.0 | 0.00 | 0.71 | 0.05 | 95 | 1015.4 |
| 20260902195520 | 21 | 105 | 0.0 | 0.0 | 0.00 | 0.71 | 0.05 | 95 | 1015.5 |
| 20260902195512 | 21 | 105 | 0.0 | 0.0 | 0.00 | 0.71 | 0.05 | 95 | 1015.4 |
| 20260902195446 | 21 | 105 | 0.0 | 0.0 | 0.00 | 0.71 | 0.05 | 95 | 1015.4 |
| 20260902195439 | 21 | 105 | 0.0 | 0.0 | 0.00 | 0.71 | 0.05 | 95 | 1015.4 |
| 20260902195434 | 21 | 75 | 0.0 | 0.0 | 0.00 | 0.71 | 0.05 | 95 | 1015.3 |
| 20260902195429 | 21 | 105 | 0.0 | 0.0 | 0.00 | 0.71 | 0.05 | 95 | 1015.4 |
| 20260902195111 | 21 | 104 | 0.0 | 0.0 | 0.00 | 0.71 | 0.05 | 95 | 1015.3 |
| 20260902195020 | 21 | 104 | 0.0 | 0.0 | 0.00 | 0.71 | 0.05 | 95 | 1015.4 |
| 20260902195009 | 21 | 104 | 0.0 | 0.0 | 0.00 | 0.71 | 0.05 | 95 | 1015.2 |
| 20260902194944 | 21 | 104 | 0.0 | 0.0 | 0.00 | 0.71 | 0.05 | 95 | 1015.3 |
| 20260902194910 | 21 | 101 | 0.0 | 0.0 | 0.00 | 0.71 | 0.05 | 95 | 1015.3 |
| 20260902194810 | 21 | 84 | 0.0 | 0.0 | 0.00 | 0.71 | 0.05 | 95 | 1015.3 |
| 20260902194709 | 21 | 102 | 0.0 | 0.0 | 0.00 | 0.71 | 0.05 | 95 | 1015.4 |
| 20260902194609 | 21 | 65 | 0.0 | 0.0 | 0.00 | 0.71 | 0.05 | 95 | 1015.4 |
| 20260902194520 | 21 | 65 | 0.0 | 0.0 | 0.00 | 0.71 | 0.05 | 95 | 1015.5 |
| 20260902194508 | 21 | 65 | 0.0 | 0.0 | 0.00 | 0.71 | 0.05 | 95 | 1015.4 |
| 20260902194442 | 21 | 92 | 0.0 | 0.0 | 0.00 | 0.71 | 0.05 | 95 | 1015.4 |
| 20260902194421 | 21 | 104 | 0.0 | 0.0 | 0.00 | 0.71 | 0.05 | 95 | 1015.5 |
| 20260902194416 | 21 | 65 | 0.0 | 0.0 | 0.00 | 0.71 | 0.05 | 95 | 1015.4 |
| 20260902194207 | 21 | 113 | 0.0 | 0.0 | 0.00 | 0.71 | 0.05 | 95 | 1015.5 |
| 20260902194106 | 21 | 80 | 0.0 | 0.0 | 0.00 | 0.71 | 0.05 | 95 | 1015.5 |
| 20260902194020 | 21 | 66 | 0.0 | 0.0 | 0.00 | 0.71 | 0.05 | 95 | 1015.5 |
| 20260902194012 | 21 | 66 | 0.0 | 0.0 | 0.00 | 0.71 | 0.05 | 95 | 1015.5 |
| 20260902193818 | 21 | 78 | 0.0 | 0.0 | 0.00 | 0.71 | 0.05 | 95 | 1015.4 |
| 20260902193814 | 21 | 65 | 0.0 | 0.0 | 0.00 | 0.71 | 0.05 | 95 | 1015.4 |
| 20260902193603 | 21 | 80 | 0.0 | 0.0 | 0.00 | 0.71 | 0.05 | 95 | 1015.5 |
| 20260902193535 | 21 | 76 | 0.0 | 0.0 | 0.00 | 0.71 | 0.05 | 95 | 1015.5 |
| 20260902193530 | 21 | 83 | 0.0 | 0.0 | 0.00 | 0.71 | 0.05 | 95 | 1015.5 |
| 20260902193525 | 21 | 80 | 0.0 | 0.0 | 0.00 | 0.71 | 0.05 | 95 | 1015.5 |
| 20260902193520 | 21 | 80 | 0.0 | 0.0 | 0.00 | 0.71 | 0.05 | 95 | 1015.6 |
| 20260902193517 | 21 | 80 | 0.0 | 0.0 | 0.00 | 0.71 | 0.05 | 95 | 1015.5 |
| 20260902193201 | 21 | 77 | 0.0 | 0.0 | 0.00 | 0.71 | 0.05 | 95 | 1015.5 |
| 20260902193101 | 21 | 69 | 0.0 | 0.0 | 0.00 | 0.71 | 0.05 | 95 | 1015.5 |
| 20260902193035 | 21 | 111 | 0.0 | 0.0 | 0.00 | 0.71 | 0.05 | 95 | 1015.6 |
| 20260902193000 | 21 | 92 | 0.0 | 0.0 | 0.00 | 0.71 | 0.05 | 95 | 1015.5 |
| 20260902192940 | 21 | 65 | 0.0 | 0.0 | 0.00 | 0.71 | 0.05 | 95 | 1015.5 |
| 20260902192900 | 21 | 64 | 0.0 | 0.0 | 0.00 | 0.71 | 0.05 | 95 | 1015.5 |
| 20260902192800 | 21 | 64 | 0.0 | 0.0 | 0.00 | 0.71 | 0.05 | 95 | 1015.5 |
| 20260902192658 | 21 | 49 | 0.0 | 0.0 | 0.00 | 0.71 | 0.05 | 95 | 1015.6 |
| 20260902192558 | 21 | 82 | 0.0 | 0.0 | 0.00 | 0.71 | 0.05 | 95 | 1015.5 |
| 20260902192520 | 21 | 115 | 0.0 | 0.0 | 0.00 | 0.71 | 0.05 | 95 | 1015.7 |
| 20260902192457 | 21 | 114 | 0.0 | 0.0 | 0.00 | 0.71 | 0.05 | 95 | 1015.6 |
| 20260902192440 | 21 | 105 | 0.0 | 0.0 | 0.00 | 0.71 | 0.05 | 95 | 1015.6 |
| 20260902192357 | 21 | 80 | 0.0 | 0.0 | 0.00 | 0.71 | 0.05 | 95 | 1015.5 |
| 20260902192257 | 21 | 83 | 0.0 | 0.0 | 0.00 | 0.71 | 0.05 | 95 | 1015.6 |
| 20260902192208 | 21 | 76 | 0.0 | 0.0 | 0.00 | 0.71 | 0.05 | 95 | 1015.6 |
| 20260902192204 | 21 | 88 | 0.0 | 0.0 | 0.00 | 0.71 | 0.05 | 95 | 1015.6 |
| 20260902192020 | 21 | 62 | 0.0 | 0.0 | 0.00 | 0.71 | 0.05 | 95 | 1015.7 |
| 20260902191956 | 21 | 62 | 0.0 | 0.0 | 0.00 | 0.71 | 0.05 | 95 | 1015.6 |
| 20260902191939 | 21 | 98 | 0.0 | 0.0 | 0.00 | 0.71 | 0.05 | 95 | 1015.6 |
| 20260902191855 | 21 | 107 | 0.0 | 0.0 | 0.00 | 0.71 | 0.05 | 95 | 1015.6 |
| 20260902191755 | 21 | 107 | 0.0 | 0.0 | 0.00 | 0.71 | 0.05 | 95 | 1015.6 |
| 20260902191653 | 21 | 97 | 0.0 | 0.0 | 0.00 | 0.71 | 0.05 | 95 | 1015.6 |
| 20260902191553 | 21 | 85 | 0.0 | 0.0 | 0.00 | 0.71 | 0.05 | 95 | 1015.6 |
| 20260902191520 | 21 | 75 | 0.0 | 0.0 | 0.00 | 0.71 | 0.05 | 95 | 1015.8 |
| 20260902191453 | 21 | 71 | 0.0 | 0.0 | 0.00 | 0.71 | 0.05 | 95 | 1015.7 |
| 20260902191439 | 21 | 98 | 0.0 | 0.0 | 0.00 | 0.71 | 0.05 | 95 | 1015.7 |
| 20260902191414 | 21 | 101 | 0.0 | 0.0 | 0.00 | 0.71 | 0.05 | 95 | 1015.6 |
| 20260902191300 | 21 | 85 | 0.0 | 0.0 | 0.00 | 0.71 | 0.05 | 95 | 1015.7 |
| 20260902191049 | 21 | 71 | 0.0 | 0.0 | 0.00 | 0.71 | 0.05 | 95 | 1015.6 |
| 20260902191020 | 21 | 60 | 0.0 | 0.0 | 0.00 | 0.71 | 0.05 | 95 | 1015.7 |
| 20260902190939 | 21 | 60 | 0.0 | 0.0 | 0.00 | 0.71 | 0.05 | 95 | 1015.6 |
| 20260902190902 | 21 | 81 | 0.0 | 0.0 | 0.00 | 0.71 | 0.05 | 95 | 1015.8 |
| 20260902190857 | 21 | 94 | 0.0 | 0.0 | 0.00 | 0.71 | 0.05 | 95 | 1015.7 |
| 20260902190648 | 21 | 87 | 0.0 | 0.0 | 0.00 | 0.71 | 0.05 | 95 | 1015.8 |
| 20260902190548 | 21 | 87 | 0.0 | 0.0 | 0.00 | 0.71 | 0.05 | 95 | 1015.9 |
| 20260902190520 | 21 | 87 | 0.0 | 0.0 | 0.00 | 0.71 | 0.05 | 95 | 1016.0 |
| 20260902190438 | 21 | 87 | 0.0 | 0.0 | 0.00 | 0.71 | 0.05 | 95 | 1015.9 |
| 20260902190347 | 21 | 82 | 0.0 | 0.0 | 0.00 | 0.71 | 0.05 | 95 | 1015.9 |
| 20260902190259 | 21 | 83 | 0.0 | 0.0 | 0.00 | 0.71 | 0.05 | 95 | 1015.9 |
| 20260902190255 | 21 | 74 | 0.0 | 0.0 | 0.00 | 0.71 | 0.05 | 95 | 1015.9 |
| 20260902190100 | 21 | 102 | 0.0 | 0.0 | 0.00 | 0.71 | 0.05 | 95 | 1015.9 |
| 20260902190055 | 21 | 102 | 0.0 | 0.0 | 0.00 | 0.71 | 0.05 | 95 | 1015.8 |
| 20260902190020 | 21 | 102 | 0.0 | 0.0 | 0.00 | 0.71 | 0.05 | 95 | 1016.0 |
| 20260902185939 | 21 | 102 | 0.0 | 0.0 | 0.00 | 0.71 | 0.05 | 95 | 1015.9 |
| 20260902185900 | 21 | 102 | 0.0 | 0.0 | 0.00 | 0.71 | 0.05 | 95 | 1016.0 |
| 20260902185855 | 21 | 102 | 0.0 | 0.0 | 0.00 | 0.71 | 0.05 | 95 | 1015.9 |
| 20260902185646 | 21 | 102 | 0.0 | 0.0 | 0.00 | 0.71 | 0.05 | 95 | 1016.0 |
| 20260902185558 | 21 | 103 | 0.0 | 0.0 | 0.00 | 0.71 | 0.05 | 95 | 1016.2 |
| 20260902185554 | 21 | 102 | 0.0 | 0.0 | 0.00 | 0.71 | 0.05 | 95 | 1016.1 |
| 20260902185520 | 21 | 102 | 0.0 | 0.0 | 0.00 | 0.71 | 0.05 | 95 | 1016.3 |
| 20260902185438 | 21 | 103 | 0.0 | 0.0 | 0.00 | 0.71 | 0.05 | 95 | 1016.2 |
| 20260902185344 | 21 | 103 | 0.0 | 0.0 | 0.00 | 0.71 | 0.05 | 95 | 1016.3 |
| 20260902185311 | 21 | 108 | 0.0 | 0.0 | 0.00 | 0.71 | 0.05 | 95 | 1016.3 |
| 20260902185307 | 21 | 108 | 0.0 | 0.0 | 0.00 | 0.71 | 0.05 | 95 | 1016.4 |
| 20260902185301 | 21 | 108 | 0.0 | 0.0 | 0.00 | 0.71 | 0.05 | 95 | 1016.3 |
| 20260902185035 | 21 | 108 | 0.0 | 0.0 | 0.00 | 0.71 | 0.05 | 95 | 1016.5 |
| 20260902184938 | 21 | 108 | 0.0 | 0.0 | 0.00 | 0.71 | 0.05 | 95 | 1016.4 |
| 20260902184842 | 21 | 108 | 0.0 | 0.0 | 0.00 | 0.71 | 0.05 | 95 | 1016.3 |
| 20260902184740 | 21 | 108 | 0.0 | 0.0 | 0.00 | 0.71 | 0.05 | 95 | 1016.3 |
| 20260902184726 | 21 | 108 | 0.0 | 0.0 | 0.00 | 0.71 | 0.05 | 95 | 1016.3 |
| 20260902184722 | 21 | 108 | 0.0 | 0.0 | 0.00 | 0.71 | 0.05 | 95 | 1016.3 |
| 20260902184718 | 21 | 108 | 0.0 | 0.0 | 0.00 | 0.71 | 0.05 | 95 | 1016.3 |
| 20260902184713 | 21 | 108 | 0.0 | 0.0 | 0.00 | 0.71 | 0.05 | 95 | 1016.3 |
| 20260902184520 | 21 | 108 | 0.0 | 0.0 | 0.00 | 0.71 | 0.05 | 95 | 1016.4 |
| 20260902184447 | 21 | 108 | 0.0 | 0.0 | 0.00 | 0.71 | 0.05 | 95 | 1016.3 |
| 20260902184239 | 21 | 108 | 0.0 | 0.0 | 0.00 | 0.71 | 0.05 | 95 | 1016.3 |
| 20260902184139 | 21 | 108 | 0.0 | 0.0 | 0.00 | 0.71 | 0.05 | 95 | 1016.3 |
| 20260902184037 | 21 | 108 | 0.0 | 0.0 | 0.00 | 0.71 | 0.05 | 95 | 1016.4 |
| 20260902184021 | 21 | 108 | 0.0 | 0.0 | 0.00 | 0.71 | 0.05 | 95 | 1016.5 |
| 20260902183956 | 21 | 84 | 0.0 | 0.0 | 0.00 | 0.71 | 0.05 | 95 | 1016.4 |
| 20260902183947 | 21 | 108 | 0.0 | 0.0 | 0.00 | 0.71 | 0.05 | 95 | 1016.4 |
| 20260902183749 | 21 | 83 | 0.0 | 0.0 | 0.00 | 0.71 | 0.05 | 94 | 1016.4 |
| 20260902183745 | 21 | 84 | 0.0 | 0.0 | 0.00 | 0.71 | 0.05 | 94 | 1016.4 |
| 20260902183535 | 21 | 92 | 0.0 | 0.0 | 0.03 | 0.71 | 0.05 | 94 | 1016.6 |
| 20260902183433 | 21 | 92 | 0.0 | 0.0 | 0.03 | 0.71 | 0.05 | 94 | 1016.5 |
| 20260902183333 | 21 | 92 | 0.0 | 0.0 | 0.03 | 0.71 | 0.05 | 94 | 1016.4 |
| 20260902183233 | 21 | 92 | 0.0 | 0.0 | 0.03 | 0.71 | 0.05 | 94 | 1016.4 |
| 20260902183133 | 21 | 92 | 0.0 | 0.0 | 0.03 | 0.71 | 0.05 | 94 | 1016.5 |
| 20260902183031 | 21 | 92 | 0.0 | 0.0 | 0.03 | 0.71 | 0.05 | 94 | 1016.5 |
| 20260902183020 | 21 | 92 | 0.0 | 0.0 | 0.03 | 0.71 | 0.05 | 94 | 1016.6 |
| 20260902182932 | 21 | 92 | 0.0 | 0.0 | 0.03 | 0.71 | 0.05 | 94 | 1016.5 |
| 20260902182830 | 21 | 92 | 0.0 | 0.0 | 0.03 | 0.71 | 0.05 | 94 | 1016.4 |
| 20260902182742 | 21 | 97 | 0.0 | 0.0 | 0.03 | 0.71 | 0.05 | 94 | 1016.5 |
| 20260902182738 | 21 | 97 | 0.0 | 0.0 | 0.03 | 0.71 | 0.05 | 94 | 1016.5 |
| 20260902182528 | 21 | 97 | 0.0 | 0.0 | 0.03 | 0.71 | 0.05 | 94 | 1016.5 |
| 20260902182521 | 21 | 97 | 0.0 | 0.0 | 0.03 | 0.71 | 0.05 | 94 | 1016.6 |
| 20260902182428 | 21 | 97 | 0.0 | 0.0 | 0.03 | 0.71 | 0.05 | 94 | 1016.5 |
| 20260902182327 | 21 | 97 | 0.0 | 0.0 | 0.03 | 0.71 | 0.05 | 94 | 1016.5 |
| 20260902182226 | 21 | 97 | 0.0 | 0.0 | 0.03 | 0.71 | 0.05 | 94 | 1016.5 |
| 20260902182126 | 21 | 97 | 0.0 | 0.0 | 0.03 | 0.71 | 0.05 | 94 | 1016.5 |
| 20260902182026 | 21 | 97 | 0.0 | 0.0 | 0.03 | 0.71 | 0.05 | 94 | 1016.6 |
| 20260902182020 | 21 | 97 | 0.0 | 0.0 | 0.03 | 0.71 | 0.05 | 94 | 1016.7 |
| 20260902181925 | 21 | 97 | 0.0 | 0.0 | 0.03 | 0.71 | 0.05 | 94 | 1016.6 |
| 20260902181839 | 21 | 97 | 0.0 | 0.0 | 0.03 | 0.71 | 0.05 | 94 | 1016.7 |
| 20260902181834 | 21 | 97 | 0.0 | 0.0 | 0.03 | 0.71 | 0.05 | 94 | 1016.6 |
| 20260902181625 | 21 | 97 | 0.0 | 0.0 | 0.03 | 0.71 | 0.05 | 94 | 1016.7 |
| 20260902181539 | 21 | 97 | 0.0 | 0.0 | 0.03 | 0.71 | 0.05 | 94 | 1016.8 |
| 20260902181530 | 21 | 97 | 0.0 | 0.0 | 0.03 | 0.71 | 0.05 | 94 | 1016.8 |
| 20260902181520 | 21 | 97 | 0.0 | 0.0 | 0.03 | 0.71 | 0.05 | 94 | 1016.9 |
| 20260902181337 | 21 | 97 | 0.0 | 0.0 | 0.03 | 0.71 | 0.05 | 94 | 1016.8 |
| 20260902181333 | 21 | 97 | 0.0 | 0.0 | 0.03 | 0.71 | 0.05 | 94 | 1016.8 |
| 20260902181122 | 21 | 97 | 0.0 | 0.0 | 0.03 | 0.71 | 0.05 | 94 | 1016.8 |
| 20260902181050 | 21 | 97 | 0.0 | 0.0 | 0.03 | 0.71 | 0.05 | 94 | 1016.9 |
| 20260902181036 | 21 | 97 | 0.0 | 0.0 | 0.03 | 0.71 | 0.05 | 94 | 1016.8 |
| 20260902181027 | 21 | 97 | 0.0 | 0.0 | 0.03 | 0.71 | 0.05 | 94 | 1016.8 |
| 20260902180822 | 21 | 97 | 0.0 | 0.0 | 0.03 | 0.71 | 0.05 | 94 | 1016.8 |
| 20260902180748 | 21 | 97 | 0.0 | 0.0 | 0.03 | 0.71 | 0.05 | 94 | 1016.8 |
| 20260902180744 | 21 | 97 | 0.0 | 0.0 | 0.03 | 0.71 | 0.05 | 94 | 1016.8 |
| 20260902180738 | 21 | 97 | 0.0 | 0.0 | 0.03 | 0.71 | 0.05 | 94 | 1016.8 |
| 20260902180520 | 21 | 97 | 0.0 | 0.0 | 0.03 | 0.71 | 0.05 | 94 | 1017.0 |
| 20260902180419 | 21 | 97 | 0.0 | 0.0 | 0.03 | 0.71 | 0.05 | 94 | 1016.9 |
| 20260902180319 | 21 | 97 | 0.0 | 0.0 | 0.03 | 0.71 | 0.05 | 94 | 1016.9 |
| 20260902180220 | 21 | 97 | 0.0 | 0.0 | 0.03 | 0.71 | 0.05 | 94 | 1016.9 |
| 20260902180119 | 21 | 97 | 0.0 | 0.0 | 0.03 | 0.71 | 0.05 | 94 | 1017.0 |
| 20260902180020 | 21 | 97 | 0.0 | 0.0 | 0.03 | 0.71 | 0.05 | 94 | 1017.0 |
| 20260902175918 | 21 | 97 | 0.0 | 0.0 | 0.03 | 0.71 | 0.05 | 94 | 1016.9 |
| 20260902175816 | 21 | 97 | 0.0 | 0.0 | 0.03 | 0.71 | 0.05 | 94 | 1016.9 |
| 20260902175716 | 21 | 97 | 0.0 | 0.0 | 0.03 | 0.71 | 0.05 | 94 | 1017.0 |
| 20260902175616 | 21 | 97 | 0.0 | 3.2 | 0.03 | 0.71 | 0.05 | 94 | 1017.0 |
| 20260902175520 | 21 | 97 | 0.0 | 3.2 | 0.03 | 0.71 | 0.05 | 94 | 1017.0 |
| 20260902175515 | 21 | 97 | 0.0 | 3.2 | 0.03 | 0.71 | 0.05 | 94 | 1016.9 |
| 20260902175415 | 21 | 97 | 0.0 | 3.2 | 0.03 | 0.71 | 0.05 | 94 | 1016.9 |
| 20260902175315 | 21 | 97 | 0.0 | 3.2 | 0.03 | 0.71 | 0.05 | 94 | 1016.8 |
| 20260902175213 | 21 | 97 | 0.0 | 3.2 | 0.03 | 0.71 | 0.05 | 94 | 1016.8 |
| 20260902175113 | 21 | 97 | 0.0 | 3.2 | 0.03 | 0.71 | 0.05 | 93 | 1016.8 |
| 20260902175020 | 21 | 97 | 0.0 | 3.2 | 0.03 | 0.71 | 0.05 | 93 | 1016.8 |
| 20260902175012 | 21 | 97 | 0.0 | 3.2 | 0.03 | 0.71 | 0.05 | 93 | 1016.8 |
| 20260902174927 | 21 | 97 | 0.0 | 4.8 | 0.03 | 0.71 | 0.05 | 93 | 1016.7 |
| 20260902174912 | 21 | 97 | 0.0 | 6.4 | 0.03 | 0.71 | 0.05 | 93 | 1016.7 |
| 20260902174812 | 21 | 97 | 0.0 | 6.4 | 0.03 | 0.71 | 0.05 | 93 | 1016.7 |
| 20260902174711 | 21 | 97 | 1.6 | 8.0 | 0.03 | 0.71 | 0.05 | 93 | 1016.7 |
| 20260902174611 | 21 | 97 | 1.6 | 8.0 | 0.03 | 0.71 | 0.05 | 93 | 1016.7 |
| 20260902174520 | 21 | 97 | 0.0 | 9.7 | 0.03 | 0.71 | 0.05 | 93 | 1016.8 |
| 20260902174513 | 21 | 97 | 1.6 | 9.7 | 0.03 | 0.71 | 0.05 | 93 | 1016.7 |
| 20260902174424 | 21 | 97 | 1.6 | 9.7 | 0.03 | 0.71 | 0.05 | 93 | 1016.7 |
| 20260902174410 | 21 | 97 | 1.6 | 11.3 | 0.03 | 0.71 | 0.05 | 93 | 1016.7 |
| 20260902174309 | 21 | 97 | 1.6 | 12.9 | 0.03 | 0.71 | 0.05 | 93 | 1016.7 |
| 20260902174223 | 21 | 97 | 3.2 | 12.9 | 0.03 | 0.71 | 0.05 | 93 | 1016.6 |
| 20260902174218 | 21 | 97 | 1.6 | 12.9 | 0.03 | 0.71 | 0.05 | 93 | 1016.6 |
| 20260902174102 | 21 | 64 | 3.2 | 12.9 | 0.03 | 0.71 | 0.05 | 93 | 1016.5 |
| 20260902174058 | 21 | 87 | 3.2 | 12.9 | 0.03 | 0.71 | 0.05 | 93 | 1016.4 |
| 20260902174051 | 21 | 97 | 3.2 | 12.9 | 0.03 | 0.71 | 0.05 | 93 | 1016.5 |
| 20260902174044 | 21 | 96 | 3.2 | 12.9 | 0.03 | 0.71 | 0.05 | 93 | 1016.5 |
| 20260902174035 | 21 | 97 | 0.0 | 12.9 | 0.03 | 0.71 | 0.05 | 93 | 1016.6 |
| 20260902173823 | 21 | 137 | 3.2 | 12.9 | 0.03 | 0.71 | 0.05 | 93 | 1016.4 |
| 20260902173520 | 21 | 107 | 0.0 | 12.9 | 0.00 | 0.69 | 0.03 | 93 | 1016.4 |
| 20260902173505 | 21 | 106 | 3.2 | 12.9 | 0.00 | 0.69 | 0.03 | 93 | 1016.3 |
| 20260902173423 | 21 | 102 | 3.2 | 12.9 | 0.00 | 0.69 | 0.03 | 93 | 1016.3 |
| 20260902173404 | 21 | 102 | 3.2 | 6.4 | 0.00 | 0.69 | 0.03 | 93 | 1016.2 |
| 20260902173304 | 21 | 115 | 3.2 | 6.4 | 0.00 | 0.69 | 0.03 | 93 | 1016.2 |
| 20260902173203 | 21 | 107 | 3.2 | 6.4 | 0.00 | 0.69 | 0.03 | 92 | 1016.2 |
| 20260902173139 | 21 | 105 | 3.2 | 9.7 | 0.00 | 0.69 | 0.03 | 92 | 1016.4 |
| 20260902173103 | 21 | 107 | 3.2 | 6.4 | 0.00 | 0.69 | 0.03 | 93 | 1016.3 |
| 20260902173029 | 21 | 107 | 3.2 | 9.7 | 0.00 | 0.69 | 0.03 | 92 | 1016.4 |
| 20260902173020 | 21 | 107 | 4.8 | 9.7 | 0.00 | 0.69 | 0.03 | 92 | 1016.5 |
| 20260902172901 | 21 | 105 | 3.2 | 9.7 | 0.00 | 0.69 | 0.03 | 92 | 1016.5 |
| 20260902172802 | 21 | 105 | 3.2 | 9.7 | 0.00 | 0.69 | 0.03 | 92 | 1016.5 |
| 20260902172753 | 21 | 100 | 3.2 | 9.7 | 0.00 | 0.69 | 0.03 | 92 | 1016.6 |
| 20260902172601 | 21 | 100 | 3.2 | 9.7 | 0.00 | 0.69 | 0.03 | 92 | 1016.6 |
| 20260902172535 | 21 | 101 | 3.2 | 9.7 | 0.00 | 0.69 | 0.03 | 92 | 1016.7 |
| 20260902172528 | 21 | 101 | 3.2 | 9.7 | 0.00 | 0.69 | 0.03 | 92 | 1016.6 |
| 20260902172401 | 21 | 107 | 3.2 | 9.7 | 0.00 | 0.69 | 0.03 | 92 | 1016.6 |
| 20260902172300 | 21 | 108 | 3.2 | 9.7 | 0.00 | 0.69 | 0.03 | 92 | 1016.7 |
| 20260902172159 | 21 | 107 | 3.2 | 9.7 | 0.00 | 0.69 | 0.03 | 92 | 1016.7 |
| 20260902172059 | 21 | 110 | 3.2 | 6.4 | 0.00 | 0.69 | 0.03 | 92 | 1016.8 |
| 20260902172020 | 21 | 108 | 3.2 | 6.4 | 0.00 | 0.69 | 0.03 | 92 | 1016.9 |
| 20260902171958 | 21 | 108 | 3.2 | 6.4 | 0.00 | 0.69 | 0.03 | 92 | 1016.8 |
| 20260902171918 | 21 | 119 | 3.2 | 8.0 | 0.00 | 0.69 | 0.03 | 92 | 1016.8 |
| 20260902171858 | 21 | 119 | 3.2 | 8.0 | 0.00 | 0.69 | 0.03 | 92 | 1016.9 |
| 20260902171758 | 21 | 111 | 3.2 | 8.0 | 0.00 | 0.69 | 0.03 | 92 | 1016.9 |
| 20260902171657 | 21 | 111 | 3.2 | 8.0 | 0.00 | 0.69 | 0.03 | 92 | 1017.0 |
| 20260902171639 | 21 | 111 | 3.2 | 8.0 | 0.00 | 0.69 | 0.03 | 92 | 1017.0 |
| 20260902171557 | 21 | 111 | 3.2 | 8.0 | 0.00 | 0.69 | 0.03 | 92 | 1017.0 |
| 20260902171526 | 21 | 111 | 3.2 | 8.0 | 0.00 | 0.69 | 0.03 | 92 | 1017.0 |
| 20260902171520 | 22 | 111 | 3.2 | 6.4 | 0.00 | 0.69 | 0.03 | 92 | 1017.1 |
| 20260902171355 | 21 | 115 | 3.2 | 8.0 | 0.00 | 0.69 | 0.03 | 92 | 1017.0 |
| 20260902171255 | 21 | 161 | 3.2 | 8.0 | 0.00 | 0.69 | 0.03 | 92 | 1017.1 |
| 20260902171209 | 21 | 162 | 3.2 | 8.0 | 0.00 | 0.69 | 0.03 | 92 | 1017.1 |
| 20260902171204 | 21 | 162 | 3.2 | 8.0 | 0.00 | 0.69 | 0.03 | 92 | 1017.1 |
| 20260902171020 | 22 | 168 | 6.4 | 6.4 | 0.00 | 0.69 | 0.03 | 91 | 1017.3 |
| 20260902170955 | 22 | 169 | 3.2 | 8.0 | 0.00 | 0.69 | 0.03 | 91 | 1017.2 |
| 20260902170919 | 22 | 116 | 3.2 | 6.4 | 0.00 | 0.69 | 0.03 | 91 | 1017.2 |
| 20260902170855 | 22 | 116 | 3.2 | 6.4 | 0.00 | 0.69 | 0.03 | 91 | 1017.2 |
| 20260902170809 | 22 | 116 | 3.2 | 6.4 | 0.00 | 0.69 | 0.03 | 91 | 1017.2 |
| 20260902170805 | 22 | 116 | 3.2 | 6.4 | 0.00 | 0.69 | 0.03 | 91 | 1017.2 |
| 20260902170555 | 22 | 116 | 3.2 | 6.4 | 0.00 | 0.69 | 0.03 | 91 | 1017.3 |
| 20260902170520 | 22 | 116 | 3.2 | 6.4 | 0.00 | 0.69 | 0.03 | 91 | 1017.4 |
| 20260902170454 | 22 | 116 | 3.2 | 6.4 | 0.00 | 0.69 | 0.03 | 91 | 1017.3 |
| 20260902170416 | 22 | 117 | 3.2 | 6.4 | 0.00 | 0.69 | 0.03 | 91 | 1017.3 |
| 20260902170355 | 22 | 116 | 3.2 | 6.4 | 0.00 | 0.69 | 0.03 | 91 | 1017.3 |
| 20260902170251 | 22 | 117 | 3.2 | 6.4 | 0.00 | 0.69 | 0.03 | 91 | 1017.3 |
| 20260902170151 | 22 | 103 | 3.2 | 6.4 | 0.00 | 0.69 | 0.03 | 92 | 1017.3 |
| 20260902170051 | 22 | 102 | 3.2 | 6.4 | 0.00 | 0.69 | 0.03 | 92 | 1017.3 |
| 20260902170020 | 22 | 102 | 0.0 | 6.4 | 0.00 | 0.69 | 0.03 | 92 | 1017.4 |
| 20260902165950 | 22 | 102 | 3.2 | 6.4 | 0.00 | 0.69 | 0.03 | 92 | 1017.3 |
| 20260902165916 | 22 | 102 | 3.2 | 6.4 | 0.00 | 0.69 | 0.03 | 92 | 1017.3 |
| 20260902165851 | 22 | 102 | 3.2 | 6.4 | 0.00 | 0.69 | 0.03 | 91 | 1017.3 |
| 20260902165750 | 22 | 102 | 3.2 | 6.4 | 0.00 | 0.69 | 0.03 | 91 | 1017.2 |
| 20260902165650 | 22 | 101 | 3.2 | 6.4 | 0.00 | 0.69 | 0.03 | 91 | 1017.2 |
| 20260902165549 | 22 | 101 | 3.2 | 6.4 | 0.00 | 0.69 | 0.03 | 91 | 1017.2 |
| 20260902165520 | 22 | 101 | 1.6 | 6.4 | 0.00 | 0.69 | 0.03 | 91 | 1017.3 |
| 20260902165507 | 22 | 101 | 3.2 | 6.4 | 0.00 | 0.69 | 0.03 | 91 | 1017.2 |
| 20260902165356 | 22 | 101 | 3.2 | 6.4 | 0.00 | 0.69 | 0.03 | 91 | 1017.2 |
| 20260902165146 | 22 | 88 | 3.2 | 6.4 | 0.00 | 0.69 | 0.03 | 91 | 1017.3 |
| 20260902165046 | 22 | 88 | 3.2 | 6.4 | 0.00 | 0.69 | 0.03 | 92 | 1017.2 |
| 20260902165020 | 22 | 87 | 4.8 | 6.4 | 0.00 | 0.69 | 0.03 | 92 | 1017.3 |
| 20260902164944 | 22 | 84 | 3.2 | 6.4 | 0.00 | 0.69 | 0.03 | 92 | 1017.2 |
| 20260902164916 | 22 | 112 | 3.2 | 6.4 | 0.00 | 0.69 | 0.03 | 92 | 1017.2 |
| 20260902164844 | 22 | 112 | 3.2 | 6.4 | 0.00 | 0.69 | 0.03 | 92 | 1017.2 |
| 20260902164744 | 22 | 92 | 3.2 | 6.4 | 0.00 | 0.69 | 0.03 | 92 | 1017.2 |
| 20260902164644 | 22 | 92 | 3.2 | 6.4 | 0.00 | 0.69 | 0.03 | 92 | 1017.2 |
| 20260902164637 | 22 | 92 | 3.2 | 6.4 | 0.00 | 0.69 | 0.03 | 91 | 1017.2 |
| 20260902164631 | 22 | 92 | 3.2 | 6.4 | 0.00 | 0.69 | 0.03 | 91 | 1017.2 |
| 20260902164521 | 22 | 92 | 0.0 | 6.4 | 0.00 | 0.69 | 0.03 | 91 | 1017.3 |
| 20260902164355 | 22 | 83 | 4.8 | 11.3 | 0.00 | 0.69 | 0.03 | 91 | 1017.1 |
| 20260902164351 | 22 | 93 | 3.2 | 8.0 | 0.00 | 0.69 | 0.03 | 91 | 1017.2 |
| 20260902164204 | 22 | 63 | 3.2 | 11.3 | 0.00 | 0.69 | 0.03 | 91 | 1017.1 |
| 20260902164142 | 22 | 81 | 4.8 | 11.3 | 0.00 | 0.69 | 0.03 | 91 | 1017.1 |
| 20260902164109 | 22 | 63 | 3.2 | 11.3 | 0.00 | 0.69 | 0.03 | 91 | 1017.1 |
| 20260902164104 | 22 | 61 | 3.2 | 11.3 | 0.00 | 0.69 | 0.03 | 91 | 1017.1 |
| 20260902164055 | 22 | 46 | 3.2 | 11.3 | 0.00 | 0.69 | 0.03 | 91 | 1017.1 |
| 20260902164020 | 22 | 46 | 1.6 | 11.3 | 0.00 | 0.69 | 0.03 | 91 | 1017.2 |
| 20260902163815 | 22 | 69 | 3.2 | 11.3 | 0.00 | 0.69 | 0.03 | 92 | 1016.9 |
| 20260902163809 | 22 | 71 | 3.2 | 11.3 | 0.00 | 0.69 | 0.03 | 91 | 1017.0 |
| 20260902163547 | 22 | 112 | 3.2 | 11.3 | 0.00 | 0.69 | 0.03 | 91 | 1017.0 |
| 20260902163520 | 22 | 112 | 4.8 | 11.3 | 0.00 | 0.69 | 0.03 | 91 | 1017.1 |
| 20260902163412 | 22 | 72 | 3.2 | 11.3 | 0.00 | 0.69 | 0.03 | 92 | 1017.0 |
| 20260902163337 | 22 | 76 | 3.2 | 9.7 | 0.00 | 0.69 | 0.03 | 92 | 1017.1 |
| 20260902163237 | 22 | 59 | 3.2 | 9.7 | 0.00 | 0.69 | 0.03 | 92 | 1017.1 |
| 20260902163135 | 22 | 69 | 3.2 | 9.7 | 0.00 | 0.69 | 0.03 | 92 | 1017.1 |
| 20260902163035 | 22 | 78 | 3.2 | 9.7 | 0.00 | 0.69 | 0.03 | 92 | 1017.1 |
| 20260902163020 | 22 | 78 | 1.6 | 8.0 | 0.00 | 0.69 | 0.03 | 92 | 1017.2 |
| 20260902162951 | 22 | 78 | 3.2 | 9.7 | 0.00 | 0.69 | 0.03 | 92 | 1017.1 |
| 20260902162947 | 22 | 78 | 3.2 | 9.7 | 0.00 | 0.69 | 0.03 | 92 | 1017.1 |
| 20260902162939 | 22 | 78 | 3.2 | 9.7 | 0.00 | 0.69 | 0.03 | 92 | 1017.1 |
| 20260902162734 | 22 | 89 | 3.2 | 9.7 | 0.00 | 0.69 | 0.03 | 92 | 1017.1 |
| 20260902162632 | 22 | 89 | 1.6 | 9.7 | 0.00 | 0.69 | 0.03 | 92 | 1017.1 |
| 20260902162613 | 22 | 88 | 1.6 | 9.7 | 0.00 | 0.69 | 0.03 | 92 | 1017.1 |
| 20260902162520 | 22 | 88 | 1.6 | 8.0 | 0.00 | 0.69 | 0.03 | 92 | 1017.2 |
| 20260902162500 | 21 | 88 | 3.2 | 9.7 | 0.00 | 0.69 | 0.03 | 92 | 1017.1 |
| 20260902162455 | 21 | 88 | 3.2 | 9.7 | 0.00 | 0.69 | 0.03 | 92 | 1017.1 |
| 20260902162447 | 21 | 88 | 3.2 | 9.7 | 0.00 | 0.69 | 0.03 | 92 | 1017.1 |
| 20260902162131 | 21 | 88 | 3.2 | 9.7 | 0.00 | 0.69 | 0.03 | 92 | 1017.2 |
| 20260902162029 | 21 | 88 | 3.2 | 9.7 | 0.00 | 0.69 | 0.03 | 92 | 1017.2 |
| 20260902162020 | 22 | 84 | 6.4 | 8.0 | 0.00 | 0.69 | 0.03 | 92 | 1017.3 |
| 20260902161929 | 21 | 88 | 3.2 | 8.0 | 0.00 | 0.69 | 0.03 | 92 | 1017.2 |
| 20260902161910 | 21 | 87 | 3.2 | 8.0 | 0.00 | 0.69 | 0.03 | 92 | 1017.2 |
| 20260902161828 | 21 | 87 | 3.2 | 8.0 | 0.00 | 0.69 | 0.03 | 93 | 1017.3 |
| 20260902161728 | 21 | 88 | 3.2 | 8.0 | 0.00 | 0.69 | 0.03 | 92 | 1017.2 |
| 20260902161649 | 21 | 88 | 3.2 | 8.0 | 0.00 | 0.69 | 0.03 | 92 | 1017.2 |
| 20260902161536 | 21 | 88 | 3.2 | 8.0 | 0.00 | 0.69 | 0.03 | 92 | 1017.2 |
| 20260902161520 | 21 | 88 | 3.2 | 8.0 | 0.00 | 0.69 | 0.03 | 92 | 1017.4 |
| 20260902161410 | 21 | 90 | 3.2 | 8.0 | 0.00 | 0.69 | 0.03 | 92 | 1017.3 |
| 20260902161326 | 21 | 90 | 3.2 | 8.0 | 0.00 | 0.69 | 0.03 | 92 | 1017.2 |
| 20260902161226 | 21 | 90 | 3.2 | 8.0 | 0.00 | 0.69 | 0.03 | 92 | 1017.2 |
| 20260902161124 | 21 | 90 | 3.2 | 8.0 | 0.00 | 0.69 | 0.03 | 92 | 1017.3 |
| 20260902161023 | 21 | 55 | 3.2 | 8.0 | 0.00 | 0.69 | 0.03 | 92 | 1017.3 |
| 20260902161020 | 21 | 61 | 4.8 | 6.4 | 0.00 | 0.69 | 0.03 | 93 | 1017.4 |
| 20260902160924 | 21 | 61 | 3.2 | 6.4 | 0.00 | 0.69 | 0.03 | 92 | 1017.3 |
| 20260902160909 | 21 | 84 | 3.2 | 6.4 | 0.00 | 0.69 | 0.03 | 92 | 1017.3 |
| 20260902160822 | 21 | 85 | 3.2 | 6.4 | 0.00 | 0.69 | 0.03 | 92 | 1017.3 |
| 20260902160722 | 21 | 85 | 3.2 | 6.4 | 0.00 | 0.69 | 0.03 | 92 | 1017.3 |
| 20260902160620 | 21 | 85 | 3.2 | 6.4 | 0.00 | 0.69 | 0.03 | 92 | 1017.2 |
| 20260902160520 | 21 | 84 | 4.8 | 6.4 | 0.00 | 0.69 | 0.03 | 93 | 1017.2 |
| 20260902160410 | 21 | 82 | 1.6 | 6.4 | 0.00 | 0.69 | 0.03 | 93 | 1017.1 |
| 20260902160331 | 21 | 109 | 1.6 | 6.4 | 0.00 | 0.69 | 0.03 | 93 | 1017.0 |
| 20260902160327 | 21 | 109 | 1.6 | 6.4 | 0.00 | 0.69 | 0.03 | 93 | 1017.0 |
| 20260902160135 | 21 | 109 | 1.6 | 6.4 | 0.00 | 0.69 | 0.03 | 93 | 1017.1 |
| 20260902160118 | 21 | 107 | 1.6 | 6.4 | 0.00 | 0.69 | 0.03 | 93 | 1017.1 |
| 20260902160024 | 21 | 107 | 1.6 | 6.4 | 0.00 | 0.69 | 0.03 | 93 | 1017.1 |
| 20260902160020 | 21 | 107 | 1.6 | 6.4 | 0.00 | 0.69 | 0.03 | 93 | 1017.2 |
| 20260902160015 | 21 | 107 | 1.6 | 6.4 | 0.00 | 0.69 | 0.03 | 93 | 1017.1 |
| 20260902155829 | 21 | 109 | 1.6 | 6.4 | 0.00 | 0.69 | 0.03 | 93 | 1017.1 |
| 20260902155825 | 21 | 109 | 1.6 | 6.4 | 0.00 | 0.69 | 0.03 | 93 | 1017.1 |
| 20260902155614 | 21 | 109 | 3.2 | 6.4 | 0.00 | 0.69 | 0.03 | 93 | 1017.2 |
| 20260902155520 | 21 | 109 | 1.6 | 11.3 | 0.00 | 0.69 | 0.03 | 93 | 1017.3 |
| 20260902155514 | 21 | 109 | 3.2 | 11.3 | 0.00 | 0.69 | 0.03 | 93 | 1017.1 |
| 20260902155414 | 21 | 107 | 3.2 | 12.9 | 0.00 | 0.69 | 0.03 | 93 | 1017.2 |
| 20260902155406 | 21 | 103 | 3.2 | 12.9 | 0.00 | 0.69 | 0.03 | 93 | 1017.2 |
| 20260902155312 | 21 | 100 | 3.2 | 12.9 | 0.00 | 0.69 | 0.03 | 93 | 1017.2 |
| 20260902155212 | 21 | 100 | 3.2 | 12.9 | 0.00 | 0.69 | 0.03 | 93 | 1017.2 |
| 20260902155111 | 21 | 100 | 4.8 | 12.9 | 0.00 | 0.69 | 0.03 | 93 | 1017.1 |
| 20260902155026 | 21 | 101 | 4.8 | 12.9 | 0.00 | 0.69 | 0.03 | 93 | 1017.0 |
| 20260902155022 | 21 | 101 | 4.8 | 12.9 | 0.00 | 0.69 | 0.03 | 93 | 1017.1 |
| 20260902155020 | 21 | 101 | 0.0 | 12.9 | 0.00 | 0.69 | 0.03 | 93 | 1017.1 |
| 20260902154905 | 21 | 101 | 4.8 | 12.9 | 0.00 | 0.69 | 0.03 | 93 | 1017.0 |
| 20260902154810 | 21 | 106 | 4.8 | 12.9 | 0.00 | 0.69 | 0.03 | 93 | 1017.0 |
| 20260902154710 | 21 | 95 | 4.8 | 12.9 | 0.00 | 0.69 | 0.03 | 93 | 1017.0 |
| 20260902154610 | 21 | 86 | 4.8 | 12.9 | 0.00 | 0.69 | 0.03 | 93 | 1016.9 |
| 20260902154521 | 21 | 94 | 6.4 | 12.9 | 0.00 | 0.69 | 0.03 | 93 | 1017.1 |
| 20260902154510 | 21 | 98 | 4.8 | 12.9 | 0.00 | 0.69 | 0.03 | 93 | 1017.0 |
| 20260902154412 | 21 | 57 | 4.8 | 12.9 | 0.00 | 0.69 | 0.03 | 93 | 1017.0 |
| 20260902154406 | 21 | 57 | 4.8 | 12.9 | 0.00 | 0.69 | 0.03 | 93 | 1016.9 |
| 20260902154308 | 21 | 97 | 4.8 | 12.9 | 0.00 | 0.69 | 0.03 | 93 | 1016.9 |
| 20260902154207 | 21 | 52 | 4.8 | 12.9 | 0.00 | 0.69 | 0.03 | 93 | 1016.9 |
| 20260902154152 | 21 | 127 | 3.2 | 12.9 | 0.00 | 0.69 | 0.03 | 94 | 1016.9 |
| 20260902154148 | 21 | 96 | 3.2 | 12.9 | 0.00 | 0.69 | 0.03 | 94 | 1016.9 |
| 20260902154144 | 21 | 96 | 4.8 | 12.9 | 0.00 | 0.69 | 0.03 | 94 | 1016.8 |
| 20260902154138 | 21 | 89 | 3.2 | 12.9 | 0.00 | 0.69 | 0.03 | 93 | 1016.9 |
| 20260902154021 | 21 | 109 | 6.4 | 12.9 | 0.00 | 0.69 | 0.03 | 94 | 1017.0 |
| 20260902153718 | 21 | 96 | 3.2 | 12.9 | 0.00 | 0.69 | 0.03 | 94 | 1016.7 |
| 20260902153713 | 21 | 96 | 4.8 | 12.9 | 0.00 | 0.69 | 0.03 | 94 | 1016.8 |
| 20260902153520 | 21 | 83 | 3.2 | 8.0 | 0.00 | 0.69 | 0.03 | 94 | 1016.8 |
| 20260902153504 | 21 | 83 | 3.2 | 8.0 | 0.00 | 0.69 | 0.03 | 94 | 1016.7 |
| 20260902153403 | 21 | 65 | 3.2 | 9.7 | 0.00 | 0.69 | 0.03 | 94 | 1016.7 |
| 20260902153304 | 21 | 92 | 3.2 | 9.7 | 0.00 | 0.69 | 0.03 | 94 | 1016.7 |
| 20260902153203 | 21 | 84 | 4.8 | 9.7 | 0.00 | 0.69 | 0.03 | 94 | 1016.8 |
| 20260902153102 | 21 | 84 | 4.8 | 9.7 | 0.00 | 0.69 | 0.03 | 94 | 1016.8 |
| 20260902153021 | 21 | 85 | 6.4 | 9.7 | 0.00 | 0.69 | 0.03 | 94 | 1016.9 |
| 20260902153002 | 21 | 86 | 4.8 | 9.7 | 0.00 | 0.69 | 0.03 | 94 | 1016.8 |
| 20260902152907 | 21 | 111 | 4.8 | 9.7 | 0.00 | 0.69 | 0.03 | 94 | 1016.7 |
| 20260902152901 | 21 | 111 | 4.8 | 9.7 | 0.00 | 0.69 | 0.03 | 94 | 1016.7 |
| 20260902152800 | 21 | 111 | 4.8 | 9.7 | 0.00 | 0.69 | 0.03 | 94 | 1016.7 |
| 20260902152700 | 21 | 111 | 4.8 | 9.7 | 0.00 | 0.69 | 0.03 | 94 | 1016.7 |
| 20260902152600 | 21 | 69 | 3.2 | 9.7 | 0.00 | 0.69 | 0.03 | 94 | 1016.7 |
| 20260902152520 | 21 | 106 | 4.8 | 9.7 | 0.00 | 0.69 | 0.03 | 94 | 1016.9 |
| 20260902152459 | 21 | 106 | 3.2 | 9.7 | 0.00 | 0.69 | 0.03 | 94 | 1016.8 |
| 20260902152403 | 21 | 72 | 4.8 | 9.7 | 0.00 | 0.69 | 0.03 | 94 | 1016.8 |
| 20260902152358 | 21 | 72 | 4.8 | 9.7 | 0.00 | 0.69 | 0.03 | 94 | 1016.8 |
| 20260902152257 | 21 | 71 | 4.8 | 9.7 | 0.00 | 0.69 | 0.03 | 94 | 1016.8 |
| 20260902152157 | 21 | 80 | 3.2 | 11.3 | 0.00 | 0.69 | 0.03 | 94 | 1016.7 |
| 20260902152057 | 21 | 88 | 4.8 | 11.3 | 0.00 | 0.69 | 0.03 | 94 | 1016.7 |
| 20260902152021 | 21 | 34 | 3.2 | 11.3 | 0.00 | 0.69 | 0.03 | 94 | 1016.8 |
| 20260902151956 | 21 | 34 | 3.2 | 11.3 | 0.00 | 0.69 | 0.03 | 94 | 1016.7 |
| 20260902151903 | 21 | 72 | 3.2 | 11.3 | 0.00 | 0.69 | 0.03 | 94 | 1016.7 |
| 20260902151855 | 21 | 95 | 3.2 | 11.3 | 0.00 | 0.69 | 0.03 | 94 | 1016.7 |
| 20260902151755 | 21 | 115 | 4.8 | 11.3 | 0.00 | 0.69 | 0.03 | 94 | 1016.7 |
| 20260902151654 | 21 | 115 | 4.8 | 11.3 | 0.00 | 0.69 | 0.03 | 94 | 1016.8 |
| 20260902151607 | 21 | 96 | 4.8 | 11.3 | 0.00 | 0.69 | 0.03 | 94 | 1016.9 |
| 20260902151603 | 21 | 115 | 4.8 | 11.3 | 0.00 | 0.69 | 0.03 | 94 | 1016.9 |
| 20260902151550 | 21 | 96 | 4.8 | 11.3 | 0.00 | 0.69 | 0.03 | 94 | 1017.0 |
| 20260902151410 | 21 | 115 | 4.8 | 11.3 | 0.00 | 0.69 | 0.03 | 94 | 1016.8 |
| 20260902151406 | 21 | 98 | 4.8 | 11.3 | 0.00 | 0.69 | 0.03 | 94 | 1016.8 |
| 20260902151401 | 21 | 81 | 4.8 | 11.3 | 0.00 | 0.69 | 0.03 | 94 | 1016.8 |
| 20260902151230 | 21 | 70 | 4.8 | 9.7 | 0.00 | 0.69 | 0.03 | 94 | 1016.9 |
| 20260902151050 | 21 | 67 | 3.2 | 9.7 | 0.00 | 0.69 | 0.03 | 94 | 1016.9 |
| 20260902151021 | 21 | 71 | 4.8 | 9.7 | 0.00 | 0.69 | 0.03 | 95 | 1017.0 |
| 20260902151013 | 21 | 59 | 3.2 | 9.7 | 0.00 | 0.69 | 0.03 | 95 | 1016.9 |
| 20260902150849 | 21 | 59 | 3.2 | 9.7 | 0.00 | 0.69 | 0.03 | 95 | 1016.9 |
| 20260902150749 | 21 | 107 | 3.2 | 9.7 | 0.00 | 0.69 | 0.03 | 95 | 1016.9 |
| 20260902150700 | 21 | 104 | 3.2 | 9.7 | 0.00 | 0.69 | 0.03 | 95 | 1016.9 |
| 20260902150656 | 21 | 326 | 3.2 | 9.7 | 0.00 | 0.69 | 0.03 | 95 | 1016.9 |
| 20260902150521 | 21 | 90 | 3.2 | 11.3 | 0.00 | 0.69 | 0.03 | 95 | 1017.1 |
| 20260902150446 | 21 | 90 | 3.2 | 11.3 | 0.00 | 0.69 | 0.03 | 95 | 1017.0 |
| 20260902150403 | 21 | 90 | 3.2 | 11.3 | 0.00 | 0.69 | 0.03 | 95 | 1016.9 |
| 20260902150346 | 21 | 90 | 3.2 | 11.3 | 0.00 | 0.69 | 0.03 | 95 | 1016.9 |
| 20260902150247 | 21 | 83 | 3.2 | 11.3 | 0.00 | 0.69 | 0.03 | 95 | 1017.0 |
| 20260902150156 | 21 | 80 | 3.2 | 11.3 | 0.00 | 0.69 | 0.03 | 95 | 1017.0 |
| 20260902150152 | 21 | 83 | 3.2 | 11.3 | 0.00 | 0.69 | 0.03 | 95 | 1017.0 |
| 20260902150021 | 21 | 80 | 3.2 | 11.3 | 0.00 | 0.69 | 0.03 | 95 | 1017.1 |
| 20260902145959 | 21 | 80 | 3.2 | 11.3 | 0.00 | 0.69 | 0.03 | 95 | 1017.0 |
| 20260902145849 | 21 | 80 | 3.2 | 11.3 | 0.00 | 0.69 | 0.03 | 95 | 1017.0 |
| 20260902145840 | 21 | 76 | 3.2 | 11.3 | 0.00 | 0.69 | 0.03 | 95 | 1017.1 |
| 20260902145727 | 21 | 62 | 3.2 | 11.3 | 0.00 | 0.69 | 0.03 | 95 | 1017.0 |
| 20260902145520 | 21 | 92 | 4.8 | 9.7 | 0.00 | 0.69 | 0.03 | 95 | 1017.1 |
| 20260902145504 | 21 | 90 | 3.2 | 9.7 | 0.00 | 0.69 | 0.03 | 95 | 1017.0 |
| 20260902145455 | 21 | 88 | 3.2 | 9.7 | 0.00 | 0.69 | 0.03 | 95 | 1017.1 |
| 20260902145140 | 21 | 86 | 3.2 | 9.7 | 0.00 | 0.69 | 0.03 | 95 | 1017.1 |
| 20260902145107 | 21 | 78 | 3.2 | 9.7 | 0.00 | 0.69 | 0.03 | 95 | 1017.2 |
| 20260902145020 | 21 | 78 | 0.0 | 9.7 | 0.00 | 0.69 | 0.03 | 95 | 1017.2 |
| 20260902144954 | 21 | 77 | 3.2 | 9.7 | 0.00 | 0.69 | 0.03 | 95 | 1017.1 |
| 20260902144945 | 21 | 76 | 4.8 | 9.7 | 0.00 | 0.69 | 0.03 | 95 | 1017.2 |
| 20260902144738 | 21 | 77 | 3.2 | 9.7 | 0.00 | 0.69 | 0.03 | 96 | 1017.1 |
| 20260902144700 | 21 | 44 | 3.2 | 9.7 | 0.00 | 0.69 | 0.03 | 96 | 1017.0 |
| 20260902144546 | 21 | 105 | 3.2 | 9.7 | 0.00 | 0.69 | 0.03 | 96 | 1017.0 |
| 20260902144521 | 21 | 105 | 3.2 | 9.7 | 0.00 | 0.69 | 0.03 | 96 | 1017.1 |
| 20260902144400 | 21 | 108 | 4.8 | 9.7 | 0.00 | 0.69 | 0.03 | 96 | 1017.0 |
| 20260902144349 | 21 | 108 | 4.8 | 11.3 | 0.00 | 0.69 | 0.03 | 96 | 1017.0 |
| 20260902144345 | 21 | 108 | 4.8 | 11.3 | 0.00 | 0.69 | 0.03 | 96 | 1017.0 |
| 20260902144135 | 21 | 92 | 4.8 | 11.3 | 0.00 | 0.69 | 0.03 | 96 | 1017.0 |
| 20260902144034 | 21 | 92 | 4.8 | 11.3 | 0.00 | 0.69 | 0.03 | 96 | 1017.0 |
| 20260902144020 | 21 | 92 | 4.8 | 11.3 | 0.00 | 0.69 | 0.03 | 96 | 1017.1 |
| 20260902143934 | 21 | 77 | 4.8 | 11.3 | 0.00 | 0.69 | 0.03 | 96 | 1017.0 |
| 20260902143859 | 21 | 84 | 4.8 | 11.3 | 0.00 | 0.69 | 0.03 | 96 | 1017.0 |
| 20260902143833 | 21 | 83 | 4.8 | 11.3 | 0.00 | 0.69 | 0.03 | 96 | 1017.0 |
| 20260902143733 | 21 | 82 | 4.8 | 11.3 | 0.00 | 0.69 | 0.03 | 96 | 1017.0 |
| 20260902143632 | 21 | 85 | 4.8 | 11.3 | 0.00 | 0.69 | 0.03 | 96 | 1017.0 |
| 20260902143531 | 21 | 80 | 4.8 | 11.3 | 0.00 | 0.69 | 0.03 | 96 | 1017.0 |
| 20260902143520 | 21 | 83 | 6.4 | 11.3 | 0.00 | 0.69 | 0.03 | 96 | 1017.1 |
| 20260902143431 | 21 | 71 | 4.8 | 11.3 | 0.00 | 0.69 | 0.03 | 96 | 1017.0 |
| 20260902143359 | 21 | 104 | 3.2 | 11.3 | 0.00 | 0.69 | 0.03 | 96 | 1017.0 |
| 20260902143329 | 21 | 80 | 3.2 | 11.3 | 0.00 | 0.69 | 0.03 | 96 | 1017.0 |
| 20260902143242 | 21 | 14 | 3.2 | 9.7 | 0.00 | 0.69 | 0.03 | 96 | 1017.0 |
| 20260902143238 | 21 | 77 | 3.2 | 9.7 | 0.00 | 0.69 | 0.03 | 96 | 1017.0 |
| 20260902143028 | 21 | 13 | 1.6 | 9.7 | 0.00 | 0.69 | 0.03 | 96 | 1017.1 |
| 20260902143020 | 21 | 117 | 4.8 | 9.7 | 0.00 | 0.69 | 0.03 | 96 | 1017.2 |
| 20260902142928 | 21 | 60 | 1.6 | 9.7 | 0.00 | 0.69 | 0.03 | 96 | 1017.1 |
| 20260902142859 | 21 | 71 | 1.6 | 8.0 | 0.00 | 0.69 | 0.03 | 96 | 1017.1 |
| 20260902142828 | 21 | 76 | 1.6 | 8.0 | 0.00 | 0.69 | 0.03 | 96 | 1017.1 |
| 20260902142726 | 21 | 100 | 1.6 | 6.4 | 0.00 | 0.69 | 0.03 | 96 | 1017.2 |
| 20260902142633 | 21 | 78 | 1.6 | 6.4 | 0.00 | 0.69 | 0.03 | 97 | 1017.1 |
| 20260902142629 | 21 | 49 | 1.6 | 6.4 | 0.00 | 0.69 | 0.03 | 96 | 1017.1 |
| 20260902142625 | 21 | 98 | 1.6 | 6.4 | 0.00 | 0.69 | 0.03 | 96 | 1017.2 |
| 20260902142616 | 21 | 49 | 1.6 | 6.4 | 0.00 | 0.69 | 0.03 | 96 | 1017.2 |
| 20260902142521 | 21 | 49 | 0.0 | 6.4 | 0.00 | 0.69 | 0.03 | 96 | 1017.2 |
| 20260902142337 | 21 | 95 | 1.6 | 6.4 | 0.00 | 0.69 | 0.03 | 97 | 1017.1 |
| 20260902142333 | 21 | 71 | 1.6 | 6.4 | 0.00 | 0.69 | 0.03 | 97 | 1017.1 |
| 20260902142123 | 21 | 95 | 1.6 | 12.9 | 0.00 | 0.69 | 0.03 | 97 | 1017.0 |
| 20260902142035 | 21 | 95 | 0.0 | 12.9 | 0.00 | 0.69 | 0.03 | 97 | 1017.1 |
| 20260902142022 | 21 | 95 | 1.6 | 12.9 | 0.00 | 0.69 | 0.03 | 97 | 1017.1 |
| 20260902141922 | 21 | 85 | 1.6 | 12.9 | 0.00 | 0.69 | 0.03 | 97 | 1017.0 |
| 20260902141859 | 21 | 77 | 1.6 | 12.9 | 0.00 | 0.69 | 0.03 | 97 | 1016.9 |
| 20260902141821 | 21 | 83 | 1.6 | 12.9 | 0.00 | 0.69 | 0.03 | 97 | 1016.9 |
| 20260902141810 | 21 | 83 | 1.6 | 12.9 | 0.00 | 0.69 | 0.03 | 97 | 1016.9 |
| 20260902141658 | 20 | 87 | 1.6 | 12.9 | 0.00 | 0.69 | 0.03 | 97 | 1016.7 |
| 20260902141654 | 20 | 87 | 1.6 | 12.9 | 0.00 | 0.69 | 0.03 | 97 | 1016.7 |
| 20260902141648 | 20 | 83 | 1.6 | 12.9 | 0.00 | 0.69 | 0.03 | 97 | 1016.9 |
| 20260902141639 | 20 | 87 | 1.6 | 12.9 | 0.00 | 0.69 | 0.03 | 97 | 1016.9 |
| 20260902141550 | 21 | 87 | 0.0 | 12.9 | 0.00 | 0.69 | 0.03 | 97 | 1016.9 |
| 20260902141215 | 20 | 60 | 3.2 | 12.9 | 0.00 | 0.69 | 0.03 | 97 | 1016.7 |
| 20260902141113 | 20 | 65 | 1.6 | 11.3 | 0.00 | 0.69 | 0.03 | 97 | 1016.7 |
| 20260902141036 | 20 | 142 | 0.0 | 11.3 | 0.00 | 0.69 | 0.03 | 97 | 1016.9 |
| 20260902141013 | 20 | 142 | 1.6 | 11.3 | 0.00 | 0.69 | 0.03 | 97 | 1016.7 |
| 20260902140913 | 20 | 142 | 1.6 | 11.3 | 0.00 | 0.69 | 0.03 | 97 | 1016.8 |
| 20260902140900 | 20 | 145 | 1.6 | 11.3 | 0.00 | 0.69 | 0.03 | 97 | 1016.9 |
| 20260902140812 | 20 | 123 | 1.6 | 11.3 | 0.00 | 0.69 | 0.03 | 97 | 1016.9 |
| 20260902140711 | 20 | 112 | 1.6 | 11.3 | 0.00 | 0.69 | 0.03 | 97 | 1016.7 |
| 20260902140620 | 20 | 67 | 1.6 | 11.3 | 0.00 | 0.69 | 0.03 | 97 | 1016.8 |
| 20260902140611 | 20 | 112 | 1.6 | 11.3 | 0.00 | 0.69 | 0.03 | 97 | 1016.8 |
| 20260902140520 | 20 | 82 | 3.2 | 11.3 | 0.00 | 0.69 | 0.03 | 97 | 1016.8 |
| 20260902140517 | 20 | 86 | 1.6 | 11.3 | 0.00 | 0.69 | 0.03 | 97 | 1016.7 |
| 20260902140508 | 20 | 67 | 1.6 | 11.3 | 0.00 | 0.69 | 0.03 | 97 | 1016.7 |
| 20260902140309 | 20 | 93 | 1.6 | 11.3 | 0.00 | 0.69 | 0.03 | 97 | 1016.8 |
| 20260902140209 | 20 | 90 | 1.6 | 11.3 | 0.00 | 0.69 | 0.03 | 97 | 1016.8 |
| 20260902140108 | 20 | 92 | 1.6 | 6.4 | 0.00 | 0.69 | 0.03 | 97 | 1016.8 |
| 20260902140021 | 20 | 94 | 3.2 | 6.4 | 0.00 | 0.69 | 0.03 | 97 | 1017.0 |
| 20260902140009 | 20 | 94 | 1.6 | 6.4 | 0.00 | 0.69 | 0.03 | 97 | 1016.8 |
| 20260902135908 | 20 | 63 | 1.6 | 9.7 | 0.00 | 0.69 | 0.03 | 97 | 1016.9 |
| 20260902135859 | 20 | 78 | 1.6 | 9.7 | 0.00 | 0.69 | 0.03 | 97 | 1016.9 |
| 20260902135822 | 20 | 104 | 1.6 | 9.7 | 0.00 | 0.69 | 0.03 | 97 | 1016.9 |
| 20260902135818 | 20 | 80 | 1.6 | 9.7 | 0.00 | 0.69 | 0.03 | 97 | 1016.9 |
| 20260902135607 | 20 | 104 | 1.6 | 9.7 | 0.00 | 0.69 | 0.03 | 97 | 1016.8 |
| 20260902135520 | 20 | 82 | 0.0 | 9.7 | 0.00 | 0.69 | 0.03 | 97 | 1016.8 |
| 20260902135506 | 20 | 82 | 1.6 | 9.7 | 0.00 | 0.69 | 0.03 | 97 | 1016.8 |
| 20260902135406 | 20 | 106 | 1.6 | 9.7 | 0.00 | 0.69 | 0.03 | 97 | 1016.8 |
| 20260902135357 | 20 | 91 | 1.6 | 9.7 | 0.00 | 0.69 | 0.03 | 97 | 1016.8 |
| 20260902135307 | 20 | 86 | 1.6 | 9.7 | 0.00 | 0.69 | 0.03 | 97 | 1016.8 |
| 20260902135205 | 20 | 103 | 1.6 | 9.7 | 0.00 | 0.69 | 0.03 | 97 | 1016.9 |
| 20260902135104 | 20 | 98 | 1.6 | 9.7 | 0.00 | 0.69 | 0.03 | 97 | 1016.8 |
| 20260902135020 | 20 | 79 | 3.2 | 9.7 | 0.00 | 0.69 | 0.03 | 97 | 1016.9 |
| 20260902135005 | 20 | 91 | 1.6 | 9.7 | 0.00 | 0.69 | 0.03 | 97 | 1016.8 |
| 20260902134950 | 20 | 109 | 1.6 | 9.7 | 0.00 | 0.69 | 0.03 | 97 | 1016.8 |
| 20260902134945 | 20 | 89 | 1.6 | 9.7 | 0.00 | 0.69 | 0.03 | 97 | 1016.8 |
| 20260902134938 | 20 | 107 | 1.6 | 9.7 | 0.00 | 0.69 | 0.03 | 97 | 1016.8 |
| 20260902134827 | 20 | 112 | 1.6 | 6.4 | 0.00 | 0.69 | 0.03 | 97 | 1016.9 |
| 20260902134821 | 20 | 112 | 1.6 | 9.7 | 0.00 | 0.69 | 0.03 | 97 | 1016.8 |
| 20260902134521 | 20 | 93 | 0.0 | 6.4 | 0.00 | 0.69 | 0.03 | 97 | 1017.0 |
| 20260902134510 | 20 | 93 | 1.6 | 9.7 | 0.00 | 0.69 | 0.03 | 97 | 1016.9 |
| 20260902134500 | 20 | 116 | 1.6 | 9.7 | 0.00 | 0.69 | 0.03 | 97 | 1016.9 |
| 20260902134301 | 20 | 71 | 1.6 | 6.4 | 0.00 | 0.69 | 0.03 | 97 | 1016.9 |
| 20260902134201 | 20 | 105 | 1.6 | 6.4 | 0.00 | 0.69 | 0.03 | 97 | 1016.9 |
| 20260902134100 | 20 | 87 | 0.0 | 6.4 | 0.00 | 0.69 | 0.03 | 97 | 1017.0 |
| 20260902134050 | 20 | 127 | 4.8 | 6.4 | 0.00 | 0.69 | 0.03 | 97 | 1017.1 |
| 20260902134000 | 20 | 107 | 0.0 | 6.4 | 0.00 | 0.69 | 0.03 | 97 | 1017.0 |
| 20260902133901 | 20 | 79 | 1.6 | 6.4 | 0.00 | 0.69 | 0.03 | 97 | 1017.0 |
| 20260902133855 | 20 | 78 | 1.6 | 6.4 | 0.00 | 0.69 | 0.03 | 97 | 1017.0 |
| 20260902133759 | 20 | 78 | 1.6 | 6.4 | 0.00 | 0.69 | 0.03 | 97 | 1017.0 |
| 20260902133658 | 20 | 76 | 1.6 | 6.4 | 0.00 | 0.69 | 0.03 | 97 | 1017.0 |
| 20260902133558 | 20 | 70 | 1.6 | 6.4 | 0.00 | 0.69 | 0.03 | 97 | 1017.0 |
| 20260902133535 | 20 | 69 | 0.0 | 6.4 | 0.00 | 0.69 | 0.03 | 97 | 1017.1 |
| 20260902133457 | 20 | 69 | 1.6 | 6.4 | 0.00 | 0.69 | 0.03 | 97 | 1017.0 |
| 20260902133359 | 20 | 92 | 1.6 | 6.4 | 0.00 | 0.69 | 0.03 | 97 | 1016.9 |
| 20260902133352 | 20 | 93 | 1.6 | 6.4 | 0.00 | 0.69 | 0.03 | 97 | 1016.9 |
| 20260902133256 | 20 | 63 | 0.0 | 6.4 | 0.00 | 0.69 | 0.03 | 97 | 1016.9 |
| 20260902133156 | 20 | 61 | 0.0 | 6.4 | 0.00 | 0.69 | 0.03 | 97 | 1016.8 |
| 20260902133055 | 20 | 60 | 0.0 | 6.4 | 0.00 | 0.69 | 0.03 | 97 | 1016.8 |
| 20260902133021 | 20 | 67 | 0.0 | 4.8 | 0.00 | 0.69 | 0.03 | 97 | 1016.9 |
| 20260902132955 | 20 | 67 | 0.0 | 4.8 | 0.00 | 0.69 | 0.03 | 97 | 1016.8 |
| 20260902132850 | 20 | 77 | 0.0 | 4.8 | 0.00 | 0.69 | 0.03 | 97 | 1016.8 |
| 20260902132816 | 20 | 77 | 0.0 | 4.8 | 0.00 | 0.69 | 0.03 | 97 | 1016.8 |
| 20260902132702 | 20 | 77 | 0.0 | 4.8 | 0.00 | 0.69 | 0.03 | 97 | 1016.7 |
| 20260902132520 | 20 | 79 | 0.0 | 3.2 | 0.00 | 0.69 | 0.03 | 97 | 1016.9 |
| 20260902132453 | 20 | 79 | 0.0 | 3.2 | 0.00 | 0.69 | 0.03 | 97 | 1016.8 |
| 20260902132354 | 20 | 79 | 0.0 | 4.8 | 0.00 | 0.69 | 0.03 | 97 | 1016.7 |
| 20260902132252 | 20 | 57 | 1.6 | 4.8 | 0.00 | 0.69 | 0.03 | 97 | 1016.7 |
| 20260902132151 | 20 | 64 | 1.6 | 4.8 | 0.00 | 0.69 | 0.03 | 97 | 1016.7 |
| 20260902132051 | 20 | 74 | 1.6 | 4.8 | 0.00 | 0.69 | 0.03 | 97 | 1016.7 |
| 20260902132020 | 20 | 74 | 0.0 | 4.8 | 0.00 | 0.69 | 0.03 | 97 | 1016.8 |
| 20260902131951 | 20 | 74 | 1.6 | 4.8 | 0.00 | 0.69 | 0.03 | 97 | 1016.7 |
| 20260902131852 | 20 | 74 | 1.6 | 4.8 | 0.00 | 0.69 | 0.03 | 97 | 1016.7 |
| 20260902131804 | 20 | 72 | 1.6 | 4.8 | 0.00 | 0.69 | 0.03 | 97 | 1016.6 |
| 20260902131759 | 20 | 74 | 1.6 | 4.8 | 0.00 | 0.69 | 0.03 | 97 | 1016.7 |
| 20260902131548 | 20 | 72 | 1.6 | 4.8 | 0.00 | 0.69 | 0.03 | 97 | 1016.7 |
| 20260902131521 | 20 | 72 | 1.6 | 4.8 | 0.00 | 0.69 | 0.03 | 97 | 1016.7 |
| 20260902131448 | 20 | 71 | 1.6 | 4.8 | 0.00 | 0.69 | 0.03 | 97 | 1016.6 |
| 20260902131407 | 20 | 107 | 1.6 | 6.4 | 0.00 | 0.69 | 0.03 | 97 | 1016.6 |
| 20260902131401 | 20 | 60 | 1.6 | 4.8 | 0.00 | 0.69 | 0.03 | 97 | 1016.6 |
| 20260902131356 | 20 | 53 | 1.6 | 4.8 | 0.00 | 0.69 | 0.03 | 97 | 1016.6 |
| 20260902131206 | 20 | 94 | 1.6 | 6.4 | 0.00 | 0.69 | 0.03 | 97 | 1016.4 |
| 20260902131147 | 20 | 101 | 1.6 | 6.4 | 0.00 | 0.69 | 0.03 | 97 | 1016.5 |
| 20260902131114 | 20 | 94 | 1.6 | 6.4 | 0.00 | 0.69 | 0.03 | 97 | 1016.4 |
| 20260902131109 | 20 | 104 | 1.6 | 6.4 | 0.00 | 0.69 | 0.03 | 97 | 1016.5 |
| 20260902131100 | 20 | 107 | 1.6 | 6.4 | 0.00 | 0.69 | 0.03 | 97 | 1016.4 |
| 20260902131020 | 20 | 103 | 1.6 | 6.4 | 0.00 | 0.69 | 0.03 | 97 | 1016.5 |
| 20260902130758 | 20 | 110 | 1.6 | 6.4 | 0.00 | 0.69 | 0.03 | 97 | 1016.4 |
| 20260902130753 | 20 | 92 | 1.6 | 6.4 | 0.00 | 0.69 | 0.03 | 97 | 1016.4 |
| 20260902130544 | 20 | 109 | 1.6 | 6.4 | 0.00 | 0.69 | 0.03 | 97 | 1016.4 |
| 20260902130521 | 20 | 109 | 1.6 | 6.4 | 0.00 | 0.69 | 0.03 | 97 | 1016.6 |
| 20260902130443 | 20 | 109 | 1.6 | 6.4 | 0.00 | 0.69 | 0.03 | 97 | 1016.5 |
| 20260902130341 | 20 | 97 | 1.6 | 6.4 | 0.00 | 0.69 | 0.03 | 97 | 1016.5 |
| 20260902130241 | 20 | 69 | 1.6 | 4.8 | 0.00 | 0.69 | 0.03 | 97 | 1016.5 |
| 20260902130141 | 20 | 57 | 1.6 | 4.8 | 0.00 | 0.69 | 0.03 | 97 | 1016.5 |
| 20260902130040 | 20 | 57 | 0.0 | 4.8 | 0.00 | 0.69 | 0.03 | 97 | 1016.5 |
| 20260902130021 | 20 | 100 | 0.0 | 4.8 | 0.00 | 0.69 | 0.03 | 97 | 1016.6 |
| 20260902125958 | 20 | 73 | 0.0 | 4.8 | 0.00 | 0.69 | 0.03 | 97 | 1016.5 |
| 20260902125953 | 20 | 100 | 0.0 | 4.8 | 0.00 | 0.69 | 0.03 | 97 | 1016.5 |
| 20260902125945 | 20 | 98 | 0.0 | 4.8 | 0.00 | 0.69 | 0.03 | 97 | 1016.5 |
| 20260902125738 | 20 | 84 | 0.0 | 4.8 | 0.00 | 0.69 | 0.03 | 97 | 1016.5 |
| 20260902125636 | 20 | 88 | 0.0 | 3.2 | 0.00 | 0.69 | 0.03 | 97 | 1016.5 |
| 20260902125536 | 20 | 68 | 0.0 | 3.2 | 0.00 | 0.69 | 0.03 | 97 | 1016.5 |
| 20260902125520 | 20 | 62 | 1.6 | 6.4 | 0.00 | 0.69 | 0.03 | 97 | 1016.6 |
| 20260902125450 | 20 | 78 | 0.0 | 6.4 | 0.00 | 0.69 | 0.03 | 97 | 1016.5 |
| 20260902125442 | 20 | 78 | 0.0 | 6.4 | 0.00 | 0.69 | 0.03 | 97 | 1016.5 |
| 20260902125235 | 20 | 78 | 0.0 | 6.4 | 0.00 | 0.69 | 0.03 | 97 | 1016.5 |
| 20260902125135 | 20 | 78 | 0.0 | 6.4 | 0.00 | 0.69 | 0.03 | 97 | 1016.5 |
| 20260902125108 | 20 | 65 | 1.6 | 8.0 | 0.00 | 0.69 | 0.03 | 97 | 1016.6 |
| 20260902125033 | 20 | 78 | 0.0 | 6.4 | 0.00 | 0.69 | 0.03 | 97 | 1016.6 |
| 20260902125021 | 20 | 78 | 0.0 | 6.4 | 0.00 | 0.69 | 0.03 | 97 | 1016.6 |
| 20260902124953 | 20 | 78 | 1.6 | 6.4 | 0.00 | 0.69 | 0.03 | 97 | 1016.5 |
| 20260902124833 | 20 | 65 | 1.6 | 8.0 | 0.00 | 0.69 | 0.03 | 97 | 1016.6 |
| 20260902124732 | 20 | 96 | 1.6 | 8.0 | 0.00 | 0.69 | 0.03 | 97 | 1016.6 |
| 20260902124631 | 20 | 96 | 1.6 | 8.0 | 0.00 | 0.69 | 0.03 | 97 | 1016.5 |
| 20260902124531 | 20 | 90 | 1.6 | 8.0 | 0.00 | 0.69 | 0.03 | 97 | 1016.5 |
| 20260902124520 | 20 | 85 | 3.2 | 11.3 | 0.00 | 0.69 | 0.03 | 97 | 1016.6 |
| 20260902124430 | 20 | 71 | 1.6 | 11.3 | 0.00 | 0.69 | 0.03 | 97 | 1016.5 |
| 20260902124343 | 20 | 91 | 1.6 | 11.3 | 0.00 | 0.69 | 0.03 | 97 | 1016.5 |
| 20260902124331 | 20 | 89 | 1.6 | 11.3 | 0.00 | 0.69 | 0.03 | 97 | 1016.5 |
| 20260902124230 | 20 | 71 | 1.6 | 11.3 | 0.00 | 0.69 | 0.03 | 97 | 1016.5 |
| 20260902124129 | 20 | 71 | 3.2 | 11.3 | 0.00 | 0.69 | 0.03 | 97 | 1016.6 |
| 20260902124044 | 20 | 82 | 3.2 | 11.3 | 0.00 | 0.69 | 0.03 | 97 | 1016.6 |
| 20260902124039 | 20 | 88 | 3.2 | 11.3 | 0.00 | 0.69 | 0.03 | 97 | 1016.6 |
| 20260902124036 | 20 | 89 | 1.6 | 11.3 | 0.00 | 0.69 | 0.03 | 97 | 1016.7 |
| 20260902123857 | 20 | 86 | 3.2 | 11.3 | 0.00 | 0.69 | 0.03 | 97 | 1016.5 |
| 20260902123850 | 20 | 90 | 3.2 | 11.3 | 0.00 | 0.69 | 0.03 | 97 | 1016.5 |
| 20260902123737 | 20 | 85 | 1.6 | 11.3 | 0.00 | 0.69 | 0.03 | 97 | 1016.6 |
| 20260902123527 | 20 | 104 | 1.6 | 11.3 | 0.00 | 0.69 | 0.03 | 97 | 1016.6 |
| 20260902123520 | 20 | 68 | 1.6 | 9.7 | 0.00 | 0.69 | 0.03 | 97 | 1016.6 |
| 20260902123427 | 20 | 89 | 1.6 | 9.7 | 0.00 | 0.69 | 0.03 | 97 | 1016.5 |
| 20260902123342 | 20 | 105 | 1.6 | 9.7 | 0.00 | 0.69 | 0.03 | 97 | 1016.5 |
| 20260902123327 | 20 | 115 | 1.6 | 9.7 | 0.00 | 0.69 | 0.03 | 97 | 1016.5 |
| 20260902123226 | 20 | 98 | 1.6 | 9.7 | 0.00 | 0.69 | 0.03 | 97 | 1016.5 |
| 20260902123126 | 20 | 100 | 1.6 | 9.7 | 0.00 | 0.69 | 0.03 | 97 | 1016.4 |
| 20260902123026 | 20 | 61 | 0.0 | 6.4 | 0.00 | 0.69 | 0.03 | 97 | 1016.4 |
| 20260902123021 | 20 | 72 | 4.8 | 4.8 | 0.00 | 0.69 | 0.03 | 97 | 1016.6 |
| 20260902122925 | 20 | 108 | 0.0 | 3.2 | 0.00 | 0.69 | 0.03 | 97 | 1016.5 |
| 20260902122841 | 20 | 108 | 0.0 | 3.2 | 0.00 | 0.69 | 0.03 | 97 | 1016.5 |
| 20260902122823 | 20 | 108 | 0.0 | 4.8 | 0.00 | 0.69 | 0.03 | 97 | 1016.5 |
| 20260902122723 | 20 | 108 | 1.6 | 6.4 | 0.00 | 0.69 | 0.03 | 97 | 1016.4 |
| 20260902122622 | 20 | 107 | 1.6 | 6.4 | 0.00 | 0.69 | 0.03 | 97 | 1016.5 |
| 20260902122522 | 20 | 79 | 1.6 | 6.4 | 0.00 | 0.69 | 0.03 | 97 | 1016.5 |
| 20260902122440 | 20 | 79 | 1.6 | 6.4 | 0.00 | 0.69 | 0.03 | 97 | 1016.6 |
| 20260902122435 | 20 | 79 | 1.6 | 6.4 | 0.00 | 0.69 | 0.03 | 97 | 1016.6 |
| 20260902122427 | 20 | 79 | 1.6 | 6.4 | 0.00 | 0.69 | 0.03 | 97 | 1016.6 |
| 20260902122220 | 20 | 78 | 1.6 | 6.4 | 0.00 | 0.69 | 0.03 | 97 | 1016.5 |
| 20260902122119 | 20 | 80 | 1.6 | 6.4 | 0.00 | 0.69 | 0.03 | 97 | 1016.6 |
| 20260902122021 | 20 | 86 | 1.6 | 6.4 | 0.00 | 0.69 | 0.03 | 97 | 1016.7 |
| 20260902122019 | 20 | 86 | 1.6 | 6.4 | 0.00 | 0.69 | 0.03 | 97 | 1016.6 |
| 20260902121919 | 20 | 71 | 0.0 | 6.4 | 0.00 | 0.69 | 0.03 | 97 | 1016.6 |
| 20260902121838 | 20 | 66 | 1.6 | 6.4 | 0.00 | 0.69 | 0.03 | 97 | 1016.7 |
| 20260902121818 | 20 | 49 | 1.6 | 6.4 | 0.00 | 0.69 | 0.03 | 97 | 1016.7 |
| 20260902121718 | 20 | 63 | 1.6 | 6.4 | 0.00 | 0.69 | 0.03 | 97 | 1016.6 |
| 20260902121616 | 20 | 119 | 0.0 | 6.4 | 0.00 | 0.69 | 0.03 | 97 | 1016.6 |
| 20260902121520 | 20 | 107 | 0.0 | 4.8 | 0.00 | 0.69 | 0.03 | 97 | 1016.7 |
| 20260902121517 | 20 | 107 | 0.0 | 4.8 | 0.00 | 0.69 | 0.03 | 97 | 1016.6 |
| 20260902121417 | 20 | 107 | 0.0 | 4.8 | 0.00 | 0.69 | 0.03 | 97 | 1016.6 |
| 20260902121339 | 20 | 94 | 0.0 | 4.8 | 0.00 | 0.69 | 0.03 | 97 | 1016.5 |
| 20260902121329 | 20 | 55 | 0.0 | 4.8 | 0.00 | 0.69 | 0.03 | 97 | 1016.5 |
| 20260902121324 | 20 | 89 | 0.0 | 4.8 | 0.00 | 0.69 | 0.03 | 97 | 1016.5 |
| 20260902121114 | 20 | 55 | 0.0 | 4.8 | 0.00 | 0.69 | 0.03 | 97 | 1016.5 |
| 20260902121020 | 20 | 55 | 0.0 | 4.8 | 0.00 | 0.69 | 0.03 | 97 | 1016.5 |
| 20260902121015 | 20 | 55 | 1.6 | 4.8 | 0.00 | 0.69 | 0.03 | 97 | 1016.5 |
| 20260902120913 | 20 | 55 | 1.6 | 6.4 | 0.00 | 0.69 | 0.03 | 97 | 1016.4 |
| 20260902120837 | 20 | 61 | 1.6 | 6.4 | 0.00 | 0.69 | 0.03 | 97 | 1016.4 |
| 20260902120827 | 20 | 67 | 1.6 | 6.4 | 0.00 | 0.69 | 0.03 | 97 | 1016.4 |
| 20260902120822 | 20 | 86 | 1.6 | 6.4 | 0.00 | 0.69 | 0.03 | 97 | 1016.4 |
| 20260902120610 | 20 | 81 | 1.6 | 6.4 | 0.00 | 0.69 | 0.03 | 97 | 1016.4 |
| 20260902120523 | 20 | 81 | 1.6 | 6.4 | 0.00 | 0.69 | 0.03 | 97 | 1016.3 |
| 20260902120521 | 20 | 81 | 0.0 | 6.4 | 0.00 | 0.69 | 0.03 | 97 | 1016.4 |
| 20260902120518 | 20 | 81 | 1.6 | 6.4 | 0.00 | 0.69 | 0.03 | 97 | 1016.4 |
| 20260902120308 | 20 | 81 | 1.6 | 6.4 | 0.00 | 0.69 | 0.03 | 97 | 1016.3 |
| 20260902120221 | 20 | 68 | 1.6 | 6.4 | 0.00 | 0.69 | 0.03 | 97 | 1016.3 |
| 20260902120216 | 20 | 62 | 1.6 | 6.4 | 0.00 | 0.69 | 0.03 | 97 | 1016.3 |
| 20260902120021 | 20 | 110 | 3.2 | 6.4 | 0.00 | 0.69 | 0.03 | 97 | 1016.4 |
| 20260902120006 | 20 | 87 | 1.6 | 6.4 | 0.00 | 0.69 | 0.03 | 97 | 1016.3 |
| 20260902115905 | 20 | 67 | 1.6 | 6.4 | 0.00 | 0.69 | 0.03 | 97 | 1016.2 |
| 20260902115836 | 20 | 69 | 1.6 | 6.4 | 0.00 | 0.69 | 0.03 | 97 | 1016.2 |
| 20260902115813 | 20 | 57 | 1.6 | 6.4 | 0.00 | 0.69 | 0.03 | 97 | 1016.2 |
| 20260902115804 | 20 | 93 | 1.6 | 12.9 | 0.00 | 0.69 | 0.03 | 97 | 1016.2 |
| 20260902115651 | 20 | 88 | 1.6 | 12.9 | 0.00 | 0.69 | 0.03 | 97 | 1016.2 |
| 20260902115540 | 20 | 61 | 1.6 | 12.9 | 0.00 | 0.69 | 0.03 | 97 | 1016.3 |
| 20260902115533 | 20 | 88 | 1.6 | 12.9 | 0.00 | 0.69 | 0.03 | 97 | 1016.3 |
| 20260902115524 | 20 | 88 | 1.6 | 12.9 | 0.00 | 0.69 | 0.03 | 97 | 1016.2 |
| 20260902115521 | 20 | 88 | 1.6 | 12.9 | 0.00 | 0.69 | 0.03 | 97 | 1016.4 |
| 20260902115058 | 20 | 89 | 1.6 | 12.9 | 0.00 | 0.69 | 0.03 | 97 | 1016.3 |
| 20260902115021 | 20 | 78 | 0.0 | 12.9 | 0.00 | 0.69 | 0.03 | 97 | 1016.5 |
| 20260902114958 | 20 | 78 | 1.6 | 12.9 | 0.00 | 0.69 | 0.03 | 97 | 1016.4 |
| 20260902114858 | 20 | 72 | 1.6 | 12.9 | 0.00 | 0.69 | 0.03 | 97 | 1016.3 |
| 20260902114837 | 20 | 55 | 1.6 | 12.9 | 0.00 | 0.69 | 0.03 | 97 | 1016.3 |
| 20260902114811 | 20 | 99 | 0.0 | 6.4 | 0.00 | 0.69 | 0.03 | 97 | 1016.3 |
| 20260902114806 | 20 | 92 | 1.6 | 12.9 | 0.00 | 0.69 | 0.03 | 97 | 1016.3 |
| 20260902114556 | 20 | 88 | 0.0 | 6.4 | 0.00 | 0.69 | 0.03 | 97 | 1016.3 |
| 20260902114520 | 20 | 92 | 0.0 | 6.4 | 0.00 | 0.69 | 0.03 | 97 | 1016.4 |
| 20260902114456 | 20 | 92 | 0.0 | 6.4 | 0.00 | 0.69 | 0.03 | 97 | 1016.3 |
| 20260902114353 | 20 | 93 | 0.0 | 6.4 | 0.00 | 0.69 | 0.03 | 97 | 1016.3 |
| 20260902114334 | 20 | 84 | 0.0 | 6.4 | 0.00 | 0.69 | 0.03 | 97 | 1016.3 |
| 20260902114308 | 20 | 85 | 1.6 | 6.4 | 0.00 | 0.69 | 0.03 | 97 | 1016.3 |
| 20260902114303 | 20 | 85 | 1.6 | 4.8 | 0.00 | 0.69 | 0.03 | 97 | 1016.3 |
| 20260902114116 | 20 | 85 | 1.6 | 6.4 | 0.00 | 0.69 | 0.03 | 97 | 1016.3 |
| 20260902114020 | 20 | 85 | 0.0 | 6.4 | 0.00 | 0.69 | 0.03 | 97 | 1016.4 |
| 20260902114003 | 20 | 85 | 1.6 | 6.4 | 0.00 | 0.69 | 0.03 | 97 | 1016.3 |
| 20260902113833 | 20 | 81 | 1.6 | 6.4 | 0.00 | 0.69 | 0.03 | 97 | 1016.3 |
| 20260902113807 | 20 | 68 | 1.6 | 6.4 | 0.00 | 0.69 | 0.03 | 97 | 1016.3 |
| 20260902113801 | 20 | 82 | 1.6 | 6.4 | 0.00 | 0.69 | 0.03 | 97 | 1016.3 |
| 20260902113552 | 20 | 68 | 1.6 | 6.4 | 0.00 | 0.69 | 0.03 | 97 | 1016.3 |
| 20260902113521 | 20 | 68 | 0.0 | 6.4 | 0.00 | 0.69 | 0.03 | 97 | 1016.4 |
| 20260902113452 | 20 | 68 | 1.6 | 6.4 | 0.00 | 0.69 | 0.03 | 97 | 1016.3 |
| 20260902113351 | 20 | 62 | 1.6 | 6.4 | 0.00 | 0.69 | 0.03 | 97 | 1016.4 |
| 20260902113332 | 20 | 57 | 1.6 | 6.4 | 0.00 | 0.69 | 0.03 | 97 | 1016.4 |
| 20260902113306 | 20 | 101 | 0.0 | 6.4 | 0.00 | 0.69 | 0.03 | 97 | 1016.3 |
| 20260902113300 | 20 | 57 | 1.6 | 6.4 | 0.00 | 0.69 | 0.03 | 97 | 1016.3 |
| 20260902113050 | 20 | 70 | 0.0 | 6.4 | 0.00 | 0.69 | 0.03 | 97 | 1016.3 |
| 20260902113020 | 20 | 66 | 4.8 | 6.4 | 0.00 | 0.69 | 0.03 | 97 | 1016.4 |
| 20260902112950 | 20 | 61 | 0.0 | 6.4 | 0.00 | 0.69 | 0.03 | 97 | 1016.3 |
| 20260902112849 | 20 | 45 | 0.0 | 4.8 | 0.00 | 0.69 | 0.03 | 97 | 1016.3 |
| 20260902112830 | 20 | 44 | 0.0 | 4.8 | 0.00 | 0.69 | 0.03 | 97 | 1016.3 |
| 20260902112749 | 20 | 44 | 0.0 | 4.8 | 0.00 | 0.69 | 0.03 | 97 | 1016.3 |
| 20260902112648 | 20 | 49 | 0.0 | 4.8 | 0.00 | 0.69 | 0.03 | 97 | 1016.2 |
| 20260902112601 | 20 | 92 | 0.0 | 4.8 | 0.00 | 0.69 | 0.03 | 97 | 1016.2 |
| 20260902112556 | 20 | 77 | 0.0 | 4.8 | 0.00 | 0.69 | 0.03 | 97 | 1016.2 |
| 20260902112521 | 20 | 82 | 1.6 | 4.8 | 0.00 | 0.69 | 0.03 | 97 | 1016.3 |
| 20260902112330 | 20 | 109 | 0.0 | 4.8 | 0.00 | 0.69 | 0.03 | 97 | 1016.2 |
| 20260902112246 | 20 | 65 | 0.0 | 4.8 | 0.00 | 0.69 | 0.03 | 97 | 1016.2 |
| 20260902112159 | 20 | 65 | 0.0 | 0.0 | 0.00 | 0.69 | 0.03 | 97 | 1016.2 |
| 20260902112154 | 20 | 69 | 0.0 | 0.0 | 0.00 | 0.69 | 0.03 | 97 | 1016.2 |
| 20260902112020 | 20 | 65 | 0.0 | 0.0 | 0.00 | 0.69 | 0.03 | 97 | 1016.4 |
| 20260902112013 | 20 | 63 | 0.0 | 0.0 | 0.00 | 0.69 | 0.03 | 97 | 1016.2 |
| 20260902112008 | 20 | 65 | 0.0 | 0.0 | 0.00 | 0.69 | 0.03 | 97 | 1016.2 |
| 20260902111852 | 20 | 65 | 0.0 | 0.0 | 0.00 | 0.69 | 0.03 | 97 | 1016.2 |
| 20260902111702 | 20 | 86 | 0.0 | 1.6 | 0.00 | 0.69 | 0.03 | 97 | 1016.2 |
| 20260902111658 | 20 | 84 | 0.0 | 4.8 | 0.00 | 0.69 | 0.03 | 97 | 1016.2 |
| 20260902111653 | 20 | 86 | 0.0 | 0.0 | 0.00 | 0.69 | 0.03 | 97 | 1016.2 |
| 20260902111521 | 20 | 86 | 0.0 | 1.6 | 0.00 | 0.69 | 0.03 | 97 | 1016.2 |
| 20260902111443 | 20 | 86 | 0.0 | 1.6 | 0.00 | 0.69 | 0.03 | 97 | 1016.1 |
| 20260902111433 | 20 | 86 | 0.0 | 4.8 | 0.00 | 0.69 | 0.03 | 97 | 1016.2 |
| 20260902111243 | 20 | 87 | 0.0 | 4.8 | 0.00 | 0.69 | 0.03 | 97 | 1016.2 |
| 20260902111141 | 20 | 89 | 0.0 | 4.8 | 0.00 | 0.69 | 0.03 | 97 | 1016.2 |
| 20260902111041 | 20 | 89 | 1.6 | 6.4 | 0.00 | 0.69 | 0.03 | 97 | 1016.2 |
| 20260902111021 | 20 | 84 | 0.0 | 6.4 | 0.00 | 0.69 | 0.03 | 97 | 1016.3 |
| 20260902110941 | 20 | 84 | 1.6 | 6.4 | 0.00 | 0.69 | 0.03 | 97 | 1016.2 |
| 20260902110824 | 20 | 84 | 1.6 | 6.4 | 0.00 | 0.69 | 0.03 | 97 | 1016.2 |
| 20260902110740 | 20 | 84 | 1.6 | 6.4 | 0.00 | 0.69 | 0.03 | 97 | 1016.3 |
| 20260902110654 | 20 | 80 | 1.6 | 6.4 | 0.00 | 0.69 | 0.03 | 97 | 1016.3 |
| 20260902110649 | 20 | 84 | 1.6 | 6.4 | 0.00 | 0.69 | 0.03 | 97 | 1016.2 |
| 20260902110520 | 20 | 80 | 0.0 | 6.4 | 0.00 | 0.69 | 0.03 | 97 | 1016.4 |
| 20260902110438 | 20 | 80 | 1.6 | 6.4 | 0.00 | 0.69 | 0.03 | 97 | 1016.3 |
| 20260902110324 | 20 | 84 | 1.6 | 6.4 | 0.00 | 0.69 | 0.03 | 97 | 1016.3 |
| 20260902110236 | 20 | 112 | 1.6 | 6.4 | 0.00 | 0.69 | 0.03 | 97 | 1016.3 |
| 20260902110136 | 20 | 72 | 1.6 | 6.4 | 0.00 | 0.69 | 0.03 | 97 | 1016.3 |
| 20260902110034 | 20 | 71 | 1.6 | 6.4 | 0.00 | 0.69 | 0.03 | 97 | 1016.3 |
| 20260902110020 | 20 | 65 | 6.4 | 6.4 | 0.00 | 0.69 | 0.03 | 97 | 1016.5 |
| 20260902105935 | 20 | 74 | 0.0 | 6.4 | 0.00 | 0.69 | 0.03 | 97 | 1016.3 |
| 20260902105823 | 20 | 88 | 0.0 | 3.2 | 0.00 | 0.69 | 0.03 | 97 | 1016.3 |
| 20260902105733 | 20 | 99 | 1.6 | 3.2 | 0.00 | 0.69 | 0.03 | 97 | 1016.3 |
| 20260902105632 | 20 | 99 | 1.6 | 3.2 | 0.00 | 0.69 | 0.03 | 97 | 1016.3 |
| 20260902105546 | 20 | 100 | 0.0 | 3.2 | 0.00 | 0.69 | 0.03 | 97 | 1016.3 |
| 20260902105540 | 20 | 70 | 0.0 | 3.2 | 0.00 | 0.69 | 0.03 | 97 | 1016.4 |
| 20260902105521 | 20 | 68 | 3.2 | 3.2 | 0.00 | 0.69 | 0.03 | 97 | 1016.5 |
| 20260902105331 | 20 | 91 | 0.0 | 3.2 | 0.00 | 0.69 | 0.03 | 97 | 1016.3 |
| 20260902105323 | 20 | 80 | 0.0 | 3.2 | 0.00 | 0.69 | 0.03 | 97 | 1016.3 |
| 20260902105229 | 20 | 83 | 0.0 | 3.2 | 0.00 | 0.69 | 0.03 | 97 | 1016.3 |
| 20260902105129 | 20 | 92 | 0.0 | 3.2 | 0.00 | 0.69 | 0.03 | 97 | 1016.3 |
| 20260902105028 | 20 | 92 | 0.0 | 4.8 | 0.00 | 0.69 | 0.03 | 97 | 1016.2 |
| 20260902105020 | 20 | 92 | 0.0 | 4.8 | 0.00 | 0.69 | 0.03 | 97 | 1016.5 |
| 20260902105000 | 20 | 74 | 0.0 | 4.8 | 0.00 | 0.69 | 0.03 | 97 | 1016.3 |
| 20260902104956 | 20 | 69 | 0.0 | 4.8 | 0.00 | 0.69 | 0.03 | 97 | 1016.3 |
| 20260902104951 | 20 | 92 | 1.6 | 4.8 | 0.00 | 0.69 | 0.03 | 97 | 1016.3 |
| 20260902104835 | 20 | 74 | 0.0 | 4.8 | 0.00 | 0.69 | 0.03 | 97 | 1016.3 |
| 20260902104626 | 20 | 76 | 1.6 | 4.8 | 0.00 | 0.69 | 0.03 | 97 | 1016.3 |
| 20260902104526 | 20 | 71 | 1.6 | 4.8 | 0.00 | 0.69 | 0.03 | 97 | 1016.3 |
| 20260902104521 | 20 | 71 | 1.6 | 4.8 | 0.00 | 0.69 | 0.03 | 97 | 1016.5 |
| 20260902104426 | 20 | 87 | 1.6 | 4.8 | 0.00 | 0.69 | 0.03 | 97 | 1016.3 |
| 20260902104321 | 20 | 86 | 1.6 | 4.8 | 0.00 | 0.69 | 0.03 | 97 | 1016.3 |
| 20260902104224 | 20 | 86 | 1.6 | 4.8 | 0.00 | 0.69 | 0.03 | 97 | 1016.2 |
| 20260902104123 | 20 | 86 | 1.6 | 4.8 | 0.00 | 0.69 | 0.03 | 97 | 1016.2 |
| 20260902104106 | 20 | 53 | 3.2 | 4.8 | 0.00 | 0.69 | 0.03 | 97 | 1016.4 |
| 20260902104021 | 20 | 64 | 1.6 | 4.8 | 0.00 | 0.69 | 0.03 | 97 | 1016.2 |
| 20260902103921 | 20 | 95 | 1.6 | 4.8 | 0.00 | 0.69 | 0.03 | 97 | 1016.2 |
| 20260902103819 | 20 | 92 | 1.6 | 4.8 | 0.00 | 0.69 | 0.03 | 97 | 1016.1 |
| 20260902103721 | 20 | 89 | 1.6 | 4.8 | 0.00 | 0.69 | 0.03 | 97 | 1016.1 |
| 20260902103621 | 20 | 76 | 1.6 | 4.8 | 0.00 | 0.69 | 0.03 | 97 | 1016.1 |
| 20260902103521 | 20 | 61 | 0.0 | 4.8 | 0.00 | 0.69 | 0.03 | 97 | 1016.3 |
| 20260902103420 | 20 | 61 | 1.6 | 4.8 | 0.00 | 0.69 | 0.03 | 97 | 1016.1 |
| 20260902103322 | 20 | 86 | 0.0 | 4.8 | 0.00 | 0.69 | 0.03 | 97 | 1016.1 |
| 20260902103220 | 20 | 89 | 0.0 | 4.8 | 0.00 | 0.69 | 0.03 | 97 | 1016.1 |
| 20260902103120 | 20 | 93 | 1.6 | 4.8 | 0.00 | 0.69 | 0.03 | 97 | 1016.1 |
| 20260902103020 | 20 | 93 | 1.6 | 4.8 | 0.00 | 0.69 | 0.03 | 97 | 1016.3 |
| 20260902102919 | 20 | 93 | 1.6 | 4.8 | 0.00 | 0.69 | 0.03 | 97 | 1016.1 |
| 20260902102820 | 20 | 93 | 1.6 | 4.8 | 0.03 | 0.69 | 0.03 | 97 | 1016.0 |
| 20260902102718 | 20 | 96 | 1.6 | 4.8 | 0.03 | 0.69 | 0.03 | 97 | 1016.0 |
| 20260902102638 | 20 | 103 | 1.6 | 6.4 | 0.03 | 0.69 | 0.03 | 97 | 1015.9 |
| 20260902102618 | 20 | 96 | 1.6 | 4.8 | 0.03 | 0.69 | 0.03 | 97 | 1016.0 |
| 20260902102543 | 20 | 103 | 1.6 | 6.4 | 0.03 | 0.69 | 0.03 | 97 | 1015.9 |
| 20260902102538 | 20 | 101 | 1.6 | 4.8 | 0.03 | 0.69 | 0.03 | 97 | 1016.0 |
| 20260902102528 | 20 | 103 | 1.6 | 4.8 | 0.03 | 0.69 | 0.03 | 97 | 1016.0 |
| 20260902102521 | 20 | 101 | 0.0 | 4.8 | 0.03 | 0.69 | 0.03 | 97 | 1016.2 |
| 20260902102213 | 20 | 87 | 1.6 | 6.4 | 0.03 | 0.69 | 0.03 | 97 | 1015.9 |
| 20260902102125 | 20 | 84 | 1.6 | 6.4 | 0.03 | 0.69 | 0.03 | 97 | 1015.9 |
| 20260902102120 | 20 | 90 | 1.6 | 6.4 | 0.03 | 0.69 | 0.03 | 97 | 1015.9 |
| 20260902102021 | 20 | 84 | 0.0 | 6.4 | 0.03 | 0.69 | 0.03 | 97 | 1016.1 |
| 20260902101911 | 20 | 74 | 1.6 | 6.4 | 0.03 | 0.69 | 0.03 | 97 | 1015.9 |
| 20260902101817 | 20 | 74 | 1.6 | 9.7 | 0.03 | 0.69 | 0.03 | 97 | 1015.9 |
| 20260902101810 | 20 | 76 | 1.6 | 9.7 | 0.03 | 0.69 | 0.03 | 97 | 1015.9 |
| 20260902101710 | 20 | 80 | 1.6 | 9.7 | 0.03 | 0.69 | 0.03 | 97 | 1015.8 |
| 20260902101610 | 20 | 81 | 1.6 | 9.7 | 0.03 | 0.69 | 0.03 | 97 | 1015.9 |
| 20260902101535 | 20 | 81 | 0.0 | 9.7 | 0.03 | 0.69 | 0.03 | 97 | 1016.1 |
| 20260902101509 | 20 | 81 | 1.6 | 9.7 | 0.03 | 0.69 | 0.03 | 97 | 1015.9 |
| 20260902101409 | 20 | 89 | 1.6 | 9.7 | 0.03 | 0.69 | 0.03 | 97 | 1015.9 |
| 20260902101313 | 20 | 96 | 1.6 | 9.7 | 0.03 | 0.69 | 0.03 | 97 | 1015.9 |
| 20260902101306 | 20 | 93 | 1.6 | 9.7 | 0.03 | 0.69 | 0.03 | 97 | 1015.9 |
| 20260902101206 | 20 | 97 | 1.6 | 9.7 | 0.03 | 0.69 | 0.03 | 97 | 1015.9 |
| 20260902101104 | 20 | 73 | 0.0 | 9.7 | 0.03 | 0.69 | 0.03 | 97 | 1015.9 |
| 20260902101022 | 20 | 102 | 0.0 | 4.8 | 0.03 | 0.69 | 0.03 | 97 | 1015.9 |
| 20260902101018 | 20 | 97 | 0.0 | 4.8 | 0.03 | 0.69 | 0.03 | 97 | 1015.9 |
| 20260902101014 | 20 | 96 | 0.0 | 4.8 | 0.03 | 0.69 | 0.03 | 97 | 1016.0 |
| 20260902101009 | 20 | 74 | 0.0 | 9.7 | 0.03 | 0.69 | 0.03 | 97 | 1015.9 |
| 20260902101000 | 20 | 74 | 0.0 | 9.7 | 0.03 | 0.69 | 0.03 | 97 | 1015.9 |
| 20260902100952 | 20 | 100 | 0.0 | 9.7 | 0.03 | 0.69 | 0.03 | 97 | 1015.9 |
| 20260902100622 | 20 | 96 | 0.0 | 4.8 | 0.03 | 0.69 | 0.03 | 97 | 1015.9 |
| 20260902100521 | 20 | 96 | 0.0 | 4.8 | 0.03 | 0.69 | 0.03 | 97 | 1016.2 |
| 20260902100312 | 20 | 90 | 0.0 | 4.8 | 0.03 | 0.69 | 0.03 | 97 | 1015.9 |
| 20260902100302 | 20 | 74 | 0.0 | 4.8 | 0.03 | 0.69 | 0.03 | 97 | 1016.0 |
| 20260902100202 | 20 | 74 | 0.0 | 4.8 | 0.03 | 0.69 | 0.03 | 97 | 1015.9 |
| 20260902100050 | 20 | 73 | 1.6 | 4.8 | 0.03 | 0.69 | 0.03 | 97 | 1016.1 |
| 20260902100004 | 20 | 73 | 0.0 | 4.8 | 0.03 | 0.69 | 0.03 | 97 | 1015.9 |
| 20260902095903 | 20 | 77 | 0.0 | 4.8 | 0.03 | 0.69 | 0.03 | 97 | 1015.9 |
| 20260902095812 | 20 | 94 | 0.0 | 6.4 | 0.03 | 0.69 | 0.03 | 97 | 1015.9 |
| 20260902095802 | 20 | 93 | 1.6 | 6.4 | 0.03 | 0.69 | 0.03 | 97 | 1015.9 |
| 20260902095715 | 20 | 93 | 1.6 | 6.4 | 0.03 | 0.69 | 0.03 | 97 | 1015.9 |
| 20260902095711 | 20 | 93 | 1.6 | 6.4 | 0.03 | 0.69 | 0.03 | 97 | 1015.9 |
| 20260902095521 | 20 | 94 | 4.8 | 6.4 | 0.03 | 0.69 | 0.03 | 97 | 1016.1 |
| 20260902095501 | 20 | 94 | 1.6 | 6.4 | 0.03 | 0.69 | 0.03 | 97 | 1015.9 |
| 20260902095401 | 20 | 59 | 1.6 | 6.4 | 0.03 | 0.69 | 0.03 | 97 | 1015.9 |
| 20260902095312 | 20 | 82 | 1.6 | 6.4 | 0.03 | 0.69 | 0.03 | 97 | 1015.9 |
| 20260902095300 | 20 | 82 | 1.6 | 6.4 | 0.03 | 0.69 | 0.03 | 97 | 1015.9 |
| 20260902095234 | 20 | 82 | 0.0 | 6.4 | 0.03 | 0.69 | 0.03 | 97 | 1015.9 |
| 20260902095121 | 20 | 71 | 0.0 | 6.4 | 0.03 | 0.69 | 0.03 | 97 | 1015.9 |
| 20260902095116 | 20 | 82 | 0.0 | 6.4 | 0.03 | 0.69 | 0.03 | 97 | 1015.9 |
| 20260902095035 | 20 | 84 | 1.6 | 6.4 | 0.03 | 0.69 | 0.03 | 97 | 1016.1 |
| 20260902094810 | 20 | 71 | 0.0 | 6.4 | 0.03 | 0.69 | 0.03 | 97 | 1015.9 |
| 20260902094757 | 20 | 71 | 0.0 | 6.4 | 0.03 | 0.69 | 0.03 | 97 | 1015.9 |
| 20260902094732 | 20 | 65 | 0.0 | 4.8 | 0.03 | 0.69 | 0.03 | 97 | 1015.9 |
| 20260902094727 | 20 | 65 | 0.0 | 4.8 | 0.03 | 0.69 | 0.03 | 97 | 1015.9 |
| 20260902094614 | 20 | 65 | 0.0 | 4.8 | 0.03 | 0.69 | 0.03 | 97 | 1015.9 |
| 20260902094550 | 20 | 65 | 0.0 | 4.8 | 0.03 | 0.69 | 0.03 | 97 | 1016.1 |
| 20260902094311 | 20 | 65 | 0.0 | 6.4 | 0.03 | 0.69 | 0.03 | 97 | 1015.9 |
| 20260902094255 | 20 | 65 | 0.0 | 6.4 | 0.03 | 0.69 | 0.03 | 97 | 1015.9 |
| 20260902094207 | 20 | 70 | 0.0 | 6.4 | 0.03 | 0.69 | 0.03 | 97 | 1015.9 |
| 20260902094203 | 20 | 70 | 0.0 | 6.4 | 0.03 | 0.69 | 0.03 | 97 | 1015.9 |
| 20260902094036 | 20 | 70 | 0.0 | 6.4 | 0.03 | 0.69 | 0.03 | 97 | 1016.1 |
| 20260902094006 | 20 | 70 | 1.6 | 6.4 | 0.03 | 0.69 | 0.03 | 97 | 1015.8 |
| 20260902094000 | 20 | 70 | 1.6 | 6.4 | 0.03 | 0.69 | 0.03 | 97 | 1015.9 |
| 20260902093811 | 20 | 51 | 1.6 | 6.4 | 0.03 | 0.69 | 0.03 | 97 | 1015.8 |
| 20260902093805 | 20 | 86 | 1.6 | 8.0 | 0.03 | 0.69 | 0.03 | 97 | 1015.9 |
| 20260902093801 | 20 | 79 | 1.6 | 6.4 | 0.03 | 0.69 | 0.03 | 97 | 1015.9 |
| 20260902093551 | 20 | 86 | 1.6 | 8.0 | 0.03 | 0.69 | 0.03 | 97 | 1015.9 |
| 20260902093536 | 20 | 85 | 1.6 | 8.0 | 0.03 | 0.69 | 0.03 | 97 | 1016.1 |
| 20260902093504 | 20 | 63 | 1.6 | 8.0 | 0.03 | 0.69 | 0.03 | 97 | 1015.8 |
| 20260902093500 | 20 | 70 | 1.6 | 8.0 | 0.03 | 0.69 | 0.03 | 97 | 1015.9 |
| 20260902093323 | 20 | 63 | 1.6 | 8.0 | 0.03 | 0.69 | 0.03 | 97 | 1015.8 |
| 20260902093319 | 20 | 63 | 1.6 | 8.0 | 0.03 | 0.69 | 0.03 | 97 | 1015.8 |
| 20260902093314 | 20 | 63 | 1.6 | 8.0 | 0.03 | 0.69 | 0.03 | 97 | 1015.8 |
| 20260902093308 | 20 | 63 | 1.6 | 8.0 | 0.03 | 0.69 | 0.03 | 97 | 1015.8 |
| 20260902093051 | 20 | 78 | 1.6 | 8.0 | 0.03 | 0.69 | 0.03 | 97 | 1016.0 |
| 20260902092950 | 20 | 82 | 1.6 | 8.0 | 0.03 | 0.69 | 0.03 | 97 | 1015.8 |
| 20260902092849 | 20 | 79 | 1.6 | 8.0 | 0.03 | 0.69 | 0.03 | 97 | 1015.9 |
| 20260902092810 | 20 | 67 | 1.6 | 8.0 | 0.00 | 0.66 | 0.03 | 97 | 1015.9 |
| 20260902092745 | 20 | 82 | 0.0 | 8.0 | 0.00 | 0.66 | 0.03 | 97 | 1015.8 |
| 20260902092647 | 20 | 79 | 0.0 | 4.8 | 0.00 | 0.66 | 0.00 | 97 | 1015.8 |
| 20260902092546 | 20 | 86 | 1.6 | 4.8 | 0.00 | 0.66 | 0.00 | 97 | 1015.8 |
| 20260902092521 | 20 | 88 | 0.0 | 4.8 | 0.00 | 0.66 | 0.00 | 97 | 1016.0 |
| 20260902092446 | 20 | 88 | 1.6 | 4.8 | 0.00 | 0.66 | 0.00 | 97 | 1015.8 |
| 20260902092345 | 20 | 88 | 1.6 | 6.4 | 0.00 | 0.66 | 0.00 | 97 | 1015.8 |
| 20260902092309 | 20 | 88 | 1.6 | 6.4 | 0.00 | 0.66 | 0.00 | 97 | 1015.8 |
| 20260902092244 | 20 | 88 | 1.6 | 6.4 | 0.00 | 0.66 | 0.00 | 97 | 1015.8 |
| 20260902092144 | 20 | 88 | 1.6 | 6.4 | 0.00 | 0.66 | 0.00 | 97 | 1015.8 |
| 20260902092044 | 20 | 88 | 1.6 | 6.4 | 0.00 | 0.66 | 0.00 | 97 | 1015.8 |
| 20260902092021 | 20 | 82 | 1.6 | 6.4 | 0.00 | 0.66 | 0.00 | 97 | 1016.0 |
| 20260902091942 | 20 | 83 | 1.6 | 6.4 | 0.00 | 0.66 | 0.00 | 97 | 1015.8 |
| 20260902091908 | 20 | 97 | 1.6 | 6.4 | 0.00 | 0.66 | 0.00 | 97 | 1015.9 |
| 20260902091859 | 20 | 96 | 1.6 | 6.4 | 0.00 | 0.66 | 0.00 | 97 | 1015.9 |
| 20260902091749 | 20 | 80 | 1.6 | 6.4 | 0.00 | 0.66 | 0.00 | 97 | 1015.8 |
| 20260902091540 | 20 | 83 | 1.6 | 6.4 | 0.00 | 0.66 | 0.00 | 97 | 1015.8 |
| 20260902091520 | 20 | 71 | 4.8 | 6.4 | 0.00 | 0.66 | 0.00 | 97 | 1015.9 |
| 20260902091439 | 20 | 84 | 1.6 | 6.4 | 0.00 | 0.66 | 0.00 | 97 | 1015.7 |
| 20260902091339 | 20 | 59 | 0.0 | 6.4 | 0.00 | 0.66 | 0.00 | 97 | 1015.7 |
| 20260902091308 | 20 | 121 | 0.0 | 4.8 | 0.00 | 0.66 | 0.00 | 97 | 1015.7 |
| 20260902091239 | 20 | 121 | 1.6 | 4.8 | 0.00 | 0.66 | 0.00 | 97 | 1015.7 |
| 20260902091203 | 20 | 121 | 1.6 | 6.4 | 0.00 | 0.66 | 0.00 | 97 | 1015.7 |
| 20260902091050 | 20 | 82 | 1.6 | 8.0 | 0.00 | 0.66 | 0.00 | 97 | 1015.6 |
| 20260902091045 | 20 | 122 | 1.6 | 6.4 | 0.00 | 0.66 | 0.00 | 97 | 1015.7 |
| 20260902091021 | 20 | 86 | 0.0 | 6.4 | 0.00 | 0.66 | 0.00 | 97 | 1015.9 |
| 20260902090913 | 20 | 82 | 1.6 | 6.4 | 0.00 | 0.66 | 0.00 | 97 | 1015.6 |
| 20260902090735 | 20 | 82 | 1.6 | 8.0 | 0.00 | 0.66 | 0.00 | 97 | 1015.5 |
| 20260902090634 | 20 | 82 | 1.6 | 8.0 | 0.00 | 0.66 | 0.00 | 96 | 1015.6 |
| 20260902090534 | 20 | 83 | 1.6 | 8.0 | 0.00 | 0.66 | 0.00 | 96 | 1015.6 |
| 20260902090521 | 20 | 83 | 0.0 | 8.0 | 0.00 | 0.66 | 0.00 | 96 | 1015.8 |
| 20260902090435 | 20 | 83 | 1.6 | 8.0 | 0.00 | 0.66 | 0.00 | 96 | 1015.6 |
| 20260902090333 | 20 | 83 | 1.6 | 8.0 | 0.00 | 0.66 | 0.00 | 96 | 1015.5 |
| 20260902090305 | 20 | 86 | 1.6 | 8.0 | 0.00 | 0.66 | 0.00 | 96 | 1015.5 |
| 20260902090232 | 20 | 69 | 1.6 | 8.0 | 0.00 | 0.66 | 0.00 | 96 | 1015.5 |
| 20260902090133 | 20 | 96 | 1.6 | 8.0 | 0.00 | 0.66 | 0.00 | 96 | 1015.5 |
| 20260902090033 | 20 | 103 | 1.6 | 8.0 | 0.00 | 0.66 | 0.00 | 97 | 1015.5 |
| 20260902090021 | 20 | 76 | 1.6 | 8.0 | 0.00 | 0.66 | 0.00 | 97 | 1015.7 |
| 20260902085931 | 20 | 96 | 1.6 | 8.0 | 0.00 | 0.66 | 0.00 | 96 | 1015.5 |
| 20260902085830 | 20 | 46 | 1.6 | 8.0 | 0.00 | 0.66 | 0.00 | 97 | 1015.5 |
| 20260902085805 | 20 | 84 | 1.6 | 6.4 | 0.00 | 0.66 | 0.00 | 97 | 1015.5 |
| 20260902085757 | 20 | 68 | 0.0 | 4.8 | 0.00 | 0.66 | 0.00 | 96 | 1015.5 |
| 20260902085752 | 20 | 65 | 0.0 | 4.8 | 0.00 | 0.66 | 0.00 | 96 | 1015.5 |
| 20260902085748 | 20 | 69 | 0.0 | 4.8 | 0.00 | 0.66 | 0.00 | 97 | 1015.5 |
| 20260902085520 | 20 | 65 | 0.0 | 4.8 | 0.00 | 0.66 | 0.00 | 96 | 1015.6 |
| 20260902085429 | 20 | 65 | 0.0 | 4.8 | 0.00 | 0.66 | 0.00 | 97 | 1015.4 |
| 20260902085327 | 20 | 69 | 0.0 | 4.8 | 0.00 | 0.66 | 0.00 | 97 | 1015.4 |
| 20260902085306 | 20 | 84 | 0.0 | 4.8 | 0.00 | 0.66 | 0.00 | 97 | 1015.4 |
| 20260902085227 | 20 | 84 | 0.0 | 4.8 | 0.00 | 0.66 | 0.00 | 97 | 1015.5 |
| 20260902085127 | 20 | 84 | 0.0 | 4.8 | 0.00 | 0.66 | 0.00 | 97 | 1015.5 |
| 20260902085035 | 20 | 92 | 0.0 | 4.8 | 0.00 | 0.66 | 0.00 | 97 | 1015.7 |
| 20260902085026 | 20 | 91 | 0.0 | 4.8 | 0.00 | 0.66 | 0.00 | 97 | 1015.5 |
| 20260902084926 | 20 | 92 | 0.0 | 4.8 | 0.00 | 0.66 | 0.00 | 97 | 1015.5 |
| 20260902084804 | 20 | 91 | 0.0 | 4.8 | 0.00 | 0.66 | 0.00 | 97 | 1015.5 |
| 20260902084725 | 20 | 91 | 0.0 | 4.8 | 0.00 | 0.66 | 0.00 | 97 | 1015.4 |
| 20260902084624 | 20 | 91 | 1.6 | 4.8 | 0.00 | 0.66 | 0.00 | 97 | 1015.4 |
| 20260902084549 | 20 | 91 | 1.6 | 4.8 | 0.00 | 0.66 | 0.00 | 97 | 1015.4 |
| 20260902084544 | 20 | 90 | 0.0 | 4.8 | 0.00 | 0.66 | 0.00 | 97 | 1015.4 |
| 20260902084539 | 20 | 91 | 1.6 | 4.8 | 0.00 | 0.66 | 0.00 | 97 | 1015.4 |
| 20260902084521 | 20 | 91 | 0.0 | 4.8 | 0.00 | 0.66 | 0.00 | 97 | 1015.6 |
| 20260902084304 | 20 | 71 | 0.0 | 4.8 | 0.00 | 0.66 | 0.00 | 97 | 1015.4 |
| 20260902084220 | 20 | 57 | 0.0 | 4.8 | 0.00 | 0.66 | 0.00 | 97 | 1015.4 |
| 20260902084120 | 20 | 57 | 0.0 | 4.8 | 0.00 | 0.66 | 0.00 | 97 | 1015.4 |
| 20260902084021 | 20 | 55 | 0.0 | 4.8 | 0.00 | 0.66 | 0.00 | 97 | 1015.6 |
| 20260902084019 | 20 | 55 | 0.0 | 4.8 | 0.00 | 0.66 | 0.00 | 97 | 1015.4 |
| 20260902083919 | 20 | 55 | 1.6 | 6.4 | 0.00 | 0.66 | 0.00 | 97 | 1015.4 |
| 20260902083803 | 20 | 44 | 1.6 | 6.4 | 0.00 | 0.66 | 0.00 | 97 | 1015.3 |
| 20260902083718 | 20 | 76 | 0.0 | 6.4 | 0.00 | 0.66 | 0.00 | 97 | 1015.3 |
| 20260902083618 | 20 | 105 | 0.0 | 6.4 | 0.00 | 0.66 | 0.00 | 97 | 1015.3 |
| 20260902083521 | 20 | 117 | 1.6 | 6.4 | 0.00 | 0.66 | 0.00 | 97 | 1015.5 |
| 20260902083518 | 20 | 140 | 0.0 | 6.4 | 0.00 | 0.66 | 0.00 | 97 | 1015.2 |
| 20260902083417 | 20 | 117 | 0.0 | 6.4 | 0.00 | 0.66 | 0.00 | 97 | 1015.3 |
| 20260902083303 | 20 | 117 | 1.6 | 6.4 | 0.00 | 0.66 | 0.00 | 97 | 1015.3 |
| 20260902083216 | 20 | 117 | 1.6 | 6.4 | 0.00 | 0.66 | 0.00 | 97 | 1015.3 |
| 20260902083116 | 20 | 117 | 1.6 | 11.3 | 0.00 | 0.66 | 0.00 | 97 | 1015.3 |
| 20260902083021 | 20 | 117 | 1.6 | 11.3 | 0.00 | 0.66 | 0.00 | 97 | 1015.5 |
| 20260902083016 | 20 | 117 | 1.6 | 11.3 | 0.00 | 0.66 | 0.00 | 97 | 1015.3 |
| 20260902082915 | 20 | 107 | 1.6 | 11.3 | 0.00 | 0.66 | 0.00 | 97 | 1015.3 |
| 20260902082814 | 20 | 98 | 1.6 | 11.3 | 0.00 | 0.66 | 0.00 | 97 | 1015.2 |
| 20260902082803 | 20 | 97 | 1.6 | 11.3 | 0.00 | 0.66 | 0.00 | 97 | 1015.2 |
| 20260902082734 | 20 | 97 | 1.6 | 11.3 | 0.00 | 0.66 | 0.00 | 97 | 1015.2 |
| 20260902082621 | 20 | 101 | 1.6 | 11.3 | 0.00 | 0.66 | 0.00 | 97 | 1015.2 |
| 20260902082520 | 20 | 100 | 0.0 | 11.3 | 0.00 | 0.66 | 0.00 | 97 | 1015.4 |
| 20260902082424 | 20 | 108 | 1.6 | 11.3 | 0.00 | 0.66 | 0.00 | 97 | 1015.1 |
| 20260902082420 | 20 | 108 | 1.6 | 11.3 | 0.00 | 0.66 | 0.00 | 97 | 1015.2 |
| 20260902082308 | 20 | 108 | 1.6 | 11.3 | 0.00 | 0.66 | 0.00 | 97 | 1015.1 |
| 20260902082210 | 20 | 78 | 1.6 | 11.3 | 0.00 | 0.66 | 0.00 | 97 | 1015.1 |
| 20260902082110 | 20 | 67 | 1.6 | 8.0 | 0.00 | 0.66 | 0.00 | 97 | 1015.1 |
| 20260902082021 | 20 | 67 | 1.6 | 11.3 | 0.00 | 0.66 | 0.00 | 96 | 1015.2 |
| 20260902082009 | 20 | 67 | 1.6 | 11.3 | 0.00 | 0.66 | 0.00 | 96 | 1015.1 |
| 20260902081908 | 20 | 64 | 1.6 | 11.3 | 0.00 | 0.66 | 0.00 | 96 | 1015.0 |
| 20260902081810 | 20 | 80 | 1.6 | 11.3 | 0.00 | 0.66 | 0.00 | 96 | 1015.0 |
| 20260902081802 | 20 | 80 | 1.6 | 11.3 | 0.00 | 0.66 | 0.00 | 96 | 1015.1 |
| 20260902081708 | 20 | 81 | 1.6 | 11.3 | 0.00 | 0.66 | 0.00 | 96 | 1015.1 |
| 20260902081608 | 20 | 76 | 1.6 | 11.3 | 0.00 | 0.66 | 0.00 | 96 | 1015.0 |
| 20260902081535 | 20 | 76 | 1.6 | 11.3 | 0.00 | 0.66 | 0.00 | 96 | 1015.1 |
| 20260902081507 | 20 | 78 | 1.6 | 11.3 | 0.00 | 0.66 | 0.00 | 96 | 1015.0 |
| 20260902081423 | 20 | 92 | 3.2 | 11.3 | 0.00 | 0.66 | 0.00 | 96 | 1014.9 |
| 20260902081419 | 20 | 92 | 1.6 | 11.3 | 0.00 | 0.66 | 0.00 | 96 | 1014.9 |
| 20260902081303 | 20 | 92 | 3.2 | 11.3 | 0.00 | 0.66 | 0.00 | 96 | 1014.9 |
| 20260902081205 | 20 | 80 | 3.2 | 11.3 | 0.00 | 0.66 | 0.00 | 96 | 1014.8 |
| 20260902081116 | 20 | 93 | 3.2 | 11.3 | 0.00 | 0.66 | 0.00 | 96 | 1014.8 |
| 20260902081112 | 20 | 81 | 3.2 | 11.3 | 0.00 | 0.66 | 0.00 | 96 | 1014.8 |
| 20260902081021 | 20 | 93 | 0.0 | 11.3 | 0.00 | 0.66 | 0.00 | 96 | 1015.0 |
| 20260902080901 | 20 | 39 | 3.2 | 11.3 | 0.00 | 0.66 | 0.00 | 96 | 1014.8 |
| 20260902080806 | 20 | 90 | 1.6 | 11.3 | 0.00 | 0.66 | 0.00 | 96 | 1014.8 |
| 20260902080800 | 20 | 94 | 1.6 | 11.3 | 0.00 | 0.66 | 0.00 | 96 | 1014.8 |
| 20260902080700 | 20 | 63 | 1.6 | 11.3 | 0.00 | 0.66 | 0.00 | 96 | 1014.9 |
| 20260902080610 | 20 | 86 | 1.6 | 11.3 | 0.00 | 0.66 | 0.00 | 97 | 1014.9 |
| 20260902080606 | 20 | 101 | 1.6 | 11.3 | 0.00 | 0.66 | 0.00 | 96 | 1014.9 |
| 20260902080536 | 21 | 92 | 1.6 | 11.3 | 0.00 | 0.66 | 0.00 | 97 | 1015.2 |
| 20260902080357 | 21 | 76 | 1.6 | 11.3 | 0.00 | 0.66 | 0.00 | 96 | 1014.9 |
| 20260902080302 | 21 | 77 | 1.6 | 8.0 | 0.00 | 0.66 | 0.00 | 96 | 1014.9 |
| 20260902080256 | 21 | 71 | 1.6 | 8.0 | 0.00 | 0.66 | 0.00 | 96 | 1014.9 |
| 20260902080156 | 21 | 86 | 1.6 | 8.0 | 0.00 | 0.66 | 0.00 | 96 | 1014.9 |
| 20260902080055 | 21 | 97 | 1.6 | 8.0 | 0.00 | 0.66 | 0.00 | 96 | 1014.9 |
| 20260902080021 | 21 | 78 | 1.6 | 8.0 | 0.00 | 0.66 | 0.00 | 96 | 1015.2 |
| 20260902075954 | 21 | 72 | 1.6 | 8.0 | 0.00 | 0.66 | 0.00 | 96 | 1014.9 |
| 20260902075853 | 21 | 80 | 1.6 | 12.9 | 0.00 | 0.66 | 0.00 | 96 | 1014.9 |
| 20260902075752 | 21 | 80 | 1.6 | 12.9 | 0.00 | 0.66 | 0.00 | 96 | 1014.9 |
| 20260902075652 | 21 | 80 | 1.6 | 12.9 | 0.00 | 0.66 | 0.00 | 96 | 1014.9 |
| 20260902075551 | 21 | 70 | 1.6 | 12.9 | 0.00 | 0.66 | 0.00 | 96 | 1014.9 |
| 20260902075536 | 21 | 77 | 1.6 | 12.9 | 0.00 | 0.66 | 0.00 | 96 | 1015.0 |
| 20260902075503 | 21 | 119 | 1.6 | 12.9 | 0.00 | 0.66 | 0.00 | 96 | 1014.8 |
| 20260902075459 | 21 | 75 | 1.6 | 12.9 | 0.00 | 0.66 | 0.00 | 96 | 1014.8 |
| 20260902075302 | 21 | 72 | 1.6 | 12.9 | 0.00 | 0.66 | 0.00 | 96 | 1014.8 |
| 20260902075249 | 21 | 56 | 1.6 | 12.9 | 0.00 | 0.66 | 0.00 | 96 | 1014.8 |
| 20260902075148 | 21 | 80 | 1.6 | 12.9 | 0.00 | 0.66 | 0.00 | 96 | 1014.9 |
| 20260902075047 | 21 | 88 | 1.6 | 12.9 | 0.00 | 0.66 | 0.00 | 96 | 1014.8 |
| 20260902075021 | 21 | 96 | 1.6 | 12.9 | 0.00 | 0.66 | 0.00 | 96 | 1015.0 |
| 20260902074944 | 21 | 81 | 1.6 | 12.9 | 0.00 | 0.66 | 0.00 | 96 | 1014.8 |
| 20260902074843 | 21 | 67 | 1.6 | 6.4 | 0.00 | 0.66 | 0.00 | 96 | 1014.8 |
| 20260902074801 | 21 | 61 | 1.6 | 6.4 | 0.00 | 0.66 | 0.00 | 96 | 1014.8 |
| 20260902074742 | 21 | 126 | 1.6 | 6.4 | 0.00 | 0.66 | 0.00 | 96 | 1014.8 |
| 20260902074642 | 21 | 106 | 1.6 | 6.4 | 0.00 | 0.66 | 0.00 | 96 | 1014.8 |
| 20260902074542 | 21 | 98 | 1.6 | 6.4 | 0.00 | 0.66 | 0.00 | 96 | 1014.8 |
| 20260902074521 | 21 | 79 | 3.2 | 6.4 | 0.00 | 0.66 | 0.00 | 96 | 1015.0 |
| 20260902074441 | 21 | 96 | 0.0 | 6.4 | 0.00 | 0.66 | 0.00 | 96 | 1014.8 |
| 20260902074341 | 21 | 93 | 1.6 | 6.4 | 0.00 | 0.66 | 0.00 | 97 | 1014.8 |
| 20260902074300 | 21 | 86 | 1.6 | 6.4 | 0.00 | 0.66 | 0.00 | 97 | 1014.8 |
| 20260902074240 | 21 | 82 | 1.6 | 6.4 | 0.00 | 0.66 | 0.00 | 97 | 1014.8 |
| 20260902074140 | 21 | 80 | 1.6 | 8.0 | 0.00 | 0.66 | 0.00 | 97 | 1014.8 |
| 20260902074038 | 21 | 86 | 1.6 | 8.0 | 0.00 | 0.66 | 0.00 | 97 | 1014.8 |
| 20260902074021 | 21 | 105 | 0.0 | 8.0 | 0.00 | 0.66 | 0.00 | 97 | 1015.0 |
| 20260902073948 | 21 | 76 | 1.6 | 9.7 | 0.00 | 0.66 | 0.00 | 97 | 1014.8 |
| 20260902073944 | 21 | 105 | 1.6 | 8.0 | 0.00 | 0.66 | 0.00 | 97 | 1014.8 |
| 20260902073759 | 21 | 71 | 1.6 | 9.7 | 0.00 | 0.66 | 0.00 | 97 | 1014.8 |
| 20260902073735 | 21 | 57 | 1.6 | 9.7 | 0.00 | 0.66 | 0.00 | 97 | 1014.8 |
| 20260902073635 | 21 | 50 | 1.6 | 9.7 | 0.00 | 0.66 | 0.00 | 97 | 1014.7 |
| 20260902073535 | 21 | 50 | 3.2 | 9.7 | 0.00 | 0.66 | 0.00 | 97 | 1014.7 |
| 20260902073521 | 21 | 50 | 0.0 | 9.7 | 0.00 | 0.66 | 0.00 | 97 | 1014.9 |
| 20260902073447 | 21 | 70 | 3.2 | 11.3 | 0.00 | 0.66 | 0.00 | 97 | 1014.7 |
| 20260902073443 | 21 | 50 | 3.2 | 9.7 | 0.00 | 0.66 | 0.00 | 97 | 1014.7 |
| 20260902073315 | 21 | 103 | 3.2 | 11.3 | 0.00 | 0.66 | 0.00 | 97 | 1014.7 |
| 20260902073311 | 21 | 80 | 3.2 | 11.3 | 0.00 | 0.66 | 0.00 | 97 | 1014.6 |
| 20260902073304 | 21 | 71 | 3.2 | 11.3 | 0.00 | 0.66 | 0.00 | 97 | 1014.6 |
| 20260902073042 | 21 | 111 | 3.2 | 11.3 | 0.00 | 0.66 | 0.00 | 97 | 1014.6 |
| 20260902073020 | 21 | 99 | 1.6 | 11.3 | 0.00 | 0.66 | 0.00 | 97 | 1014.9 |
| 20260902072831 | 21 | 90 | 3.2 | 11.3 | 0.00 | 0.66 | 0.00 | 97 | 1014.6 |
| 20260902072800 | 21 | 90 | 3.2 | 14.5 | 0.00 | 0.66 | 0.00 | 97 | 1014.6 |
| 20260902072728 | 21 | 90 | 3.2 | 14.5 | 0.00 | 0.66 | 0.00 | 97 | 1014.6 |
| 20260902072629 | 21 | 90 | 4.8 | 14.5 | 0.00 | 0.66 | 0.00 | 96 | 1014.6 |
| 20260902072529 | 21 | 90 | 3.2 | 14.5 | 0.00 | 0.66 | 0.00 | 96 | 1014.6 |
| 20260902072520 | 21 | 63 | 3.2 | 14.5 | 0.00 | 0.66 | 0.00 | 96 | 1014.9 |
| 20260902072428 | 21 | 101 | 3.2 | 14.5 | 0.00 | 0.66 | 0.00 | 96 | 1014.6 |
| 20260902072327 | 21 | 74 | 3.2 | 14.5 | 0.00 | 0.66 | 0.00 | 96 | 1014.6 |
| 20260902072259 | 21 | 77 | 3.2 | 14.5 | 0.00 | 0.66 | 0.00 | 96 | 1014.6 |
| 20260902072226 | 21 | 83 | 3.2 | 14.5 | 0.00 | 0.66 | 0.00 | 96 | 1014.6 |
| 20260902072126 | 21 | 86 | 4.8 | 14.5 | 0.00 | 0.66 | 0.00 | 96 | 1014.5 |
| 20260902072027 | 21 | 82 | 4.8 | 14.5 | 0.00 | 0.66 | 0.00 | 96 | 1014.5 |
| 20260902072021 | 21 | 83 | 1.6 | 14.5 | 0.00 | 0.66 | 0.00 | 96 | 1014.8 |
| 20260902071923 | 21 | 53 | 4.8 | 14.5 | 0.00 | 0.66 | 0.00 | 96 | 1014.5 |
| 20260902071907 | 21 | 33 | 4.8 | 14.5 | 0.00 | 0.66 | 0.00 | 96 | 1014.5 |
| 20260902071723 | 21 | 49 | 3.2 | 12.9 | 0.00 | 0.66 | 0.00 | 96 | 1014.6 |
| 20260902071623 | 21 | 107 | 4.8 | 12.9 | 0.00 | 0.66 | 0.00 | 96 | 1014.5 |
| 20260902071522 | 21 | 92 | 3.2 | 12.9 | 0.00 | 0.66 | 0.00 | 96 | 1014.5 |
| 20260902071455 | 21 | 96 | 3.2 | 12.9 | 0.00 | 0.66 | 0.00 | 97 | 1014.5 |
| 20260902071451 | 21 | 93 | 3.2 | 11.3 | 0.00 | 0.66 | 0.00 | 97 | 1014.5 |
| 20260902071445 | 21 | 93 | 3.2 | 12.9 | 0.00 | 0.66 | 0.00 | 96 | 1014.5 |
| 20260902071328 | 21 | 69 | 3.2 | 11.3 | 0.00 | 0.66 | 0.00 | 97 | 1014.5 |
| 20260902071120 | 21 | 110 | 3.2 | 11.3 | 0.00 | 0.66 | 0.00 | 97 | 1014.5 |
| 20260902071021 | 21 | 103 | 3.2 | 11.3 | 0.00 | 0.66 | 0.00 | 97 | 1014.7 |
| 20260902070919 | 21 | 78 | 1.6 | 11.3 | 0.00 | 0.66 | 0.00 | 97 | 1014.4 |
| 20260902070818 | 21 | 101 | 1.6 | 11.3 | 0.00 | 0.66 | 0.00 | 97 | 1014.5 |
| 20260902070758 | 21 | 88 | 1.6 | 11.3 | 0.00 | 0.66 | 0.00 | 97 | 1014.5 |
| 20260902070744 | 21 | 58 | 1.6 | 11.3 | 0.00 | 0.66 | 0.00 | 97 | 1014.5 |
| 20260902070740 | 21 | 78 | 1.6 | 11.3 | 0.00 | 0.66 | 0.00 | 97 | 1014.5 |
| 20260902070735 | 21 | 101 | 1.6 | 11.3 | 0.00 | 0.66 | 0.00 | 97 | 1014.5 |
| 20260902070520 | 21 | 78 | 0.0 | 11.3 | 0.00 | 0.66 | 0.00 | 97 | 1014.8 |
| 20260902070416 | 21 | 78 | 1.6 | 11.3 | 0.00 | 0.66 | 0.00 | 97 | 1014.5 |
| 20260902070314 | 21 | 78 | 1.6 | 11.3 | 0.00 | 0.66 | 0.00 | 97 | 1014.5 |
| 20260902070259 | 21 | 78 | 1.6 | 11.3 | 0.00 | 0.66 | 0.00 | 97 | 1014.5 |
| 20260902070214 | 21 | 103 | 1.6 | 11.3 | 0.00 | 0.66 | 0.00 | 97 | 1014.5 |
| 20260902070142 | 21 | 69 | 1.6 | 11.3 | 0.00 | 0.66 | 0.00 | 97 | 1014.5 |
| 20260902070028 | 21 | 86 | 3.2 | 11.3 | 0.00 | 0.66 | 0.00 | 97 | 1014.5 |
| 20260902070024 | 21 | 56 | 1.6 | 11.3 | 0.00 | 0.66 | 0.00 | 97 | 1014.5 |
| 20260902070021 | 21 | 58 | 0.0 | 11.3 | 0.00 | 0.66 | 0.00 | 97 | 1014.8 |
| 20260902070015 | 21 | 51 | 1.6 | 11.3 | 0.00 | 0.66 | 0.00 | 97 | 1014.5 |
| 20260902065724 | 21 | 85 | 1.6 | 9.7 | 0.00 | 0.66 | 0.00 | 97 | 1014.4 |
| 20260902065720 | 21 | 85 | 1.6 | 9.7 | 0.00 | 0.66 | 0.00 | 97 | 1014.5 |
| 20260902065521 | 21 | 91 | 1.6 | 6.4 | 0.00 | 0.66 | 0.00 | 97 | 1014.8 |
| 20260902065510 | 21 | 91 | 1.6 | 9.7 | 0.00 | 0.66 | 0.00 | 97 | 1014.5 |
| 20260902065410 | 21 | 94 | 1.6 | 6.4 | 0.00 | 0.66 | 0.00 | 97 | 1014.5 |
| 20260902065309 | 21 | 95 | 1.6 | 6.4 | 0.00 | 0.66 | 0.00 | 97 | 1014.5 |
| 20260902065258 | 21 | 95 | 1.6 | 6.4 | 0.00 | 0.66 | 0.00 | 97 | 1014.5 |
| 20260902065210 | 21 | 46 | 1.6 | 6.4 | 0.00 | 0.66 | 0.00 | 97 | 1014.5 |
| 20260902065109 | 21 | 90 | 1.6 | 6.4 | 0.00 | 0.66 | 0.00 | 97 | 1014.5 |
| 20260902065020 | 21 | 117 | 4.8 | 4.8 | 0.00 | 0.66 | 0.00 | 97 | 1014.8 |
| 20260902065009 | 21 | 109 | 0.0 | 4.8 | 0.00 | 0.66 | 0.00 | 97 | 1014.5 |
| 20260902064908 | 21 | 111 | 0.0 | 4.8 | 0.00 | 0.66 | 0.00 | 97 | 1014.5 |
| 20260902064822 | 21 | 85 | 0.0 | 3.2 | 0.00 | 0.66 | 0.00 | 97 | 1014.6 |
| 20260902064815 | 21 | 84 | 0.0 | 3.2 | 0.00 | 0.66 | 0.00 | 97 | 1014.5 |
| 20260902064607 | 21 | 84 | 0.0 | 3.2 | 0.00 | 0.66 | 0.00 | 97 | 1014.6 |
| 20260902064520 | 21 | 84 | 1.6 | 1.6 | 0.00 | 0.66 | 0.00 | 97 | 1014.9 |
| 20260902064507 | 21 | 84 | 0.0 | 3.2 | 0.00 | 0.66 | 0.00 | 97 | 1014.6 |
| 20260902064419 | 21 | 84 | 0.0 | 4.8 | 0.00 | 0.66 | 0.00 | 97 | 1014.6 |
| 20260902064415 | 21 | 84 | 0.0 | 1.6 | 0.00 | 0.66 | 0.00 | 97 | 1014.6 |
| 20260902064254 | 21 | 84 | 0.0 | 4.8 | 0.00 | 0.66 | 0.00 | 97 | 1014.6 |
| 20260902064205 | 21 | 84 | 0.0 | 4.8 | 0.00 | 0.66 | 0.00 | 97 | 1014.6 |
| 20260902064105 | 21 | 84 | 0.0 | 4.8 | 0.00 | 0.66 | 0.00 | 97 | 1014.6 |
| 20260902064020 | 21 | 84 | 0.0 | 4.8 | 0.00 | 0.66 | 0.00 | 97 | 1014.9 |
| 20260902064017 | 21 | 84 | 0.0 | 4.8 | 0.00 | 0.66 | 0.00 | 97 | 1014.6 |
| 20260902064004 | 21 | 84 | 0.0 | 4.8 | 0.00 | 0.66 | 0.00 | 97 | 1014.6 |
| 20260902063907 | 21 | 84 | 0.0 | 4.8 | 0.00 | 0.66 | 0.00 | 97 | 1014.6 |
| 20260902063858 | 21 | 84 | 0.0 | 4.8 | 0.00 | 0.66 | 0.00 | 97 | 1014.6 |
| 20260902063704 | 21 | 84 | 0.0 | 4.8 | 0.00 | 0.66 | 0.00 | 97 | 1014.5 |
| 20260902063602 | 21 | 84 | 0.0 | 4.8 | 0.00 | 0.66 | 0.00 | 97 | 1014.5 |
| 20260902063524 | 21 | 84 | 0.0 | 4.8 | 0.00 | 0.66 | 0.00 | 97 | 1014.4 |
| 20260902063521 | 21 | 84 | 0.0 | 4.8 | 0.00 | 0.66 | 0.00 | 97 | 1014.8 |
| 20260902063514 | 21 | 84 | 0.0 | 4.8 | 0.00 | 0.66 | 0.00 | 97 | 1014.5 |
| 20260902063356 | 21 | 84 | 0.0 | 4.8 | 0.00 | 0.66 | 0.00 | 97 | 1014.5 |
| 20260902063201 | 21 | 102 | 0.0 | 4.8 | 0.00 | 0.66 | 0.00 | 97 | 1014.4 |
| 20260902063113 | 21 | 102 | 0.0 | 4.8 | 0.00 | 0.66 | 0.00 | 97 | 1014.4 |
| 20260902063109 | 21 | 102 | 0.0 | 4.8 | 0.00 | 0.66 | 0.00 | 97 | 1014.4 |
| 20260902063021 | 21 | 102 | 3.2 | 4.8 | 0.00 | 0.66 | 0.00 | 97 | 1014.7 |
| 20260902062912 | 21 | 103 | 0.0 | 1.6 | 0.00 | 0.66 | 0.00 | 97 | 1014.4 |
| 20260902062908 | 21 | 103 | 0.0 | 1.6 | 0.00 | 0.66 | 0.00 | 97 | 1014.5 |
| 20260902062749 | 21 | 103 | 0.0 | 4.8 | 0.00 | 0.66 | 0.00 | 97 | 1014.4 |
| 20260902062658 | 21 | 103 | 0.0 | 4.8 | 0.00 | 0.66 | 0.00 | 97 | 1014.4 |
| 20260902062557 | 21 | 103 | 0.0 | 4.8 | 0.00 | 0.66 | 0.00 | 97 | 1014.4 |
| 20260902062521 | 21 | 103 | 0.0 | 1.6 | 0.00 | 0.66 | 0.00 | 97 | 1014.7 |
| 20260902062508 | 21 | 103 | 0.0 | 4.8 | 0.00 | 0.66 | 0.00 | 97 | 1014.4 |
| 20260902062504 | 21 | 103 | 0.0 | 4.8 | 0.00 | 0.66 | 0.00 | 97 | 1014.4 |
| 20260902062247 | 21 | 103 | 0.0 | 4.8 | 0.00 | 0.66 | 0.00 | 97 | 1014.3 |
| 20260902062154 | 21 | 103 | 0.0 | 4.8 | 0.00 | 0.66 | 0.00 | 97 | 1014.3 |
| 20260902062054 | 21 | 103 | 0.0 | 4.8 | 0.00 | 0.66 | 0.00 | 97 | 1014.4 |
| 20260902062020 | 21 | 103 | 0.0 | 1.6 | 0.00 | 0.66 | 0.00 | 97 | 1014.6 |
| 20260902061951 | 21 | 103 | 0.0 | 4.8 | 0.00 | 0.66 | 0.00 | 97 | 1014.3 |
| 20260902061925 | 21 | 103 | 0.0 | 4.8 | 0.00 | 0.66 | 0.00 | 97 | 1014.3 |
| 20260902061921 | 21 | 103 | 0.0 | 4.8 | 0.00 | 0.66 | 0.00 | 97 | 1014.4 |
| 20260902061916 | 21 | 103 | 0.0 | 4.8 | 0.00 | 0.66 | 0.00 | 97 | 1014.3 |
| 20260902061759 | 21 | 103 | 0.0 | 4.8 | 0.00 | 0.66 | 0.00 | 97 | 1014.3 |
| 20260902061604 | 21 | 103 | 0.0 | 4.8 | 0.00 | 0.66 | 0.00 | 97 | 1014.3 |
| 20260902061559 | 21 | 103 | 0.0 | 4.8 | 0.00 | 0.66 | 0.00 | 97 | 1014.4 |
| 20260902061535 | 21 | 103 | 0.0 | 4.8 | 0.00 | 0.66 | 0.00 | 97 | 1014.6 |
| 20260902061408 | 21 | 103 | 0.0 | 4.8 | 0.00 | 0.66 | 0.00 | 97 | 1014.3 |
| 20260902061403 | 21 | 103 | 0.0 | 4.8 | 0.00 | 0.66 | 0.00 | 97 | 1014.3 |
| 20260902061249 | 21 | 103 | 0.0 | 4.8 | 0.00 | 0.66 | 0.00 | 97 | 1014.3 |
| 20260902061147 | 21 | 103 | 0.0 | 4.8 | 0.00 | 0.66 | 0.00 | 97 | 1014.3 |
| 20260902061105 | 21 | 103 | 0.0 | 4.8 | 0.00 | 0.66 | 0.00 | 97 | 1014.4 |
| 20260902061059 | 21 | 103 | 0.0 | 4.8 | 0.00 | 0.66 | 0.00 | 97 | 1014.4 |
| 20260902061021 | 21 | 103 | 0.0 | 4.8 | 0.00 | 0.66 | 0.00 | 97 | 1014.7 |
| 20260902060937 | 21 | 105 | 0.0 | 4.8 | 0.00 | 0.66 | 0.00 | 97 | 1014.4 |
| 20260902060928 | 21 | 105 | 0.0 | 3.2 | 0.00 | 0.66 | 0.00 | 97 | 1014.4 |
| 20260902060710 | 21 | 132 | 0.0 | 0.0 | 0.00 | 0.66 | 0.00 | 97 | 1014.5 |
| 20260902060705 | 21 | 132 | 0.0 | 0.0 | 0.00 | 0.66 | 0.00 | 97 | 1014.5 |
| 20260902060521 | 21 | 132 | 0.0 | 0.0 | 0.00 | 0.66 | 0.00 | 97 | 1014.8 |
| 20260902060345 | 21 | 132 | 0.0 | 0.0 | 0.00 | 0.66 | 0.00 | 97 | 1014.5 |
| 20260902060244 | 21 | 132 | 0.0 | 0.0 | 0.00 | 0.66 | 0.00 | 97 | 1014.5 |
| 20260902060144 | 21 | 132 | 0.0 | 0.0 | 0.00 | 0.66 | 0.00 | 97 | 1014.5 |
| 20260902060050 | 21 | 132 | 0.0 | 0.0 | 0.00 | 0.66 | 0.00 | 97 | 1014.7 |
| 20260902060043 | 21 | 132 | 0.0 | 0.0 | 0.00 | 0.66 | 0.00 | 97 | 1014.4 |
| 20260902055942 | 21 | 132 | 0.0 | 0.0 | 0.00 | 0.66 | 0.00 | 97 | 1014.4 |
| 20260902055841 | 21 | 132 | 0.0 | 0.0 | 0.00 | 0.66 | 0.00 | 97 | 1014.3 |
| 20260902055739 | 21 | 132 | 0.0 | 0.0 | 0.00 | 0.66 | 0.00 | 96 | 1014.4 |
| 20260902055653 | 21 | 132 | 0.0 | 0.0 | 0.00 | 0.66 | 0.00 | 96 | 1014.4 |
| 20260902055648 | 21 | 132 | 0.0 | 0.0 | 0.00 | 0.66 | 0.00 | 96 | 1014.4 |
| 20260902055520 | 21 | 132 | 0.0 | 0.0 | 0.00 | 0.66 | 0.00 | 96 | 1014.5 |
| 20260902055438 | 21 | 132 | 0.0 | 1.6 | 0.00 | 0.66 | 0.00 | 96 | 1014.3 |
| 20260902055338 | 21 | 132 | 0.0 | 1.6 | 0.00 | 0.66 | 0.00 | 96 | 1014.4 |
| 20260902055237 | 21 | 132 | 0.0 | 1.6 | 0.00 | 0.66 | 0.00 | 96 | 1014.4 |
| 20260902055137 | 21 | 132 | 0.0 | 1.6 | 0.00 | 0.66 | 0.00 | 96 | 1014.3 |
| 20260902055037 | 21 | 132 | 0.0 | 1.6 | 0.00 | 0.66 | 0.00 | 96 | 1014.3 |
| 20260902055021 | 21 | 132 | 0.0 | 1.6 | 0.00 | 0.66 | 0.00 | 96 | 1014.6 |
| 20260902054936 | 21 | 132 | 0.0 | 1.6 | 0.00 | 0.66 | 0.00 | 96 | 1014.3 |
| 20260902054834 | 21 | 132 | 0.0 | 1.6 | 0.00 | 0.66 | 0.00 | 96 | 1014.2 |
| 20260902054734 | 21 | 132 | 0.0 | 1.6 | 0.00 | 0.66 | 0.00 | 96 | 1014.2 |
| 20260902054634 | 21 | 132 | 0.0 | 1.6 | 0.00 | 0.66 | 0.00 | 96 | 1014.2 |
| 20260902054533 | 21 | 132 | 0.0 | 1.6 | 0.00 | 0.66 | 0.00 | 96 | 1014.2 |
| 20260902054521 | 21 | 132 | 0.0 | 1.6 | 0.00 | 0.66 | 0.00 | 96 | 1014.5 |
| 20260902054446 | 21 | 132 | 0.0 | 0.0 | 0.00 | 0.66 | 0.00 | 96 | 1014.2 |
| 20260902054440 | 21 | 132 | 0.0 | 0.0 | 0.00 | 0.66 | 0.00 | 96 | 1014.2 |
| 20260902054231 | 21 | 132 | 0.0 | 0.0 | 0.00 | 0.66 | 0.00 | 96 | 1014.3 |
| 20260902054130 | 21 | 132 | 0.0 | 0.0 | 0.00 | 0.66 | 0.00 | 96 | 1014.3 |
| 20260902054029 | 21 | 132 | 0.0 | 0.0 | 0.00 | 0.66 | 0.00 | 96 | 1014.3 |
| 20260902054021 | 21 | 132 | 0.0 | 0.0 | 0.00 | 0.66 | 0.00 | 96 | 1014.6 |
| 20260902053943 | 21 | 132 | 0.0 | 0.0 | 0.00 | 0.66 | 0.00 | 96 | 1014.3 |
| 20260902053937 | 21 | 132 | 0.0 | 0.0 | 0.00 | 0.66 | 0.00 | 96 | 1014.3 |
| 20260902053749 | 21 | 132 | 0.0 | 0.0 | 0.00 | 0.66 | 0.00 | 96 | 1014.3 |
| 20260902053636 | 21 | 132 | 0.0 | 0.0 | 0.00 | 0.66 | 0.00 | 96 | 1014.3 |
| 20260902053521 | 21 | 132 | 0.0 | 0.0 | 0.00 | 0.66 | 0.00 | 96 | 1014.6 |
| 20260902053426 | 21 | 132 | 0.0 | 0.0 | 0.00 | 0.66 | 0.00 | 96 | 1014.3 |
| 20260902053326 | 21 | 132 | 0.0 | 0.0 | 0.00 | 0.66 | 0.00 | 96 | 1014.3 |
| 20260902053257 | 21 | 132 | 0.0 | 0.0 | 0.00 | 0.66 | 0.00 | 96 | 1014.3 |
| 20260902053253 | 21 | 132 | 0.0 | 0.0 | 0.00 | 0.66 | 0.00 | 96 | 1014.3 |
| 20260902053242 | 21 | 132 | 0.0 | 0.0 | 0.00 | 0.66 | 0.00 | 96 | 1014.3 |
| 20260902053035 | 21 | 132 | 0.0 | 0.0 | 0.00 | 0.66 | 0.00 | 96 | 1014.6 |
| 20260902052924 | 21 | 132 | 0.0 | 0.0 | 0.00 | 0.66 | 0.00 | 96 | 1014.3 |
| 20260902052823 | 21 | 132 | 0.0 | 0.0 | 0.00 | 0.66 | 0.00 | 96 | 1014.3 |
| 20260902052723 | 21 | 132 | 0.0 | 0.0 | 0.00 | 0.66 | 0.00 | 96 | 1014.3 |
| 20260902052622 | 21 | 132 | 0.0 | 0.0 | 0.00 | 0.66 | 0.00 | 96 | 1014.4 |
| 20260902052522 | 21 | 132 | 0.0 | 0.0 | 0.00 | 0.66 | 0.00 | 96 | 1014.3 |
| 20260902052438 | 21 | 132 | 0.0 | 0.0 | 0.00 | 0.66 | 0.00 | 96 | 1014.3 |
| 20260902052433 | 21 | 132 | 0.0 | 0.0 | 0.00 | 0.66 | 0.00 | 96 | 1014.4 |
| 20260902052223 | 21 | 132 | 0.0 | 0.0 | 0.00 | 0.66 | 0.00 | 96 | 1014.3 |
| 20260902052122 | 21 | 132 | 0.0 | 0.0 | 0.00 | 0.66 | 0.00 | 96 | 1014.4 |
| 20260902052022 | 21 | 132 | 0.0 | 0.0 | 0.00 | 0.66 | 0.00 | 96 | 1014.3 |
| 20260902052020 | 21 | 132 | 0.0 | 0.0 | 0.00 | 0.66 | 0.00 | 96 | 1014.7 |
| 20260902052003 | 21 | 132 | 0.0 | 0.0 | 0.00 | 0.66 | 0.00 | 96 | 1014.4 |
| 20260902051956 | 21 | 132 | 0.0 | 0.0 | 0.00 | 0.66 | 0.00 | 96 | 1014.4 |
| 20260902051728 | 21 | 132 | 0.0 | 0.0 | 0.00 | 0.66 | 0.00 | 96 | 1014.4 |
| 20260902051539 | 21 | 132 | 0.0 | 0.0 | 0.00 | 0.66 | 0.00 | 96 | 1014.4 |
| 20260902051536 | 21 | 132 | 0.0 | 0.0 | 0.00 | 0.66 | 0.00 | 96 | 1014.7 |
| 20260902051426 | 21 | 132 | 0.0 | 0.0 | 0.00 | 0.66 | 0.00 | 96 | 1014.4 |
| 20260902051217 | 21 | 132 | 0.0 | 0.0 | 0.00 | 0.66 | 0.00 | 96 | 1014.4 |
| 20260902051116 | 21 | 132 | 0.0 | 0.0 | 0.00 | 0.66 | 0.00 | 96 | 1014.4 |
| 20260902051035 | 21 | 132 | 0.0 | 0.0 | 0.00 | 0.66 | 0.00 | 96 | 1014.8 |
| 20260902051016 | 21 | 132 | 0.0 | 0.0 | 0.00 | 0.66 | 0.00 | 96 | 1014.5 |
| 20260902050928 | 21 | 132 | 0.0 | 0.0 | 0.00 | 0.66 | 0.00 | 96 | 1014.5 |
| 20260902050923 | 21 | 132 | 0.0 | 0.0 | 0.00 | 0.66 | 0.00 | 96 | 1014.5 |
| 20260902050714 | 21 | 132 | 0.0 | 0.0 | 0.00 | 0.66 | 0.00 | 96 | 1014.6 |
| 20260902050613 | 21 | 132 | 0.0 | 0.0 | 0.00 | 0.66 | 0.00 | 96 | 1014.6 |
| 20260902050555 | 21 | 132 | 0.0 | 0.0 | 0.00 | 0.66 | 0.00 | 96 | 1014.6 |
| 20260902050548 | 21 | 132 | 0.0 | 0.0 | 0.00 | 0.66 | 0.00 | 96 | 1014.6 |
| 20260902050521 | 21 | 132 | 0.0 | 0.0 | 0.00 | 0.66 | 0.00 | 96 | 1014.9 |
| 20260902050326 | 21 | 132 | 0.0 | 0.0 | 0.00 | 0.66 | 0.00 | 96 | 1014.6 |
| 20260902050318 | 21 | 132 | 0.0 | 0.0 | 0.00 | 0.66 | 0.00 | 96 | 1014.6 |
| 20260902050112 | 21 | 132 | 0.0 | 0.0 | 0.00 | 0.66 | 0.00 | 96 | 1014.6 |
| 20260902050021 | 21 | 132 | 0.0 | 0.0 | 0.00 | 0.66 | 0.00 | 96 | 1015.0 |
| 20260902050011 | 21 | 132 | 0.0 | 0.0 | 0.00 | 0.66 | 0.00 | 96 | 1014.7 |
| 20260902045910 | 21 | 132 | 0.0 | 0.0 | 0.00 | 0.66 | 0.00 | 96 | 1014.7 |
| 20260902045809 | 21 | 132 | 0.0 | 0.0 | 0.00 | 0.66 | 0.00 | 96 | 1014.7 |
| 20260902045709 | 21 | 132 | 0.0 | 0.0 | 0.00 | 0.66 | 0.00 | 96 | 1014.7 |
| 20260902045607 | 21 | 132 | 0.0 | 0.0 | 0.00 | 0.66 | 0.00 | 96 | 1014.7 |
| 20260902045507 | 21 | 132 | 0.0 | 0.0 | 0.00 | 0.66 | 0.00 | 96 | 1014.7 |
| 20260902045434 | 21 | 132 | 0.0 | 0.0 | 0.00 | 0.66 | 0.00 | 96 | 1014.8 |
| 20260902045321 | 21 | 132 | 0.0 | 0.0 | 0.00 | 0.66 | 0.00 | 96 | 1014.7 |
| 20260902045313 | 21 | 132 | 0.0 | 0.0 | 0.00 | 0.66 | 0.00 | 96 | 1014.7 |
| 20260902045104 | 21 | 132 | 0.0 | 0.0 | 0.00 | 0.66 | 0.00 | 96 | 1014.7 |
| 20260902045021 | 21 | 132 | 0.0 | 0.0 | 0.00 | 0.66 | 0.00 | 96 | 1015.0 |
| 20260902045003 | 21 | 132 | 0.0 | 0.0 | 0.00 | 0.66 | 0.00 | 96 | 1014.7 |
| 20260902044903 | 21 | 132 | 0.0 | 0.0 | 0.00 | 0.66 | 0.00 | 96 | 1014.8 |
| 20260902044802 | 21 | 132 | 0.0 | 0.0 | 0.00 | 0.66 | 0.00 | 96 | 1014.8 |
| 20260902044728 | 21 | 132 | 0.0 | 0.0 | 0.00 | 0.66 | 0.00 | 96 | 1014.8 |
| 20260902044701 | 21 | 132 | 0.0 | 0.0 | 0.00 | 0.66 | 0.00 | 96 | 1014.8 |
| 20260902044602 | 21 | 132 | 0.0 | 0.0 | 0.00 | 0.66 | 0.00 | 96 | 1014.8 |
| 20260902044521 | 21 | 132 | 0.0 | 0.0 | 0.00 | 0.66 | 0.00 | 96 | 1015.0 |
| 20260902044502 | 21 | 132 | 0.0 | 0.0 | 0.00 | 0.66 | 0.00 | 96 | 1014.8 |
| 20260902044358 | 21 | 132 | 0.0 | 0.0 | 0.00 | 0.66 | 0.00 | 96 | 1014.9 |
| 20260902044229 | 21 | 132 | 0.0 | 0.0 | 0.00 | 0.66 | 0.00 | 96 | 1014.9 |
| 20260902044209 | 21 | 132 | 0.0 | 0.0 | 0.00 | 0.66 | 0.00 | 96 | 1014.9 |
| 20260902044204 | 21 | 132 | 0.0 | 0.0 | 0.00 | 0.66 | 0.00 | 96 | 1014.9 |
| 20260902044021 | 21 | 132 | 0.0 | 0.0 | 0.00 | 0.66 | 0.00 | 96 | 1015.0 |
| 20260902043955 | 21 | 132 | 0.0 | 0.0 | 0.00 | 0.66 | 0.00 | 96 | 1014.8 |
| 20260902043854 | 21 | 132 | 0.0 | 0.0 | 0.00 | 0.66 | 0.00 | 96 | 1014.8 |
| 20260902043726 | 21 | 132 | 0.0 | 0.0 | 0.00 | 0.66 | 0.00 | 96 | 1014.8 |
| 20260902043654 | 21 | 132 | 0.0 | 0.0 | 0.00 | 0.66 | 0.00 | 96 | 1014.8 |
| 20260902043554 | 21 | 132 | 0.0 | 0.0 | 0.00 | 0.66 | 0.00 | 96 | 1014.7 |
| 20260902043551 | 21 | 132 | 0.0 | 0.0 | 0.00 | 0.66 | 0.00 | 96 | 1014.9 |
| 20260902043515 | 21 | 132 | 0.0 | 0.0 | 0.00 | 0.66 | 0.00 | 96 | 1014.7 |
| 20260902043402 | 21 | 132 | 0.0 | 0.0 | 0.00 | 0.66 | 0.00 | 96 | 1014.7 |
| 20260902043228 | 21 | 132 | 0.0 | 0.0 | 0.00 | 0.66 | 0.00 | 96 | 1014.7 |
| 20260902043152 | 21 | 132 | 0.0 | 0.0 | 0.00 | 0.66 | 0.00 | 96 | 1014.7 |
| 20260902043052 | 21 | 132 | 0.0 | 0.0 | 0.00 | 0.66 | 0.00 | 96 | 1014.7 |
| 20260902043021 | 21 | 132 | 0.0 | 0.0 | 0.00 | 0.69 | 0.00 | 96 | 1014.9 |
| 20260902042951 | 21 | 132 | 0.0 | 0.0 | 0.00 | 0.69 | 0.00 | 96 | 1014.7 |
| 20260902042850 | 21 | 132 | 0.0 | 0.0 | 0.00 | 0.69 | 0.00 | 96 | 1014.6 |
| 20260902042726 | 21 | 132 | 0.0 | 0.0 | 0.00 | 0.69 | 0.00 | 96 | 1014.6 |
| 20260902042703 | 21 | 132 | 0.0 | 0.0 | 0.00 | 0.69 | 0.00 | 96 | 1014.6 |
| 20260902042658 | 21 | 132 | 0.0 | 0.0 | 0.00 | 0.69 | 0.00 | 96 | 1014.6 |
| 20260902042536 | 21 | 132 | 0.0 | 0.0 | 0.00 | 0.69 | 0.00 | 96 | 1014.8 |
| 20260902042449 | 21 | 132 | 0.0 | 0.0 | 0.00 | 0.69 | 0.00 | 96 | 1014.6 |
| 20260902042347 | 21 | 132 | 0.0 | 0.0 | 0.00 | 0.69 | 0.00 | 96 | 1014.6 |
| 20260902042223 | 21 | 132 | 0.0 | 0.0 | 0.00 | 0.69 | 0.00 | 96 | 1014.5 |
| 20260902042200 | 21 | 132 | 0.0 | 0.0 | 0.00 | 0.69 | 0.00 | 96 | 1014.6 |
| 20260902042155 | 21 | 132 | 0.0 | 0.0 | 0.00 | 0.69 | 0.00 | 96 | 1014.6 |
| 20260902042030 | 21 | 132 | 0.0 | 0.0 | 0.00 | 0.69 | 0.00 | 96 | 1014.5 |
| 20260902042025 | 21 | 132 | 0.0 | 0.0 | 0.00 | 0.69 | 0.00 | 96 | 1014.6 |
| 20260902042021 | 21 | 132 | 0.0 | 0.0 | 0.00 | 0.69 | 0.00 | 96 | 1014.8 |
| 20260902042019 | 21 | 132 | 0.0 | 0.0 | 0.00 | 0.69 | 0.00 | 96 | 1014.6 |
| 20260902042010 | 21 | 132 | 0.0 | 0.0 | 0.00 | 0.69 | 0.00 | 96 | 1014.6 |
| 20260902041546 | 21 | 132 | 0.0 | 0.0 | 0.00 | 0.69 | 0.00 | 96 | 1014.6 |
| 20260902041521 | 21 | 132 | 0.0 | 0.0 | 0.00 | 0.69 | 0.00 | 96 | 1014.8 |
| 20260902041444 | 21 | 132 | 0.0 | 0.0 | 0.00 | 0.69 | 0.00 | 96 | 1014.6 |
| 20260902041344 | 21 | 132 | 0.0 | 0.0 | 0.00 | 0.69 | 0.00 | 96 | 1014.6 |
| 20260902041222 | 21 | 132 | 0.0 | 0.0 | 0.00 | 0.69 | 0.00 | 96 | 1014.6 |
| 20260902041143 | 21 | 132 | 0.0 | 0.0 | 0.00 | 0.69 | 0.00 | 96 | 1014.5 |
| 20260902041041 | 21 | 132 | 0.0 | 0.0 | 0.00 | 0.69 | 0.00 | 96 | 1014.5 |
| 20260902041020 | 21 | 132 | 0.0 | 0.0 | 0.00 | 0.69 | 0.00 | 96 | 1014.7 |
| 20260902040947 | 21 | 132 | 0.0 | 0.0 | 0.00 | 0.69 | 0.00 | 96 | 1014.5 |
| 20260902040942 | 21 | 132 | 0.0 | 0.0 | 0.00 | 0.69 | 0.00 | 96 | 1014.5 |
| 20260902040841 | 21 | 132 | 0.0 | 0.0 | 0.00 | 0.69 | 0.00 | 96 | 1014.5 |
| 20260902040827 | 21 | 132 | 0.0 | 0.0 | 0.00 | 0.69 | 0.00 | 96 | 1014.5 |
| 20260902040640 | 21 | 132 | 0.0 | 0.0 | 0.00 | 0.69 | 0.00 | 96 | 1014.4 |
| 20260902040540 | 21 | 132 | 0.0 | 0.0 | 0.00 | 0.69 | 0.00 | 96 | 1014.4 |
| 20260902040520 | 21 | 132 | 0.0 | 0.0 | 0.00 | 0.69 | 0.00 | 96 | 1014.6 |
| 20260902040439 | 21 | 132 | 0.0 | 0.0 | 0.00 | 0.69 | 0.00 | 96 | 1014.4 |
| 20260902040339 | 21 | 132 | 0.0 | 0.0 | 0.00 | 0.69 | 0.00 | 96 | 1014.4 |
| 20260902040258 | 21 | 132 | 0.0 | 0.0 | 0.00 | 0.69 | 0.00 | 96 | 1014.4 |
| 20260902040246 | 21 | 132 | 0.0 | 0.0 | 0.00 | 0.69 | 0.00 | 96 | 1014.4 |
| 20260902040037 | 21 | 132 | 0.0 | 0.0 | 0.00 | 0.69 | 0.00 | 96 | 1014.4 |
| 20260902040021 | 21 | 132 | 0.0 | 0.0 | 0.00 | 0.69 | 0.00 | 96 | 1014.6 |
| 20260902035939 | 21 | 132 | 0.0 | 0.0 | 0.00 | 0.69 | 0.69 | 96 | 1014.4 |
| 20260902035851 | 21 | 132 | 0.0 | 0.0 | 0.00 | 0.69 | 0.69 | 96 | 1014.4 |
| 20260902035847 | 21 | 132 | 0.0 | 0.0 | 0.00 | 0.69 | 0.69 | 96 | 1014.5 |
| 20260902035720 | 21 | 132 | 0.0 | 0.0 | 0.00 | 0.69 | 0.69 | 96 | 1014.4 |
| 20260902035637 | 21 | 132 | 0.0 | 0.0 | 0.00 | 0.69 | 0.69 | 96 | 1014.4 |
| 20260902035537 | 21 | 131 | 0.0 | 0.0 | 0.00 | 0.69 | 0.69 | 96 | 1014.3 |
| 20260902035521 | 21 | 132 | 0.0 | 0.0 | 0.00 | 0.69 | 0.69 | 96 | 1014.6 |
| 20260902035435 | 21 | 132 | 0.0 | 0.0 | 0.00 | 0.69 | 0.69 | 96 | 1014.4 |
| 20260902035335 | 21 | 132 | 0.0 | 0.0 | 0.00 | 0.69 | 0.69 | 96 | 1014.3 |
| 20260902035217 | 21 | 132 | 0.0 | 0.0 | 0.00 | 0.69 | 0.69 | 96 | 1014.3 |
| 20260902035134 | 21 | 132 | 0.0 | 0.0 | 0.00 | 0.69 | 0.69 | 96 | 1014.2 |
| 20260902035034 | 21 | 132 | 0.0 | 0.0 | 0.00 | 0.69 | 0.69 | 96 | 1014.2 |
| 20260902035020 | 21 | 132 | 0.0 | 0.0 | 0.00 | 0.69 | 0.69 | 96 | 1014.4 |
| 20260902034932 | 21 | 132 | 0.0 | 0.0 | 0.00 | 0.69 | 0.69 | 96 | 1014.2 |
| 20260902034846 | 21 | 132 | 0.0 | 0.0 | 0.00 | 0.69 | 0.69 | 96 | 1014.1 |
| 20260902034842 | 21 | 131 | 0.0 | 0.0 | 0.00 | 0.69 | 0.69 | 96 | 1014.1 |
| 20260902034717 | 21 | 131 | 0.0 | 0.0 | 0.00 | 0.69 | 0.69 | 96 | 1014.1 |
| 20260902034632 | 21 | 132 | 0.0 | 0.0 | 0.00 | 0.69 | 0.69 | 96 | 1014.0 |
| 20260902034553 | 21 | 132 | 0.0 | 0.0 | 0.00 | 0.69 | 0.69 | 96 | 1014.0 |
| 20260902034520 | 21 | 132 | 0.0 | 0.0 | 0.00 | 0.69 | 0.69 | 96 | 1014.2 |
| 20260902034440 | 21 | 132 | 0.0 | 0.0 | 0.00 | 0.69 | 0.69 | 96 | 1014.0 |
| 20260902034215 | 21 | 132 | 0.0 | 0.0 | 0.00 | 0.69 | 0.69 | 96 | 1013.8 |
| 20260902034131 | 21 | 132 | 0.0 | 0.0 | 0.00 | 0.69 | 0.69 | 96 | 1013.8 |
| 20260902034030 | 21 | 132 | 0.0 | 0.0 | 0.00 | 0.69 | 0.69 | 96 | 1013.8 |
| 20260902034020 | 21 | 132 | 0.0 | 0.0 | 0.00 | 0.69 | 0.69 | 96 | 1013.8 |
| 20260902033955 | 21 | 132 | 0.0 | 1.6 | 0.00 | 0.69 | 0.69 | 96 | 1013.7 |
| 20260902033930 | 21 | 132 | 0.0 | 0.0 | 0.00 | 0.69 | 0.69 | 96 | 1013.6 |
| 20260902033858 | 21 | 131 | 0.0 | 1.6 | 0.00 | 0.69 | 0.69 | 96 | 1013.7 |
| 20260902033852 | 21 | 132 | 0.0 | 1.6 | 0.00 | 0.69 | 0.69 | 96 | 1013.7 |
| 20260902033843 | 21 | 131 | 0.0 | 1.6 | 0.00 | 0.69 | 0.69 | 96 | 1013.7 |
| 20260902033527 | 21 | 131 | 0.0 | 1.6 | 0.00 | 0.69 | 0.69 | 96 | 1013.7 |
| 20260902033521 | 21 | 132 | 0.0 | 1.6 | 0.00 | 0.69 | 0.69 | 96 | 1013.9 |
| 20260902033427 | 21 | 132 | 0.0 | 1.6 | 0.00 | 0.69 | 0.69 | 96 | 1013.7 |
| 20260902033326 | 21 | 132 | 0.0 | 1.6 | 0.00 | 0.69 | 0.69 | 96 | 1013.7 |
| 20260902033212 | 21 | 132 | 0.0 | 1.6 | 0.00 | 0.69 | 0.69 | 96 | 1013.7 |
| 20260902033127 | 21 | 132 | 0.0 | 1.6 | 0.00 | 0.69 | 0.69 | 96 | 1013.6 |
| 20260902033024 | 21 | 132 | 0.0 | 1.6 | 0.00 | 0.69 | 0.69 | 96 | 1013.6 |
| 20260902033021 | 21 | 132 | 0.0 | 1.6 | 0.00 | 0.69 | 0.69 | 96 | 1013.9 |
| 20260902032924 | 21 | 131 | 0.0 | 1.6 | 0.00 | 0.69 | 0.69 | 96 | 1013.7 |
| 20260902032822 | 21 | 131 | 0.0 | 1.6 | 0.00 | 0.69 | 0.69 | 96 | 1013.6 |
| 20260902032722 | 21 | 132 | 0.0 | 1.6 | 0.00 | 0.69 | 0.69 | 96 | 1013.6 |
| 20260902032712 | 21 | 132 | 0.0 | 0.0 | 0.00 | 0.69 | 0.69 | 96 | 1013.6 |
| 20260902032622 | 21 | 132 | 0.0 | 0.0 | 0.00 | 0.69 | 0.69 | 96 | 1013.6 |
| 20260902032521 | 21 | 132 | 0.0 | 0.0 | 0.00 | 0.69 | 0.69 | 96 | 1013.6 |
| 20260902032422 | 21 | 132 | 0.0 | 0.0 | 0.00 | 0.69 | 0.69 | 96 | 1013.4 |
| 20260902032414 | 21 | 132 | 0.0 | 0.0 | 0.00 | 0.69 | 0.69 | 96 | 1013.4 |
| 20260902032410 | 21 | 132 | 0.0 | 0.0 | 0.00 | 0.69 | 0.69 | 96 | 1013.4 |
| 20260902032405 | 21 | 132 | 0.0 | 0.0 | 0.00 | 0.69 | 0.69 | 96 | 1013.4 |
| 20260902032247 | 21 | 132 | 0.0 | 0.0 | 0.00 | 0.69 | 0.69 | 96 | 1013.4 |
| 20260902032036 | 21 | 132 | 0.0 | 0.0 | 0.00 | 0.69 | 0.69 | 96 | 1013.6 |
| 20260902032027 | 21 | 132 | 0.0 | 0.0 | 0.00 | 0.69 | 0.69 | 96 | 1013.4 |
| 20260902031817 | 21 | 132 | 0.0 | 0.0 | 0.00 | 0.69 | 0.69 | 96 | 1013.4 |
| 20260902031749 | 21 | 132 | 0.0 | 0.0 | 0.00 | 0.69 | 0.69 | 96 | 1013.6 |
| 20260902031744 | 21 | 132 | 0.0 | 0.0 | 0.00 | 0.69 | 0.69 | 96 | 1013.6 |
| 20260902031731 | 21 | 132 | 0.0 | 0.0 | 0.00 | 0.69 | 0.69 | 96 | 1013.5 |
| 20260902031521 | 21 | 132 | 0.0 | 0.0 | 0.00 | 0.69 | 0.69 | 96 | 1013.8 |
| 20260902031415 | 21 | 132 | 0.0 | 0.0 | 0.00 | 0.69 | 0.69 | 96 | 1013.6 |
| 20260902031314 | 21 | 132 | 0.0 | 0.0 | 0.00 | 0.69 | 0.69 | 96 | 1013.6 |
| 20260902031215 | 21 | 132 | 0.0 | 0.0 | 0.00 | 0.69 | 0.69 | 96 | 1013.6 |
| 20260902031126 | 21 | 132 | 0.0 | 0.0 | 0.00 | 0.69 | 0.69 | 96 | 1013.6 |
| 20260902031122 | 21 | 132 | 0.0 | 0.0 | 0.00 | 0.69 | 0.69 | 96 | 1013.6 |
| 20260902031021 | 21 | 132 | 0.0 | 0.0 | 0.00 | 0.69 | 0.69 | 96 | 1013.9 |
| 20260902030912 | 21 | 132 | 0.0 | 0.0 | 0.00 | 0.69 | 0.69 | 96 | 1013.7 |
| 20260902030812 | 21 | 132 | 0.0 | 0.0 | 0.00 | 0.69 | 0.69 | 96 | 1013.8 |
| 20260902030711 | 21 | 132 | 0.0 | 0.0 | 0.00 | 0.69 | 0.69 | 96 | 1013.8 |
| 20260902030611 | 21 | 132 | 0.0 | 0.0 | 0.00 | 0.69 | 0.69 | 96 | 1013.8 |
| 20260902030521 | 21 | 132 | 0.0 | 0.0 | 0.00 | 0.69 | 0.69 | 96 | 1014.0 |
| 20260902030509 | 21 | 132 | 0.0 | 1.6 | 0.00 | 0.69 | 0.69 | 96 | 1013.8 |
| 20260902030409 | 21 | 132 | 0.0 | 1.6 | 0.00 | 0.69 | 0.69 | 96 | 1013.8 |
| 20260902030308 | 21 | 132 | 0.0 | 1.6 | 0.00 | 0.69 | 0.69 | 96 | 1013.8 |
| 20260902030209 | 21 | 132 | 0.0 | 1.6 | 0.00 | 0.69 | 0.69 | 96 | 1013.8 |
| 20260902030108 | 21 | 132 | 0.0 | 1.6 | 0.00 | 0.69 | 0.69 | 96 | 1013.9 |
| 20260902030020 | 21 | 132 | 0.0 | 1.6 | 0.00 | 0.69 | 0.69 | 96 | 1014.1 |
| 20260902030009 | 21 | 132 | 0.0 | 1.6 | 0.00 | 0.69 | 0.69 | 96 | 1013.9 |
| 20260902025905 | 21 | 132 | 0.0 | 1.6 | 0.00 | 0.69 | 0.69 | 96 | 1013.9 |
| 20260902025805 | 21 | 132 | 0.0 | 1.6 | 0.00 | 0.69 | 0.69 | 96 | 1013.9 |
| 20260902025710 | 21 | 132 | 0.0 | 1.6 | 0.00 | 0.69 | 0.69 | 96 | 1013.9 |
| 20260902025704 | 21 | 132 | 0.0 | 1.6 | 0.00 | 0.69 | 0.69 | 96 | 1013.8 |
| 20260902025603 | 21 | 132 | 0.0 | 1.6 | 0.00 | 0.69 | 0.69 | 96 | 1013.7 |
| 20260902025521 | 21 | 132 | 0.0 | 1.6 | 0.00 | 0.69 | 0.69 | 96 | 1013.8 |
| 20260902025503 | 21 | 132 | 0.0 | 1.6 | 0.00 | 0.69 | 0.69 | 96 | 1013.6 |
| 20260902025436 | 21 | 132 | 0.0 | 1.6 | 0.00 | 0.69 | 0.69 | 96 | 1013.5 |
| 20260902025402 | 21 | 132 | 0.0 | 1.6 | 0.00 | 0.69 | 0.69 | 96 | 1013.7 |
| 20260902025331 | 21 | 132 | 0.0 | 1.6 | 0.00 | 0.69 | 0.69 | 96 | 1013.4 |
| 20260902025325 | 21 | 132 | 0.0 | 1.6 | 0.00 | 0.69 | 0.69 | 96 | 1013.5 |
| 20260902025211 | 21 | 132 | 0.0 | 1.6 | 0.00 | 0.69 | 0.69 | 96 | 1013.5 |
| 20260902025028 | 21 | 132 | 0.0 | 1.6 | 0.00 | 0.69 | 0.69 | 96 | 1013.3 |
| 20260902025023 | 21 | 132 | 0.0 | 1.6 | 0.00 | 0.69 | 0.69 | 96 | 1013.3 |
| 20260902025021 | 21 | 132 | 0.0 | 1.6 | 0.00 | 0.69 | 0.69 | 96 | 1013.4 |
| 20260902025018 | 21 | 132 | 0.0 | 1.6 | 0.00 | 0.69 | 0.69 | 96 | 1013.3 |
| 20260902024709 | 21 | 132 | 0.0 | 1.6 | 0.00 | 0.69 | 0.69 | 96 | 1013.3 |
| 20260902024700 | 21 | 132 | 0.0 | 1.6 | 0.00 | 0.69 | 0.69 | 96 | 1013.3 |
| 20260902024559 | 21 | 132 | 0.0 | 1.6 | 0.00 | 0.69 | 0.69 | 96 | 1013.2 |
| 20260902024521 | 21 | 132 | 1.6 | 1.6 | 0.00 | 0.69 | 0.69 | 96 | 1013.4 |
| 20260902024459 | 21 | 132 | 0.0 | 1.6 | 0.00 | 0.69 | 0.69 | 96 | 1013.3 |
| 20260902024358 | 21 | 132 | 0.0 | 1.6 | 0.00 | 0.69 | 0.69 | 96 | 1013.2 |
| 20260902024257 | 21 | 132 | 0.0 | 1.6 | 0.00 | 0.69 | 0.69 | 95 | 1013.3 |
| 20260902024230 | 21 | 132 | 0.0 | 0.0 | 0.00 | 0.69 | 0.69 | 95 | 1013.2 |
| 20260902024226 | 21 | 132 | 0.0 | 0.0 | 0.00 | 0.69 | 0.69 | 95 | 1013.2 |
| 20260902024221 | 21 | 132 | 0.0 | 0.0 | 0.00 | 0.69 | 0.69 | 95 | 1013.2 |
| 20260902024215 | 21 | 132 | 0.0 | 0.0 | 0.00 | 0.69 | 0.69 | 95 | 1013.2 |
| 20260902024021 | 21 | 132 | 0.0 | 0.0 | 0.00 | 0.69 | 0.69 | 95 | 1013.3 |
| 20260902023855 | 21 | 132 | 0.0 | 0.0 | 0.00 | 0.69 | 0.69 | 95 | 1013.2 |
| 20260902023755 | 21 | 132 | 0.0 | 0.0 | 0.00 | 0.69 | 0.69 | 95 | 1013.2 |
| 20260902023705 | 21 | 132 | 0.0 | 0.0 | 0.00 | 0.69 | 0.69 | 95 | 1013.2 |
| 20260902023655 | 21 | 131 | 0.0 | 0.0 | 0.00 | 0.69 | 0.69 | 95 | 1013.1 |
| 20260902023553 | 21 | 132 | 0.0 | 3.2 | 0.00 | 0.69 | 0.69 | 95 | 1013.1 |
| 20260902023521 | 21 | 132 | 0.0 | 3.2 | 0.00 | 0.69 | 0.69 | 95 | 1013.2 |
| 20260902023451 | 21 | 132 | 0.0 | 3.2 | 0.00 | 0.69 | 0.69 | 95 | 1013.1 |
| 20260902023404 | 21 | 132 | 0.0 | 3.2 | 0.00 | 0.69 | 0.69 | 95 | 1013.0 |
| 20260902023400 | 21 | 132 | 0.0 | 3.2 | 0.00 | 0.69 | 0.69 | 95 | 1013.0 |
| 20260902023206 | 21 | 132 | 0.0 | 3.2 | 0.00 | 0.69 | 0.69 | 95 | 1013.0 |
| 20260902023150 | 21 | 132 | 0.0 | 3.2 | 0.00 | 0.69 | 0.69 | 95 | 1013.0 |
| 20260902023050 | 21 | 132 | 0.0 | 3.2 | 0.00 | 0.69 | 0.69 | 95 | 1013.0 |
| 20260902023020 | 21 | 132 | 0.0 | 3.2 | 0.00 | 0.69 | 0.69 | 95 | 1013.1 |
| 20260902022950 | 21 | 132 | 0.0 | 3.2 | 0.00 | 0.69 | 0.69 | 95 | 1013.0 |
| 20260902022848 | 21 | 132 | 0.0 | 3.2 | 0.00 | 0.69 | 0.69 | 95 | 1013.0 |
| 20260902022748 | 21 | 132 | 0.0 | 3.2 | 0.00 | 0.69 | 0.69 | 95 | 1013.0 |
| 20260902022706 | 21 | 132 | 0.0 | 3.2 | 0.00 | 0.69 | 0.69 | 95 | 1013.0 |
| 20260902022648 | 21 | 132 | 0.0 | 3.2 | 0.00 | 0.69 | 0.69 | 95 | 1013.0 |
| 20260902022558 | 21 | 132 | 0.0 | 3.2 | 0.00 | 0.69 | 0.69 | 95 | 1013.3 |
| 20260902022554 | 21 | 132 | 0.0 | 3.2 | 0.00 | 0.69 | 0.69 | 95 | 1013.2 |
| 20260902022520 | 21 | 132 | 0.0 | 3.2 | 0.00 | 0.69 | 0.69 | 95 | 1013.4 |
| 20260902022427 | 21 | 132 | 0.0 | 3.2 | 0.00 | 0.69 | 0.69 | 95 | 1013.4 |
| 20260902022343 | 21 | 132 | 0.0 | 3.2 | 0.00 | 0.69 | 0.69 | 95 | 1013.4 |
| 20260902022315 | 21 | 131 | 0.0 | 3.2 | 0.00 | 0.69 | 0.69 | 95 | 1013.4 |
| 20260902022143 | 21 | 132 | 0.0 | 3.2 | 0.00 | 0.69 | 0.69 | 95 | 1013.5 |
| 20260902022043 | 21 | 132 | 0.0 | 3.2 | 0.00 | 0.69 | 0.69 | 95 | 1013.5 |
| 20260902022021 | 21 | 132 | 0.0 | 3.2 | 0.00 | 0.69 | 0.69 | 95 | 1013.7 |
| 20260902021943 | 21 | 132 | 0.0 | 3.2 | 0.00 | 0.69 | 0.69 | 95 | 1013.6 |
| 20260902021843 | 21 | 132 | 0.0 | 3.2 | 0.00 | 0.69 | 0.69 | 95 | 1013.6 |
| 20260902021822 | 21 | 132 | 0.0 | 3.2 | 0.00 | 0.69 | 0.69 | 95 | 1013.6 |
| 20260902021807 | 21 | 132 | 0.0 | 3.2 | 0.00 | 0.69 | 0.69 | 95 | 1013.6 |
| 20260902021548 | 21 | 132 | 0.0 | 3.2 | 0.00 | 0.69 | 0.69 | 95 | 1013.5 |
| 20260902021521 | 21 | 132 | 0.0 | 3.2 | 0.00 | 0.69 | 0.69 | 95 | 1013.6 |
| 20260902021339 | 21 | 132 | 0.0 | 6.4 | 0.00 | 0.69 | 0.69 | 95 | 1013.4 |
| 20260902021238 | 21 | 128 | 0.0 | 6.4 | 0.00 | 0.69 | 0.69 | 95 | 1013.5 |
| 20260902021206 | 21 | 126 | 0.0 | 6.4 | 0.00 | 0.69 | 0.69 | 95 | 1013.5 |
| 20260902021137 | 21 | 126 | 0.0 | 6.4 | 0.00 | 0.69 | 0.69 | 95 | 1013.5 |
| 20260902021037 | 21 | 108 | 1.6 | 6.4 | 0.00 | 0.69 | 0.69 | 95 | 1013.4 |
| 20260902021021 | 21 | 108 | 0.0 | 4.8 | 0.00 | 0.69 | 0.69 | 95 | 1013.5 |
| 20260902020935 | 21 | 108 | 1.6 | 6.4 | 0.00 | 0.69 | 0.69 | 95 | 1013.4 |
| 20260902020835 | 21 | 108 | 1.6 | 6.4 | 0.00 | 0.69 | 0.69 | 95 | 1013.4 |
| 20260902020705 | 21 | 108 | 1.6 | 6.4 | 0.00 | 0.69 | 0.69 | 95 | 1013.3 |
| 20260902020633 | 21 | 108 | 1.6 | 6.4 | 0.00 | 0.69 | 0.69 | 95 | 1013.3 |
| 20260902020533 | 21 | 139 | 1.6 | 6.4 | 0.00 | 0.69 | 0.69 | 95 | 1013.2 |
| 20260902020521 | 21 | 140 | 1.6 | 4.8 | 0.00 | 0.69 | 0.69 | 95 | 1013.3 |
| 20260902020431 | 21 | 90 | 1.6 | 6.4 | 0.00 | 0.69 | 0.69 | 95 | 1013.2 |
| 20260902020344 | 21 | 59 | 1.6 | 6.4 | 0.00 | 0.69 | 0.69 | 95 | 1013.2 |
| 20260902020340 | 21 | 61 | 1.6 | 6.4 | 0.00 | 0.69 | 0.69 | 95 | 1013.2 |
| 20260902020206 | 21 | 121 | 1.6 | 6.4 | 0.00 | 0.69 | 0.69 | 95 | 1013.2 |
| 20260902020155 | 21 | 84 | 1.6 | 6.4 | 0.00 | 0.69 | 0.69 | 95 | 1013.1 |
| 20260902020150 | 21 | 111 | 1.6 | 6.4 | 0.00 | 0.69 | 0.69 | 95 | 1013.0 |
| 20260902020146 | 21 | 102 | 1.6 | 6.4 | 0.00 | 0.69 | 0.69 | 95 | 1013.1 |
| 20260902020021 | 21 | 92 | 3.2 | 6.4 | 0.00 | 0.69 | 0.69 | 95 | 1013.1 |
| 20260902015840 | 21 | 79 | 1.6 | 6.4 | 0.00 | 0.69 | 0.69 | 95 | 1013.0 |
| 20260902015836 | 21 | 100 | 1.6 | 6.4 | 0.00 | 0.69 | 0.69 | 95 | 1013.0 |
| 20260902015705 | 21 | 80 | 1.6 | 6.4 | 0.00 | 0.69 | 0.69 | 95 | 1013.1 |
| 20260902015627 | 21 | 58 | 1.6 | 6.4 | 0.00 | 0.69 | 0.69 | 95 | 1013.1 |
| 20260902015526 | 21 | 90 | 1.6 | 6.4 | 0.00 | 0.69 | 0.69 | 95 | 1013.1 |
| 20260902015521 | 21 | 90 | 3.2 | 6.4 | 0.00 | 0.69 | 0.69 | 95 | 1013.2 |
| 20260902015426 | 21 | 71 | 1.6 | 6.4 | 0.00 | 0.69 | 0.69 | 95 | 1013.1 |
| 20260902015324 | 21 | 107 | 1.6 | 4.8 | 0.00 | 0.69 | 0.69 | 95 | 1013.1 |
| 20260902015224 | 21 | 126 | 0.0 | 4.8 | 0.00 | 0.69 | 0.69 | 95 | 1013.1 |
| 20260902015204 | 21 | 107 | 0.0 | 4.8 | 0.00 | 0.69 | 0.69 | 95 | 1013.1 |
| 20260902015124 | 21 | 107 | 0.0 | 4.8 | 0.00 | 0.69 | 0.69 | 95 | 1013.1 |
| 20260902015023 | 21 | 101 | 0.0 | 4.8 | 0.00 | 0.69 | 0.69 | 95 | 1013.1 |
| 20260902015021 | 21 | 98 | 4.8 | 4.8 | 0.00 | 0.69 | 0.69 | 95 | 1013.2 |
| 20260902014923 | 21 | 204 | 0.0 | 3.2 | 0.00 | 0.69 | 0.69 | 95 | 1013.1 |
| 20260902014823 | 21 | 205 | 0.0 | 1.6 | 0.00 | 0.69 | 0.69 | 95 | 1013.1 |
| 20260902014703 | 21 | 225 | 0.0 | 1.6 | 0.00 | 0.69 | 0.69 | 95 | 1013.0 |
| 20260902014622 | 21 | 225 | 0.0 | 1.6 | 0.00 | 0.69 | 0.69 | 95 | 1013.0 |
| 20260902014522 | 21 | 225 | 0.0 | 0.0 | 0.00 | 0.69 | 0.69 | 95 | 1013.0 |
| 20260902014421 | 21 | 225 | 0.0 | 0.0 | 0.00 | 0.69 | 0.69 | 95 | 1012.9 |
| 20260902014320 | 21 | 225 | 0.0 | 0.0 | 0.00 | 0.69 | 0.69 | 95 | 1013.0 |
| 20260902014253 | 21 | 225 | 0.0 | 0.0 | 0.00 | 0.69 | 0.69 | 95 | 1012.9 |
| 20260902014248 | 21 | 225 | 0.0 | 0.0 | 0.00 | 0.69 | 0.69 | 95 | 1012.9 |
| 20260902014235 | 21 | 225 | 0.0 | 0.0 | 0.00 | 0.69 | 0.69 | 95 | 1012.9 |
| 20260902014036 | 21 | 225 | 0.0 | 0.0 | 0.00 | 0.69 | 0.69 | 95 | 1012.9 |
| 20260902013918 | 21 | 225 | 0.0 | 0.0 | 0.00 | 0.69 | 0.69 | 95 | 1012.8 |
| 20260902013831 | 21 | 225 | 0.0 | 0.0 | 0.00 | 0.69 | 0.69 | 95 | 1012.6 |
| 20260902013826 | 21 | 225 | 0.0 | 0.0 | 0.00 | 0.69 | 0.69 | 95 | 1012.7 |
| 20260902013700 | 21 | 225 | 0.0 | 0.0 | 0.00 | 0.69 | 0.69 | 95 | 1012.6 |
| 20260902013617 | 21 | 225 | 0.0 | 0.0 | 0.00 | 0.69 | 0.69 | 95 | 1012.6 |
| 20260902013529 | 21 | 225 | 0.0 | 0.0 | 0.00 | 0.69 | 0.69 | 95 | 1012.3 |
| 20260902013525 | 21 | 225 | 0.0 | 0.0 | 0.00 | 0.69 | 0.69 | 95 | 1012.4 |
| 20260902013521 | 21 | 225 | 0.0 | 0.0 | 0.00 | 0.69 | 0.69 | 95 | 1012.4 |
| 20260902013316 | 21 | 225 | 0.0 | 0.0 | 0.00 | 0.69 | 0.69 | 95 | 1012.2 |
| 20260902013215 | 21 | 225 | 0.0 | 0.0 | 0.00 | 0.69 | 0.69 | 95 | 1012.2 |
| 20260902013159 | 21 | 225 | 0.0 | 0.0 | 0.00 | 0.69 | 0.69 | 95 | 1012.2 |
| 20260902013115 | 21 | 225 | 0.0 | 0.0 | 0.00 | 0.69 | 0.69 | 94 | 1012.2 |
| 20260902013021 | 21 | 225 | 0.0 | 0.0 | 0.00 | 0.69 | 0.69 | 95 | 1012.1 |
| 20260902013014 | 21 | 225 | 0.0 | 0.0 | 0.00 | 0.69 | 0.69 | 95 | 1012.1 |
| 20260902012958 | 21 | 225 | 0.0 | 0.0 | 0.00 | 0.69 | 0.69 | 95 | 1011.7 |
| 20260902012954 | 21 | 225 | 0.0 | 0.0 | 0.00 | 0.69 | 0.69 | 95 | 1011.6 |
| 20260902012950 | 21 | 225 | 0.0 | 0.0 | 0.03 | 0.69 | 0.69 | 95 | 1011.6 |
| 20260902012945 | 21 | 225 | 0.0 | 0.0 | 0.00 | 0.69 | 0.69 | 94 | 1012.0 |
| 20260902012935 | 21 | 225 | 0.0 | 0.0 | 0.00 | 0.69 | 0.69 | 95 | 1011.8 |
| 20260902012521 | 21 | 225 | 0.0 | 0.0 | 0.03 | 0.69 | 0.69 | 94 | 1011.6 |
| 20260902012511 | 21 | 225 | 0.0 | 0.0 | 0.03 | 0.69 | 0.69 | 94 | 1011.6 |
| 20260902012411 | 21 | 225 | 0.0 | 0.0 | 0.05 | 0.69 | 0.69 | 94 | 1011.5 |
| 20260902012310 | 21 | 225 | 0.0 | 0.0 | 0.05 | 0.69 | 0.69 | 94 | 1011.4 |
| 20260902012210 | 21 | 225 | 0.0 | 0.0 | 0.10 | 0.69 | 0.69 | 94 | 1011.3 |
| 20260902012158 | 21 | 225 | 0.0 | 0.0 | 0.10 | 0.69 | 0.69 | 94 | 1011.3 |
| 20260902012120 | 21 | 225 | 0.0 | 0.0 | 0.20 | 0.69 | 0.69 | 94 | 1011.3 |
| 20260902012115 | 21 | 225 | 0.0 | 0.0 | 0.15 | 0.69 | 0.69 | 94 | 1011.3 |
| 20260902012021 | 21 | 225 | 0.0 | 0.0 | 0.18 | 0.69 | 0.69 | 94 | 1011.4 |
| 20260902011916 | 21 | 225 | 0.0 | 0.0 | 0.36 | 0.69 | 0.69 | 95 | 1011.5 |
| 20260902011907 | 21 | 225 | 0.0 | 0.0 | 0.25 | 0.69 | 0.69 | 94 | 1011.4 |
| 20260902011815 | 21 | 225 | 0.0 | 0.0 | 0.30 | 0.69 | 0.69 | 94 | 1011.5 |
| 20260902011806 | 21 | 225 | 0.0 | 0.0 | 0.36 | 0.69 | 0.69 | 95 | 1011.5 |
| 20260902011605 | 21 | 225 | 0.0 | 0.0 | 0.38 | 0.69 | 0.69 | 94 | 1011.5 |
| 20260902011536 | 22 | 225 | 0.0 | 0.0 | 0.38 | 0.69 | 0.69 | 94 | 1011.6 |
| 20260902011505 | 21 | 225 | 0.0 | 0.0 | 0.41 | 0.69 | 0.69 | 94 | 1011.5 |
| 20260902011405 | 21 | 225 | 0.0 | 0.0 | 0.46 | 0.69 | 0.69 | 94 | 1011.5 |
| 20260902011304 | 21 | 225 | 0.0 | 0.0 | 0.46 | 0.69 | 0.69 | 94 | 1011.5 |
| 20260902011157 | 21 | 225 | 0.0 | 0.0 | 0.48 | 0.69 | 0.69 | 94 | 1011.4 |
| 20260902011103 | 21 | 225 | 0.0 | 0.0 | 0.51 | 0.69 | 0.69 | 94 | 1011.4 |
| 20260902011036 | 22 | 225 | 0.0 | 0.0 | 0.51 | 0.69 | 0.69 | 94 | 1011.5 |
| 20260902011004 | 22 | 225 | 0.0 | 0.0 | 0.51 | 0.69 | 0.69 | 94 | 1011.4 |
| 20260902010903 | 22 | 225 | 0.0 | 0.0 | 0.56 | 0.69 | 0.69 | 94 | 1011.5 |
| 20260902010801 | 22 | 225 | 0.0 | 3.2 | 0.58 | 0.69 | 0.69 | 94 | 1011.5 |
| 20260902010655 | 22 | 225 | 0.0 | 3.2 | 0.61 | 0.69 | 0.69 | 94 | 1011.5 |
| 20260902010600 | 22 | 225 | 0.0 | 3.2 | 0.61 | 0.69 | 0.69 | 94 | 1011.4 |
| 20260902010521 | 22 | 225 | 0.0 | 3.2 | 0.61 | 0.69 | 0.69 | 94 | 1011.6 |
| 20260902010458 | 22 | 225 | 0.0 | 3.2 | 0.61 | 0.69 | 0.69 | 94 | 1011.5 |
| 20260902010411 | 22 | 225 | 1.6 | 4.8 | 0.64 | 0.69 | 0.69 | 94 | 1011.7 |
| 20260902010407 | 22 | 225 | 0.0 | 4.8 | 0.64 | 0.69 | 0.69 | 94 | 1011.6 |
| 20260902010158 | 22 | 225 | 1.6 | 4.8 | 0.64 | 0.69 | 0.69 | 94 | 1011.7 |
| 20260902010056 | 22 | 225 | 1.6 | 6.4 | 0.66 | 0.69 | 0.69 | 94 | 1011.8 |
| 20260902010036 | 22 | 225 | 0.0 | 6.4 | 0.66 | 0.69 | 0.69 | 94 | 1012.0 |
| 20260902005955 | 22 | 225 | 1.6 | 6.4 | 0.66 | 0.69 | 0.69 | 94 | 1011.9 |
| 20260902005853 | 22 | 225 | 1.6 | 6.4 | 0.66 | 0.69 | 0.69 | 94 | 1011.8 |
| 20260902005753 | 22 | 204 | 1.6 | 6.4 | 0.66 | 0.69 | 0.69 | 94 | 1011.6 |
| 20260902005652 | 22 | 204 | 1.6 | 6.4 | 0.66 | 0.69 | 0.69 | 93 | 1011.5 |
| 20260902005551 | 22 | 204 | 1.6 | 6.4 | 0.66 | 0.69 | 0.69 | 93 | 1011.5 |
| 20260902005521 | 22 | 204 | 1.6 | 6.4 | 0.66 | 0.69 | 0.69 | 93 | 1011.7 |
| 20260902005451 | 22 | 204 | 1.6 | 6.4 | 0.66 | 0.69 | 0.69 | 93 | 1011.7 |
| 20260902005350 | 22 | 204 | 1.6 | 6.4 | 0.66 | 0.69 | 0.69 | 93 | 1011.7 |
| 20260902005250 | 22 | 204 | 0.0 | 6.4 | 0.66 | 0.69 | 0.69 | 93 | 1011.9 |
| 20260902005149 | 22 | 203 | 0.0 | 6.4 | 0.66 | 0.69 | 0.69 | 93 | 1011.9 |
| 20260902005048 | 22 | 172 | 0.0 | 3.2 | 0.66 | 0.69 | 0.69 | 93 | 1012.0 |
| 20260902005021 | 22 | 172 | 0.0 | 3.2 | 0.66 | 0.69 | 0.69 | 93 | 1011.9 |
| 20260902004948 | 22 | 172 | 1.6 | 3.2 | 0.66 | 0.69 | 0.69 | 93 | 1011.9 |
| 20260902004848 | 22 | 120 | 1.6 | 4.8 | 0.66 | 0.69 | 0.69 | 93 | 1011.9 |
| 20260902004748 | 22 | 109 | 1.6 | 4.8 | 0.66 | 0.69 | 0.69 | 93 | 1011.9 |
| 20260902004647 | 22 | 109 | 1.6 | 4.8 | 0.66 | 0.69 | 0.69 | 93 | 1011.8 |
| 20260902004546 | 22 | 109 | 1.6 | 4.8 | 0.66 | 0.69 | 0.69 | 93 | 1011.6 |
| 20260902004520 | 22 | 109 | 1.6 | 4.8 | 0.66 | 0.69 | 0.69 | 93 | 1011.3 |
| 20260902004456 | 22 | 109 | 1.6 | 4.8 | 0.66 | 0.69 | 0.69 | 93 | 1011.2 |
| 20260902004452 | 22 | 109 | 1.6 | 4.8 | 0.66 | 0.69 | 0.69 | 93 | 1011.3 |
| 20260902004242 | 22 | 109 | 1.6 | 4.8 | 0.66 | 0.69 | 0.69 | 93 | 1011.0 |
| 20260902004142 | 22 | 109 | 1.6 | 4.8 | 0.66 | 0.69 | 0.69 | 92 | 1010.9 |
| 20260902004041 | 22 | 109 | 1.6 | 4.8 | 0.66 | 0.69 | 0.69 | 92 | 1010.8 |
| 20260902004035 | 22 | 243 | 3.2 | 4.8 | 0.66 | 0.69 | 0.69 | 92 | 1010.7 |
| 20260902003941 | 22 | 243 | 1.6 | 4.8 | 0.66 | 0.69 | 0.69 | 92 | 1010.7 |
| 20260902003852 | 22 | 242 | 1.6 | 4.8 | 0.66 | 0.69 | 0.69 | 92 | 1010.4 |
| 20260902003848 | 22 | 242 | 1.6 | 4.8 | 0.66 | 0.69 | 0.69 | 92 | 1010.6 |
| 20260902003656 | 22 | 242 | 1.6 | 4.8 | 0.66 | 0.69 | 0.69 | 92 | 1010.4 |
| 20260902003646 | 22 | 242 | 1.6 | 4.8 | 0.66 | 0.69 | 0.69 | 92 | 1010.3 |
| 20260902003521 | 22 | 242 | 0.0 | 4.8 | 0.66 | 0.69 | 0.69 | 92 | 1010.4 |
| 20260902003435 | 22 | 242 | 1.6 | 4.8 | 0.66 | 0.69 | 0.69 | 92 | 1010.4 |
| 20260902003335 | 22 | 242 | 1.6 | 4.8 | 0.66 | 0.69 | 0.69 | 92 | 1010.4 |
| 20260902003235 | 22 | 242 | 1.6 | 4.8 | 0.66 | 0.69 | 0.69 | 92 | 1010.5 |
| 20260902003152 | 22 | 242 | 0.0 | 4.8 | 0.66 | 0.69 | 0.69 | 91 | 1010.7 |
| 20260902003149 | 22 | 242 | 0.0 | 4.8 | 0.66 | 0.69 | 0.69 | 92 | 1010.7 |
| 20260902003142 | 22 | 242 | 0.0 | 4.8 | 0.66 | 0.69 | 0.69 | 91 | 1010.7 |
| 20260902003021 | 22 | 242 | 1.6 | 4.8 | 0.66 | 0.69 | 0.69 | 91 | 1010.9 |
| 20260902002933 | 22 | 242 | 0.0 | 4.8 | 0.66 | 0.69 | 0.69 | 91 | 1010.9 |
| 20260902002831 | 22 | 243 | 0.0 | 4.8 | 0.66 | 0.69 | 0.69 | 91 | 1011.0 |
| 20260902002745 | 22 | 241 | 0.0 | 3.2 | 0.66 | 0.69 | 0.69 | 91 | 1011.0 |
| 20260902002736 | 22 | 232 | 0.0 | 0.0 | 0.64 | 0.66 | 0.69 | 90 | 1011.1 |
| 20260902002544 | 22 | 227 | 0.0 | 0.0 | 0.64 | 0.66 | 0.66 | 90 | 1011.1 |
| 20260902002540 | 22 | 229 | 0.0 | 0.0 | 0.64 | 0.66 | 0.66 | 90 | 1011.1 |
| 20260902002521 | 22 | 227 | 0.0 | 0.0 | 0.64 | 0.66 | 0.66 | 90 | 1011.1 |
| 20260902002329 | 23 | 227 | 0.0 | 0.0 | 0.61 | 0.64 | 0.64 | 90 | 1011.2 |
| 20260902002229 | 23 | 244 | 0.0 | 0.0 | 0.56 | 0.58 | 0.61 | 89 | 1011.3 |
| 20260902002145 | 23 | 244 | 0.0 | 0.0 | 0.51 | 0.53 | 0.58 | 89 | 1011.4 |
| 20260902002129 | 23 | 244 | 0.0 | 0.0 | 0.51 | 0.53 | 0.56 | 89 | 1011.4 |
| 20260902002039 | 23 | 288 | 0.0 | 0.0 | 0.41 | 0.43 | 0.48 | 89 | 1011.6 |
| 20260902002035 | 23 | 244 | 0.0 | 0.0 | 0.46 | 0.48 | 0.53 | 89 | 1011.6 |
| 20260902002022 | 23 | 244 | 0.0 | 0.0 | 0.48 | 0.51 | 0.51 | 89 | 1011.7 |
| 20260902001825 | 23 | 270 | 0.0 | 0.0 | 0.36 | 0.38 | 0.41 | 88 | 1011.7 |
| 20260902001725 | 23 | 252 | 0.0 | 0.0 | 0.30 | 0.33 | 0.38 | 88 | 1011.7 |
| 20260902001644 | 23 | 275 | 0.0 | 0.0 | 0.30 | 0.33 | 0.33 | 87 | 1011.6 |
| 20260902001637 | 23 | 210 | 0.0 | 0.0 | 0.25 | 0.28 | 0.30 | 87 | 1011.7 |
| 20260902001633 | 23 | 261 | 0.0 | 0.0 | 0.28 | 0.30 | 0.33 | 87 | 1011.6 |
| 20260902001551 | 23 | 273 | 0.0 | 0.0 | 0.28 | 0.30 | 0.30 | 86 | 1011.8 |
| 20260902001436 | 24 | 286 | 0.0 | 0.0 | 0.20 | 0.23 | 0.25 | 85 | 1011.7 |
| 20260902001432 | 23 | 277 | 0.0 | 0.0 | 0.20 | 0.23 | 0.25 | 86 | 1011.7 |
| 20260902001222 | 24 | 245 | 0.0 | 0.0 | 0.18 | 0.20 | 0.23 | 84 | 1011.8 |
| 20260902001145 | 24 | 277 | 0.0 | 0.0 | 0.18 | 0.20 | 0.20 | 84 | 1011.8 |
| 20260902001121 | 24 | 272 | 0.0 | 0.0 | 0.15 | 0.18 | 0.20 | 84 | 1011.8 |
| 20260902001047 | 25 | 249 | 0.0 | 0.0 | 0.10 | 0.13 | 0.15 | 84 | 1011.9 |
| 20260902001042 | 25 | 317 | 0.0 | 0.0 | 0.08 | 0.10 | 0.13 | 83 | 1011.8 |
| 20260902001037 | 25 | 310 | 0.0 | 0.0 | 0.15 | 0.18 | 0.18 | 84 | 1011.9 |
| 20260902001021 | 25 | 290 | 0.0 | 0.0 | 0.15 | 0.18 | 0.18 | 83 | 1011.9 |
| 20260902000719 | 25 | 223 | 0.0 | 0.0 | 0.05 | 0.08 | 0.10 | 83 | 1011.8 |
| 20260902000645 | 25 | 276 | 0.0 | 0.0 | 0.05 | 0.08 | 0.08 | 82 | 1011.9 |
| 20260902000618 | 25 | 244 | 0.0 | 0.0 | 0.05 | 0.08 | 0.08 | 82 | 1011.9 |
| 20260902000521 | 26 | 261 | 0.0 | 0.0 | 0.05 | 0.08 | 0.08 | 82 | 1011.9 |
| 20260902000518 | 26 | 314 | 0.0 | 0.0 | 0.05 | 0.08 | 0.08 | 82 | 1011.9 |
| 20260902000418 | 26 | 271 | 0.0 | 0.0 | 0.03 | 0.05 | 0.08 | 82 | 1011.9 |
| 20260902000409 | 27 | 298 | 0.0 | 0.0 | 0.03 | 0.05 | 0.05 | 86 | 1011.8 |
| 20260902000316 | 26 | 308 | 0.0 | 0.0 | 0.03 | 0.05 | 0.05 | 84 | 1011.9 |
| 20260902000252 | 27 | 293 | 0.0 | 0.0 | 0.03 | 0.05 | 0.05 | 86 | 1012.0 |
| 20260902000129 | 27 | 296 | 0.0 | 0.0 | 0.00 | 0.03 | 0.03 | 88 | 1011.6 |
| 20260902000125 | 27 | 287 | 0.0 | 0.0 | 0.00 | 0.03 | 0.05 | 87 | 1011.8 |
| 20260902000021 | 27 | 317 | 0.0 | 0.0 | 0.00 | 0.03 | 0.03 | 88 | 1011.4 |
| 20260901235916 | 27 | 279 | 0.0 | 0.0 | 0.00 | 0.03 | 0.03 | 89 | 1011.4 |
| 20260901235815 | 27 | 261 | 0.0 | 0.0 | 0.00 | 0.03 | 0.03 | 88 | 1011.3 |
| 20260901235756 | 27 | 219 | 0.0 | 0.0 | 0.00 | 0.03 | 0.03 | 88 | 1010.7 |
| 20260901235751 | 27 | 219 | 0.0 | 0.0 | 0.00 | 0.03 | 0.03 | 88 | 1010.6 |
| 20260901235746 | 27 | 219 | 0.0 | 0.0 | 0.00 | 0.03 | 0.03 | 88 | 1010.9 |
| 20260901235738 | 27 | 219 | 0.0 | 0.0 | 0.00 | 0.03 | 0.03 | 88 | 1010.7 |
| 20260901235520 | 27 | 219 | 0.0 | 0.0 | 0.00 | 0.03 | 0.03 | 88 | 1010.6 |
| 20260901235325 | 27 | 218 | 0.0 | 0.0 | 0.00 | 0.03 | 0.03 | 87 | 1010.6 |
| 20260901235321 | 27 | 218 | 0.0 | 0.0 | 0.00 | 0.03 | 0.03 | 88 | 1010.6 |
| 20260901235112 | 27 | 218 | 0.0 | 0.0 | 0.00 | 0.03 | 0.03 | 87 | 1010.6 |
| 20260901235021 | 27 | 218 | 0.0 | 0.0 | 0.00 | 0.03 | 0.03 | 87 | 1010.5 |
| 20260901235011 | 27 | 218 | 0.0 | 0.0 | 0.00 | 0.03 | 0.03 | 87 | 1010.6 |
| 20260901234911 | 27 | 218 | 0.0 | 0.0 | 0.00 | 0.03 | 0.03 | 87 | 1010.5 |
| 20260901234709 | 27 | 218 | 0.0 | 0.0 | 0.00 | 0.03 | 0.03 | 87 | 1010.4 |
| 20260901234641 | 27 | 219 | 0.0 | 0.0 | 0.00 | 0.03 | 0.03 | 87 | 1010.5 |
| 20260901234608 | 27 | 218 | 0.0 | 0.0 | 0.00 | 0.03 | 0.03 | 87 | 1010.5 |
| 20260901234521 | 27 | 218 | 0.0 | 0.0 | 0.00 | 0.03 | 0.03 | 87 | 1010.4 |
| 20260901234508 | 27 | 218 | 0.0 | 0.0 | 0.00 | 0.03 | 0.03 | 87 | 1010.5 |
| 20260901234409 | 27 | 218 | 0.0 | 0.0 | 0.00 | 0.03 | 0.03 | 87 | 1010.4 |
| 20260901234307 | 27 | 218 | 0.0 | 0.0 | 0.00 | 0.03 | 0.03 | 86 | 1010.3 |
| 20260901234207 | 27 | 218 | 0.0 | 0.0 | 0.00 | 0.03 | 0.03 | 86 | 1010.2 |
| 20260901234142 | 27 | 218 | 0.0 | 0.0 | 0.00 | 0.03 | 0.03 | 86 | 1010.2 |
| 20260901234106 | 27 | 218 | 0.0 | 0.0 | 0.00 | 0.03 | 0.03 | 86 | 1010.3 |
| 20260901234021 | 27 | 218 | 0.0 | 0.0 | 0.00 | 0.03 | 0.03 | 86 | 1010.3 |
| 20260901234006 | 27 | 218 | 0.0 | 0.0 | 0.00 | 0.03 | 0.03 | 86 | 1010.3 |
| 20260901233947 | 27 | 218 | 0.0 | 0.0 | 0.00 | 0.03 | 0.03 | 86 | 1010.5 |
| 20260901233941 | 27 | 218 | 0.0 | 0.0 | 0.00 | 0.03 | 0.03 | 86 | 1010.4 |
| 20260901233719 | 27 | 218 | 0.0 | 0.0 | 0.00 | 0.03 | 0.03 | 86 | 1010.6 |
| 20260901233711 | 27 | 218 | 0.0 | 0.0 | 0.00 | 0.03 | 0.03 | 86 | 1010.6 |
| 20260901233521 | 27 | 218 | 0.0 | 0.0 | 0.00 | 0.03 | 0.03 | 85 | 1010.8 |
| 20260901233518 | 27 | 218 | 0.0 | 0.0 | 0.00 | 0.03 | 0.03 | 85 | 1010.8 |
| 20260901233514 | 27 | 218 | 0.0 | 0.0 | 0.00 | 0.03 | 0.03 | 85 | 1010.8 |
| 20260901233358 | 27 | 218 | 0.0 | 0.0 | 0.00 | 0.03 | 0.03 | 84 | 1010.9 |
| 20260901233304 | 27 | 218 | 0.0 | 0.0 | 0.00 | 0.03 | 0.03 | 85 | 1010.8 |
| 20260901233246 | 27 | 218 | 0.0 | 0.0 | 0.00 | 0.03 | 0.03 | 85 | 1010.8 |
| 20260901233103 | 27 | 218 | 0.0 | 0.0 | 0.00 | 0.03 | 0.03 | 84 | 1010.8 |
| 20260901233021 | 27 | 218 | 0.0 | 0.0 | 0.00 | 0.03 | 0.03 | 84 | 1010.7 |
| 20260901233003 | 27 | 218 | 0.0 | 0.0 | 0.00 | 0.03 | 0.03 | 84 | 1010.8 |
| 20260901232915 | 27 | 218 | 0.0 | 0.0 | 0.00 | 0.03 | 0.03 | 85 | 1010.6 |
| 20260901232911 | 27 | 218 | 0.0 | 0.0 | 0.00 | 0.03 | 0.03 | 85 | 1010.7 |
| 20260901232638 | 27 | 218 | 0.0 | 0.0 | 0.00 | 0.03 | 0.03 | 84 | 1010.6 |
| 20260901232601 | 27 | 218 | 0.0 | 0.0 | 0.00 | 0.03 | 0.03 | 84 | 1010.5 |
| 20260901232521 | 27 | 218 | 0.0 | 0.0 | 0.00 | 0.03 | 0.03 | 84 | 1010.4 |
| 20260901232500 | 27 | 218 | 0.0 | 0.0 | 0.00 | 0.03 | 0.03 | 84 | 1010.5 |
| 20260901232359 | 27 | 218 | 0.0 | 0.0 | 0.00 | 0.03 | 0.03 | 84 | 1010.5 |
| 20260901232300 | 27 | 218 | 0.0 | 0.0 | 0.00 | 0.03 | 0.03 | 84 | 1010.5 |
| 20260901232159 | 27 | 218 | 0.0 | 0.0 | 0.00 | 0.03 | 0.03 | 84 | 1010.5 |
| 20260901232138 | 28 | 218 | 0.0 | 0.0 | 0.00 | 0.03 | 0.03 | 84 | 1010.5 |
| 20260901232059 | 28 | 218 | 0.0 | 0.0 | 0.00 | 0.03 | 0.03 | 84 | 1010.5 |
| 20260901232021 | 28 | 218 | 0.0 | 0.0 | 0.00 | 0.03 | 0.03 | 83 | 1010.4 |
| 20260901231956 | 28 | 218 | 0.0 | 0.0 | 0.00 | 0.03 | 0.03 | 83 | 1010.5 |
| 20260901231855 | 28 | 218 | 0.0 | 0.0 | 0.00 | 0.03 | 0.03 | 83 | 1010.4 |
| 20260901231755 | 28 | 218 | 0.0 | 0.0 | 0.00 | 0.03 | 0.03 | 83 | 1010.4 |
| 20260901231712 | 28 | 218 | 0.0 | 0.0 | 0.00 | 0.03 | 0.03 | 83 | 1010.5 |
| 20260901231602 | 28 | 218 | 0.0 | 0.0 | 0.00 | 0.03 | 0.03 | 83 | 1010.5 |
| 20260901231521 | 28 | 218 | 0.0 | 0.0 | 0.00 | 0.03 | 0.03 | 83 | 1010.4 |
| 20260901231352 | 28 | 218 | 0.0 | 0.0 | 0.00 | 0.03 | 0.03 | 83 | 1010.5 |
| 20260901231251 | 28 | 218 | 0.0 | 0.0 | 0.00 | 0.03 | 0.03 | 83 | 1010.4 |
| 20260901231134 | 28 | 218 | 0.0 | 0.0 | 0.00 | 0.03 | 0.03 | 82 | 1010.5 |
| 20260901231050 | 28 | 218 | 0.0 | 0.0 | 0.00 | 0.03 | 0.03 | 82 | 1010.5 |
| 20260901231021 | 28 | 218 | 0.0 | 0.0 | 0.00 | 0.03 | 0.03 | 82 | 1010.4 |
| 20260901230950 | 28 | 218 | 0.0 | 0.0 | 0.00 | 0.03 | 0.03 | 82 | 1010.5 |
| 20260901230902 | 28 | 218 | 0.0 | 0.0 | 0.00 | 0.03 | 0.03 | 81 | 1010.7 |
| 20260901230858 | 28 | 218 | 0.0 | 0.0 | 0.00 | 0.03 | 0.03 | 81 | 1010.6 |